GFSSW_850_temp_000.txt.gz
Temp
12 13 13 13 13 13 14 15 15 16 16 16 16 16 16 16 17 17 17 17 18 18 19 19 19 19 19 19 19 19 23 22 21 22 21 21 22 18 17 18 16 15 16 14 14
12 13 13 13 14 14 15 15 15 16 16 16 16 16 17 17 17 17 17 17 18 18 19 19 19 20 20 20 20 23 22 21 20 21 22 21 21 19 19 19 17 15 13 14 14
12 13 13 13 14 14 15 15 16 16 16 16 17 17 17 17 18 17 17 17 18 19 19 19 19 20 21 21 20 21 21 20 20 19 20 21 20 18 20 21 19 18 15 14 14
13 13 13 14 14 15 15 16 16 16 16 17 17 17 17 17 19 17 17 17 18 18 19 19 20 20 21 21 20 20 19 19 19 18 19 20 19 20 19 19 16 16 15 14 15
13 13 14 14 15 15 16 16 16 17 17 17 17 17 17 18 17 17 17 17 18 18 18 19 20 20 21 20 20 20 19 18 18 18 18 17 19 18 19 16 14 14 14 14 14
13 13 14 15 15 15 16 16 17 17 17 17 17 17 18 18 17 17 17 18 18 18 18 18 19 19 19 19 20 18 19 19 18 18 18 19 19 18 18 15 15 14 15 15 14
13 14 15 15 15 15 16 16 17 17 17 17 17 17 18 17 17 17 18 18 18 18 18 18 18 18 18 19 17 18 20 19 19 19 19 18 20 20 19 16 16 15 15 14 14
14 15 15 15 15 15 16 16 17 17 17 17 17 17 18 17 17 18 18 18 18 18 18 18 17 17 17 16 18 19 20 20 20 19 18 18 21 21 19 17 17 17 16 15 14
14 15 15 16 16 16 16 17 17 17 17 17 17 18 18 17 17 18 18 18 18 18 18 18 18 17 18 20 20 20 20 19 19 19 18 19 20 21 19 17 18 18 18 16 15
15 15 15 16 16 16 16 17 17 17 17 17 17 18 17 16 17 18 18 18 18 18 19 18 19 21 21 21 19 18 19 18 18 20 18 19 20 22 21 20 18 18 18 18 16
15 15 15 16 16 16 17 17 18 17 16 16 16 16 16 17 17 16 18 18 18 18 19 18 20 18 18 18 17 17 18 19 20 18 16 19 19 21 21 20 19 18 17 17 17
15 16 16 16 16 17 17 17 17 17 17 16 16 16 16 17 18 17 17 18 18 19 18 20 18 17 17 17 17 18 18 19 19 18 17 18 19 21 20 19 17 17 18 17 16
15 16 16 16 16 17 17 17 16 16 18 16 16 16 16 16 16 16 16 16 18 18 18 18 18 16 17 18 17 19 18 18 17 18 19 18 22 22 20 19 17 17 16 15 14
16 16 16 16 16 16 16 16 16 16 18 17 17 17 16 16 17 15 15 15 17 17 17 18 17 17 17 17 16 17 16 16 16 16 19 16 20 21 20 20 20 18 17 16 15
15 16 16 16 16 16 16 16 16 16 17 16 17 16 15 16 15 16 15 15 17 16 17 17 16 16 17 16 15 16 16 16 15 15 16 17 17 21 20 20 20 19 17 16 15
15 15 16 15 15 16 16 16 16 17 16 16 16 16 17 16 15 15 15 14 14 16 16 16 14 16 16 16 15 15 16 17 15 15 15 16 17 21 20 19 19 19 17 15 15
15 15 15 15 15 15 15 15 16 17 15 16 16 16 16 15 16 15 15 15 16 16 16 17 16 16 14 16 15 17 17 17 16 17 17 16 16 19 20 19 18 17 16 15 14
14 14 15 15 15 15 15 16 16 13 15 15 15 15 16 15 15 15 16 16 15 15 15 15 17 16 14 15 14 15 15 14 12 15 16 17 15 20 19 18 17 15 15 14 14
14 14 14 15 14 14 14 16 14 15 15 15 15 16 15 15 15 15 15 15 14 14 14 14 16 15 14 14 14 14 15 14 13 9 11 16 18 19 20 18 17 17 16 15 14
14 14 14 14 14 14 14 13 14 13 14 14 15 14 15 14 15 15 14 14 14 13 13 13 13 14 14 13 13 14 14 13 13 11 12 17 17 18 19 18 18 17 16 14 13
14 14 14 14 14 14 14 13 14 12 13 14 14 14 14 14 14 14 14 14 14 14 13 13 12 14 15 16 15 14 14 13 13 13 12 13 16 19 18 18 17 17 15 14 14
14 15 13 14 15 11 13 14 12 13 12 13 14 14 14 13 13 14 14 14 12 13 13 12 12 11 13 15 13 13 13 13 12 13 13 10 12 17 18 17 15 15 15 14 13
13 13 13 14 12 12 12 12 12 13 13 14 13 13 13 13 12 13 13 12 12 13 13 12 11 11 15 14 12 13 13 13 12 9 9 9 13 18 18 18 17 16 15 14 13
13 11 12 12 9 14 13 12 12 11 11 11 12 12 13 13 13 12 13 12 11 12 11 11 12 11 12 14 15 13 13 14 12 9 10 12 14 16 16 17 17 15 14 13 11
12 10 10 12 11 12 12 12 12 12 11 11 12 12 12 10 11 11 12 13 12 10 10 11 10 12 12 13 12 11 11 12 11 11 9 12 13 15 16 16 15 14 12 11 10
11 11 9 8 9 12 10 12 12 12 12 12 12 11 12 11 12 11 12 12 11 12 11 11 9 8 8 11 11 10 11 11 12 12 12 13 13 15 15 15 14 13 12 10 8
12 12 11 6 9 11 12 12 12 12 10 11 12 11 10 11 11 11 11 11 11 11 10 9 7 7 8 10 8 7 9 11 13 13 12 12 13 15 15 14 11 10 9 7 8

GFSSW_850_temp_003.txt.gz
Temp
13 13 13 14 14 14 15 15 16 16 16 16 16 17 17 17 18 19 18 18 18 19 19 19 20 21 22 22 23 24 26 24 24 24 24 24 24 22 21 22 21 21 21 19 17
13 13 13 14 14 15 15 16 16 16 16 17 17 17 17 18 19 18 18 18 18 19 19 21 22 22 23 23 23 25 25 23 24 24 24 24 24 23 22 22 22 20 18 17 17
13 13 14 14 15 15 16 16 17 16 17 17 17 17 18 18 19 19 18 18 19 19 18 20 21 23 23 23 23 24 24 23 23 22 22 23 23 22 23 23 23 22 20 18 18
13 14 14 15 15 16 16 16 16 17 17 17 17 17 18 18 20 18 18 18 19 19 19 21 22 23 24 23 23 23 22 22 22 21 22 23 22 22 22 23 20 21 20 18 18
13 14 14 15 15 16 16 16 17 17 17 17 17 18 18 19 18 18 18 18 19 19 20 21 22 23 24 23 23 23 22 22 21 21 21 21 22 22 22 21 19 19 18 18 18
14 14 15 15 16 16 16 17 17 17 17 17 18 19 19 19 18 18 18 19 19 20 20 20 21 21 22 22 23 22 22 22 22 22 21 21 22 22 22 20 19 19 18 18 18
14 15 15 15 16 16 16 16 17 17 17 17 18 19 19 18 18 19 19 19 19 20 20 20 20 21 21 22 21 21 22 23 22 22 22 21 23 22 22 20 20 19 18 19 18
15 15 15 15 16 16 16 17 17 17 17 17 18 19 19 18 19 19 19 19 19 19 19 19 19 20 21 20 21 22 23 24 24 22 22 22 23 25 23 21 20 20 20 19 18
15 15 16 16 16 16 16 17 17 17 17 18 19 20 20 18 19 19 19 19 19 19 19 19 20 21 20 23 23 24 23 22 23 23 22 22 22 25 23 22 21 21 21 21 19
15 15 16 16 16 17 17 17 17 17 18 18 19 20 19 19 18 18 19 19 20 20 21 21 22 24 24 23 21 21 22 22 22 24 22 22 23 24 24 24 23 23 22 21 21
15 16 16 16 16 17 17 17 18 19 18 19 19 19 19 18 18 19 19 19 20 21 22 22 24 22 21 21 21 21 21 22 23 22 20 21 22 24 25 24 23 22 21 21 20
16 16 16 16 16 17 17 18 18 17 18 18 18 18 17 18 20 19 18 20 21 22 22 23 21 21 21 21 21 22 22 22 23 23 21 22 23 25 23 22 21 21 21 20 19
16 16 16 16 16 17 17 17 17 17 20 18 18 18 17 18 18 18 17 19 21 21 21 21 20 20 20 21 20 22 20 20 20 21 23 22 24 24 23 23 21 20 19 19 18
16 16 16 16 16 17 16 17 17 17 21 19 20 19 18 18 19 17 17 17 20 20 20 21 20 19 20 20 19 20 20 19 19 20 21 22 22 24 23 23 22 21 20 19 18
16 16 16 16 16 17 16 17 17 17 18 19 19 17 18 19 18 19 16 18 19 19 20 19 19 19 20 18 18 19 19 19 20 19 20 21 21 25 23 22 22 22 20 19 18
15 16 16 15 16 16 16 17 16 18 18 19 19 19 20 19 18 19 19 17 17 19 20 20 18 19 19 19 18 18 20 22 20 19 18 21 20 23 24 22 21 21 20 18 17
15 16 16 16 15 16 16 16 18 18 18 19 19 19 19 19 19 19 19 19 19 19 20 21 19 19 18 19 20 20 19 19 18 19 20 20 19 21 23 22 21 20 19 18 17
15 15 15 15 15 16 16 18 17 17 19 18 18 18 19 18 18 19 19 19 18 18 19 19 18 19 18 17 17 18 18 16 14 17 18 20 19 22 23 21 20 18 17 17 17
15 14 15 15 15 15 17 17 17 19 18 18 18 18 18 18 17 18 18 18 17 17 17 17 19 19 17 16 17 18 17 17 15 16 14 18 21 22 23 22 20 19 19 18 16
13 14 14 15 15 15 17 16 17 16 17 17 18 17 18 18 18 18 17 17 17 16 16 16 15 18 17 17 17 17 17 15 15 12 14 18 19 20 21 22 21 20 18 17 16
13 16 15 15 15 17 17 16 16 15 16 17 17 17 17 17 17 17 17 16 16 16 16 16 14 16 17 18 18 17 17 16 17 16 14 14 17 21 20 20 20 19 17 17 16
14 18 14 14 17 17 17 17 15 16 15 16 16 17 16 16 16 16 16 16 15 15 15 15 14 13 16 18 17 17 17 17 14 14 15 14 14 20 20 20 18 18 18 17 16
16 16 14 15 14 14 15 15 15 16 15 16 16 15 15 16 15 15 15 14 14 15 15 15 13 13 17 17 16 17 18 18 16 14 12 10 14 21 20 19 18 18 17 16 15
15 14 14 14 15 17 16 16 15 13 14 14 15 15 15 15 15 14 15 15 13 14 12 12 13 13 13 15 16 15 16 16 16 12 13 14 15 17 18 18 18 17 16 15 14
14 13 13 14 15 16 16 16 15 15 14 14 15 15 15 12 13 14 15 15 15 13 13 13 12 13 14 15 15 15 15 15 15 15 13 15 16 17 17 18 17 15 14 13 12
14 14 12 13 13 15 13 15 15 15 15 15 14 15 15 14 14 14 15 15 14 15 13 13 10 10 9 12 13 13 14 15 15 15 16 16 16 18 17 16 15 13 12 11 11
12 12 13 11 13 14 15 15 15 14 13 14 14 14 13 14 13 13 12 13 13 14 13 11 8 8 8 12 9 8 10 13 15 16 16 15 16 16 16 14 13 12 11 10 10

GFSSW_850_temp_006.txt.gz
Temp
13 13 14 14 14 15 15 15 16 16 16 17 17 18 18 18 18 19 18 18 19 19 19 20 20 22 23 24 24 25 25 24 24 24 24 24 25 23 22 23 22 22 22 19 17
13 13 13 14 14 15 15 15 16 16 17 18 17 18 18 18 18 19 18 19 19 19 20 22 23 23 24 24 25 26 25 24 24 25 24 25 24 23 23 24 23 22 20 19 18
13 13 14 14 15 15 15 16 16 17 17 18 18 18 18 18 19 19 19 19 19 20 20 21 23 24 24 24 24 24 23 24 24 22 23 23 24 23 23 24 23 23 21 20 19
13 13 14 14 15 15 15 16 17 17 17 17 18 18 18 18 20 19 19 19 20 20 20 22 23 24 24 24 24 23 23 23 23 22 22 23 22 23 23 23 22 22 21 20 19
13 14 14 15 15 16 16 17 17 17 17 17 18 18 18 19 19 19 19 19 20 21 21 22 23 23 24 24 24 24 23 23 22 22 22 22 23 23 23 23 21 21 20 20 20
14 14 15 15 16 16 16 17 17 17 17 18 18 18 19 20 19 19 19 20 21 21 21 21 22 22 23 23 23 23 23 23 23 23 23 22 23 23 23 23 21 21 20 20 19
14 15 15 16 16 16 16 17 17 17 18 18 18 19 20 19 20 20 20 20 20 20 21 21 21 22 22 23 22 23 23 24 24 24 23 23 23 23 23 22 21 21 20 20 20
15 15 16 16 16 16 17 17 17 17 18 18 19 19 19 19 20 20 21 21 20 20 21 20 21 21 22 22 22 23 24 24 25 24 23 23 22 25 24 23 22 21 21 20 20
15 16 16 16 16 16 17 17 17 17 18 18 19 19 20 20 20 20 20 20 20 21 21 21 21 22 22 22 23 25 23 23 24 25 24 23 22 24 24 24 23 22 22 22 21
15 16 16 16 16 17 17 17 18 18 18 19 19 21 20 20 19 19 20 20 20 21 22 22 23 23 24 22 20 21 22 23 23 24 23 22 22 24 24 24 25 24 23 22 22
15 16 16 16 17 17 17 17 18 19 19 20 20 20 20 20 19 20 19 20 21 22 23 23 23 21 22 22 22 22 22 23 23 24 23 22 23 24 25 24 24 23 22 22 21
16 16 16 16 16 17 17 18 17 17 19 19 19 19 19 19 21 20 19 21 22 22 23 23 22 21 22 23 22 22 22 22 22 23 22 22 23 24 24 23 22 22 21 20 20
16 16 16 16 16 16 16 17 17 18 19 19 19 19 19 19 20 19 19 20 22 22 22 22 21 21 22 22 20 21 21 20 20 21 23 23 24 24 23 22 21 20 20 20 19
16 16 16 16 17 16 16 18 18 18 20 21 21 20 20 19 20 19 18 19 22 21 21 22 21 21 21 21 20 19 21 19 20 20 19 22 21 24 24 22 22 21 20 20 19
16 16 16 16 16 17 17 17 17 17 18 20 21 19 20 20 20 20 19 20 20 21 21 20 20 20 21 20 20 19 19 19 21 21 20 22 21 23 24 23 22 22 21 19 18
16 16 16 16 16 16 17 17 17 17 18 20 21 20 21 20 20 20 20 19 19 20 21 21 20 20 20 20 21 20 20 21 23 20 18 22 21 21 23 23 23 22 21 19 18
15 16 16 16 15 16 17 17 18 18 20 20 20 21 20 20 20 20 20 20 19 18 20 22 21 20 19 19 21 20 19 17 17 18 18 21 20 21 23 24 22 21 19 18 17
15 16 15 16 16 16 17 18 17 18 20 20 20 20 20 19 20 20 20 20 19 18 19 19 19 20 19 18 17 18 18 16 14 16 16 18 18 22 24 23 21 20 19 18 18
14 14 15 15 16 16 16 17 17 20 19 19 20 20 20 19 19 20 19 18 17 17 16 17 19 20 19 18 18 18 17 18 15 14 14 16 20 22 24 23 21 20 20 18 17
14 15 15 16 16 16 18 16 19 18 19 19 19 19 19 19 19 19 19 18 17 17 17 17 15 19 19 19 19 18 18 15 14 12 14 17 17 18 21 20 20 20 19 18 17
15 17 15 16 16 17 17 17 18 17 17 18 18 18 18 18 18 18 18 17 17 17 17 17 15 16 17 19 18 18 17 17 17 15 13 13 16 19 18 19 19 19 18 17 17
16 17 16 16 17 17 18 18 16 17 17 17 18 18 17 17 17 17 17 17 15 16 16 15 14 12 15 18 19 18 17 17 13 13 14 13 13 18 19 20 19 19 18 17 16
17 17 15 15 14 15 17 17 17 18 17 17 17 17 17 17 15 16 16 15 15 16 14 14 14 12 16 18 18 17 17 17 17 12 13 10 13 18 18 19 19 18 16 15 15
16 12 15 16 17 18 17 17 16 15 16 16 16 16 17 16 17 15 16 16 14 15 13 13 13 13 12 14 15 14 15 16 15 12 13 13 15 17 18 18 18 16 14 14 13
16 15 14 15 16 17 17 17 17 16 16 16 16 16 16 12 13 15 16 16 16 14 14 14 11 13 14 14 14 13 13 14 15 15 13 14 16 17 18 18 15 14 13 12 12
14 15 14 15 15 17 14 17 17 16 16 16 15 16 16 15 14 14 15 14 14 15 15 14 9 9 9 12 13 12 13 14 14 15 15 15 16 18 17 15 14 13 12 11 9
13 13 13 13 14 15 15 17 16 16 15 15 15 15 12 14 14 13 13 13 13 13 13 12 8 6 9 10 9 8 10 13 14 16 16 13 15 17 16 13 12 11 11 8 7

GFSSW_850_temp_009.txt.gz
Temp
13 13 13 13 14 15 15 16 16 16 17 18 18 18 18 18 18 18 19 19 19 20 20 20 21 22 22 22 24 24 16 16 19 19 21 23 21 23 23 22 22 20 19 20 18
12 13 13 14 14 15 16 16 16 17 17 18 18 18 18 18 18 19 19 19 20 20 21 21 21 22 23 24 24 20 15 20 20 20 19 21 22 23 22 22 21 20 18 18 18
13 13 13 14 14 15 16 16 17 17 18 18 18 18 18 18 18 18 19 20 20 21 21 21 22 23 24 24 23 22 18 20 20 22 22 21 21 22 22 20 21 20 19 19 18
12 13 14 14 15 15 16 17 17 17 18 18 19 18 18 18 17 19 20 20 21 21 21 22 22 23 23 22 24 20 22 22 22 22 22 21 22 22 22 21 22 21 20 20 19
13 13 14 15 15 16 16 17 17 18 18 18 18 18 18 19 19 19 20 20 21 21 21 21 22 22 21 22 22 21 22 22 22 22 22 22 21 20 22 22 21 21 20 20 20
13 14 14 15 16 16 17 17 18 18 17 18 18 18 18 18 19 20 20 20 20 21 21 21 21 22 22 22 21 22 22 22 23 22 23 21 20 22 23 22 21 21 20 20 19
14 15 15 16 16 17 17 17 17 17 18 18 18 18 18 19 19 20 20 20 20 20 20 20 21 21 22 22 22 22 20 20 22 22 22 22 19 19 23 22 21 21 20 20 19
15 15 16 16 16 17 17 17 17 17 18 18 18 18 19 19 20 20 20 20 20 20 20 20 21 21 21 22 21 21 20 18 20 21 22 21 17 19 23 22 21 21 21 20 20
15 16 16 16 16 17 17 17 17 18 18 19 19 19 19 20 20 20 20 20 20 21 21 21 21 21 22 19 17 18 17 19 20 22 22 21 18 20 23 22 21 21 21 21 20
15 16 16 16 16 17 17 17 18 18 18 19 19 18 20 20 20 20 20 20 20 21 21 21 21 18 16 15 15 17 18 19 19 20 18 18 17 18 23 23 21 20 20 21 20
16 16 16 16 17 17 17 17 17 18 19 19 19 20 19 20 20 20 20 20 21 21 20 22 16 16 19 19 20 19 18 18 18 19 17 17 16 18 20 21 20 20 20 20 20
16 16 16 16 17 17 17 16 15 16 18 19 20 19 19 19 19 19 20 20 21 18 21 17 17 20 20 19 19 18 18 16 18 18 18 17 17 17 19 19 20 20 20 19 19
16 16 16 16 16 16 17 17 17 17 17 19 19 19 19 19 19 19 19 19 20 19 18 18 19 21 20 19 18 17 17 16 16 17 17 18 17 18 19 20 20 20 20 19 19
16 16 16 16 17 16 16 17 18 18 14 18 19 19 20 19 19 19 19 19 19 19 19 19 20 19 19 19 17 16 17 17 16 15 15 18 14 19 18 17 18 20 19 18 18
16 16 16 16 16 16 17 17 18 18 12 20 19 20 20 19 20 20 20 19 18 18 19 18 18 18 18 18 18 17 18 16 16 15 17 17 15 17 17 18 17 17 18 18 17
16 16 16 16 16 16 17 17 18 12 14 19 20 20 20 20 20 20 20 19 19 18 19 18 20 18 18 18 17 18 17 16 16 15 12 16 15 15 19 19 18 17 18 18 17
15 16 16 16 16 16 17 17 12 11 20 19 19 20 20 18 19 20 19 15 14 14 15 18 18 18 18 17 17 15 13 10 11 11 12 16 15 15 18 18 17 16 18 18 18
15 15 15 16 16 17 17 13 16 17 18 20 19 19 18 18 19 19 17 15 15 15 14 15 14 17 17 17 16 14 16 9 11 10 11 15 15 17 18 19 19 19 18 17 17
15 15 15 16 16 17 16 11 11 17 18 17 19 18 18 18 18 18 15 15 15 14 13 12 15 16 17 17 16 15 12 16 13 11 8 11 15 18 18 18 18 17 18 18 17
15 15 16 16 16 16 12 14 16 17 17 18 17 17 16 17 16 17 16 15 15 15 15 15 12 15 16 17 16 16 16 11 8 9 11 13 13 14 15 16 16 15 16 17 16
15 15 16 16 16 16 10 14 16 17 17 16 16 16 16 16 16 16 15 14 15 14 15 13 11 12 14 16 14 14 13 14 14 11 10 9 11 15 15 15 14 16 16 15 14
15 13 16 16 15 15 11 16 17 17 17 17 16 15 15 15 15 15 15 14 15 15 13 12 11 8 13 15 15 16 14 14 9 10 8 8 11 15 14 15 17 16 13 14 13
16 16 16 16 8 7 16 15 15 16 16 16 16 16 16 15 14 14 15 15 15 14 12 12 8 7 10 13 13 13 14 13 11 7 10 7 10 15 15 15 14 13 12 12 12
15 6 15 16 16 14 15 15 14 15 15 16 16 16 15 14 14 14 14 14 14 14 13 13 11 9 8 11 12 11 12 12 11 5 9 9 11 13 14 13 12 12 11 11 11
15 13 14 8 12 14 14 16 14 14 15 16 15 15 14 11 12 13 14 13 14 14 13 11 8 10 10 11 12 12 12 11 11 10 9 11 11 13 13 11 11 10 10 10 9
14 13 14 14 15 13 13 14 15 15 15 14 14 14 14 12 12 11 11 11 12 13 10 11 7 9 8 10 11 10 10 10 10 10 11 11 12 13 12 9 9 8 9 8 7
13 13 13 12 13 9 10 15 14 15 14 15 14 13 10 13 13 12 12 12 12 10 9 9 6 4 9 8 7 6 8 10 11 11 11 9 10 9 9 9 9 8 7 7 6

GFSSW_850_temp_012.txt.gz
Temp
13 14 14 14 14 15 15 16 16 16 17 17 17 18 18 18 19 19 20 20 20 20 20 21 21 21 22 22 21 21 14 14 18 18 19 21 21 22 22 21 20 20 21 20 18
13 13 14 14 14 15 16 16 16 17 17 17 18 18 18 18 19 19 20 20 20 21 21 21 22 22 23 23 23 18 13 19 19 18 19 19 20 21 21 20 18 19 20 19 18
13 13 14 14 15 15 16 16 16 17 17 18 18 18 18 18 19 19 20 20 20 20 21 21 22 22 23 23 22 19 17 19 19 21 21 20 21 22 21 19 18 18 19 19 19
13 13 14 14 15 16 16 16 16 17 18 19 18 18 18 18 17 19 20 20 20 21 21 21 22 22 20 19 21 19 20 21 21 21 21 20 21 20 21 21 21 20 20 19 18
13 14 14 15 15 16 16 16 17 18 18 18 18 18 18 19 19 20 20 20 20 21 21 21 21 21 18 20 21 20 21 21 22 22 21 21 21 20 21 21 21 20 19 19 19
14 14 15 15 16 16 16 16 17 18 18 18 18 18 18 18 19 20 20 20 20 20 20 21 20 21 21 21 20 21 21 21 21 21 21 20 19 20 22 21 21 20 19 19 19
14 15 15 16 16 16 16 17 18 18 18 18 18 18 19 19 20 20 20 20 20 20 20 21 21 21 21 20 21 21 20 18 20 21 20 21 19 18 22 21 21 20 20 20 20
15 15 15 16 16 17 17 18 18 18 18 18 18 18 19 19 20 20 20 20 20 20 20 21 21 21 21 21 20 19 17 17 18 19 21 20 17 19 21 21 21 20 20 20 20
15 15 16 16 16 17 17 17 18 18 18 18 18 18 19 19 20 20 20 20 20 21 21 20 20 20 21 16 15 15 16 17 18 19 19 20 17 18 21 20 21 20 20 20 20
15 16 16 16 16 17 17 17 17 18 18 18 18 18 19 19 20 19 20 20 20 20 20 21 20 15 14 13 14 16 16 17 18 18 16 16 16 16 19 20 19 20 18 19 19
15 16 16 16 17 17 17 17 17 18 18 19 19 19 19 19 19 19 20 20 20 20 18 20 15 16 18 18 18 18 16 16 17 17 16 15 14 15 18 17 17 18 18 18 19
16 16 16 16 17 17 17 17 16 16 18 19 19 19 19 19 19 20 19 20 19 17 18 15 16 19 18 18 17 16 17 15 15 17 16 15 15 14 16 16 18 18 17 17 17
16 16 16 16 16 17 16 17 16 17 16 19 19 19 19 19 19 19 19 19 18 17 16 16 18 20 18 16 16 16 16 16 15 14 15 16 16 17 18 17 17 18 18 18 18
16 16 16 16 16 16 16 17 17 17 12 18 18 19 19 19 19 19 19 19 18 18 18 18 19 18 17 17 16 15 16 16 15 14 14 16 13 16 17 17 17 17 18 18 18
16 16 16 16 16 16 16 17 17 17 11 18 19 19 20 19 19 20 19 19 18 17 17 17 18 17 17 17 17 15 15 15 15 13 14 14 14 16 18 17 17 14 16 17 17
16 16 16 16 16 16 17 17 17 12 14 18 19 19 19 19 20 19 18 19 18 17 17 17 19 17 17 17 17 16 15 14 14 13 11 15 14 14 14 15 14 15 17 17 16
16 16 16 16 16 16 17 17 11 11 18 17 18 19 18 17 18 17 15 13 13 14 13 15 16 17 18 15 15 13 11 9 11 10 11 14 13 14 15 16 16 16 16 17 17
15 15 16 16 16 16 17 12 14 14 17 19 18 18 17 17 18 16 16 13 13 13 12 12 12 15 17 16 15 14 13 8 11 10 10 12 13 15 15 16 17 17 17 17 16
16 16 16 16 16 16 17 9 10 15 16 16 17 17 17 17 17 16 14 13 13 12 12 11 13 15 16 16 16 15 12 14 11 9 8 10 13 15 15 14 15 16 16 16 15
15 15 15 16 16 16 10 11 15 16 16 16 16 16 15 15 15 15 14 13 14 14 13 13 11 14 14 15 15 16 14 11 7 8 10 11 11 12 14 14 14 13 13 13 12
15 15 16 16 16 16 9 11 15 16 16 15 15 14 14 14 14 14 13 13 14 13 13 12 10 11 12 14 13 12 11 12 12 8 8 8 9 11 14 13 11 13 13 12 12
15 13 16 16 15 11 11 15 17 16 16 16 15 14 14 14 13 14 13 13 15 14 12 12 9 7 11 12 13 14 12 11 6 10 7 8 10 14 12 13 13 12 11 11 11
15 15 15 16 7 5 14 14 14 15 14 15 15 15 15 14 13 13 13 14 14 14 13 12 8 7 10 11 11 12 12 11 10 5 7 5 7 13 13 13 11 9 10 10 10
15 7 15 16 14 12 13 14 14 15 15 15 15 15 13 12 12 13 13 13 14 14 13 12 9 9 8 10 10 10 11 11 10 4 8 9 10 11 11 9 9 9 9 9 8
14 12 13 7 11 13 13 14 13 14 15 15 14 14 13 11 11 11 11 11 12 13 12 10 8 9 9 10 10 10 10 10 10 9 7 9 9 10 8 8 9 9 8 8 8
14 14 14 12 13 13 10 14 14 14 14 14 12 12 11 11 11 11 11 10 10 11 10 9 6 8 8 9 9 8 9 9 9 9 9 8 9 8 8 8 8 8 7 7 7
13 13 14 10 10 7 8 14 14 14 14 14 13 12 9 12 12 12 12 12 11 9 7 8 5 4 9 5 6 7 8 8 9 10 9 7 8 8 7 7 7 7 8 7 7

GFSSW_850_temp_015.txt.gz
Temp
13 13 14 14 15 15 15 15 16 16 17 17 17 17 18 18 19 20 19 19 19 20 20 21 22 22 22 21 20 20 12 14 18 18 19 19 20 21 20 20 19 19 19 19 16
13 13 13 14 15 15 15 16 15 17 17 17 17 18 18 19 19 20 19 19 20 20 21 22 23 23 22 22 21 16 12 17 18 18 18 19 20 20 19 18 18 19 20 18 16
12 13 13 14 15 15 16 15 17 17 17 17 17 18 18 19 20 19 20 20 20 21 21 21 22 22 21 22 20 18 15 18 19 20 19 19 20 20 18 17 19 20 19 18 17
13 13 14 15 15 16 15 16 17 17 17 17 18 18 18 19 18 20 20 20 20 21 21 21 22 21 18 18 20 18 19 19 20 20 20 19 20 20 20 21 21 21 20 19 18
13 14 14 15 15 15 16 16 17 17 17 18 18 18 18 19 19 20 20 20 20 21 21 21 21 20 18 19 20 19 20 20 21 21 21 20 20 20 21 21 20 19 19 19 19
13 14 15 15 15 16 16 16 17 17 18 18 18 18 18 18 19 19 20 20 20 21 21 21 20 20 20 19 19 20 20 20 21 21 20 19 19 20 21 21 20 19 19 19 18
14 14 15 15 16 16 16 17 17 18 18 18 18 19 19 19 19 19 20 20 20 20 20 20 21 21 20 19 20 20 19 17 19 20 19 20 18 17 20 20 20 20 19 19 19
15 15 15 16 16 16 16 17 17 18 18 18 18 18 19 19 19 19 20 20 20 20 20 20 20 21 20 20 18 16 15 16 17 18 19 19 15 18 20 20 19 19 19 18 19
15 15 16 16 16 16 17 17 18 18 18 18 18 18 19 19 19 19 20 20 20 20 21 21 20 20 19 15 14 13 15 16 17 17 17 18 16 18 20 19 20 19 19 19 19
15 16 16 16 16 16 17 17 18 18 18 19 19 19 19 19 19 19 20 20 20 21 21 21 20 14 12 13 13 15 16 15 16 16 14 15 14 14 17 17 18 19 19 18 19
15 16 16 16 16 16 17 17 18 18 19 18 19 19 19 19 19 19 20 20 20 20 16 18 14 15 17 17 17 17 16 15 16 16 15 14 12 14 14 16 16 17 16 17 18
16 16 16 16 17 17 17 17 16 16 18 18 19 19 19 19 19 19 19 20 19 16 17 15 16 18 16 16 16 16 16 15 14 15 14 14 13 14 14 15 14 16 16 18 19
16 16 16 16 17 17 17 17 17 17 17 18 19 19 19 19 19 19 19 18 17 16 15 15 18 18 17 15 15 15 16 15 14 13 15 13 15 15 15 16 16 15 16 17 18
16 16 16 16 17 17 17 17 17 17 12 16 18 19 19 19 19 19 19 18 17 17 17 17 17 17 15 16 15 14 16 15 14 14 13 13 14 15 15 16 13 14 15 16 17
16 16 16 16 17 16 16 17 17 17 10 17 19 19 19 19 19 18 18 19 17 16 16 17 17 16 16 16 15 15 14 13 14 13 13 13 12 14 13 15 14 14 16 16 16
16 16 16 16 16 16 16 17 17 11 13 17 19 18 18 18 18 18 17 18 17 15 15 15 17 17 17 16 16 14 14 12 12 11 11 14 13 11 13 14 14 15 15 16 16
16 16 16 16 16 16 16 17 11 10 17 17 17 18 17 16 16 15 13 12 11 14 12 13 15 15 16 15 14 12 11 9 11 9 11 13 13 12 14 15 16 15 16 16 16
15 16 16 16 16 16 17 12 13 13 16 17 17 17 16 16 15 13 14 12 12 12 11 11 12 14 15 15 15 14 12 8 11 9 9 11 12 13 14 15 16 15 15 15 16
15 15 15 16 16 16 16 9 10 12 15 15 16 16 14 15 16 14 12 12 12 12 12 10 12 13 15 14 14 14 11 12 9 8 7 9 12 13 13 12 13 13 13 12 11
15 15 15 16 16 16 10 11 14 15 15 15 15 14 14 14 14 13 13 13 13 12 12 12 11 13 13 14 14 14 13 10 7 7 10 10 10 11 13 11 12 11 10 11 11
15 16 15 16 16 16 9 9 15 16 16 15 14 14 14 14 13 13 12 13 13 13 13 11 10 11 12 12 13 11 10 10 10 7 8 7 9 10 11 10 10 9 10 10 10
15 12 15 16 14 9 10 14 16 15 16 15 14 14 14 13 12 13 13 13 14 13 12 11 8 7 12 11 11 12 10 9 7 9 6 6 9 11 11 10 9 9 9 10 10
15 15 15 16 7 4 13 13 14 15 13 14 14 14 13 12 12 13 13 14 14 13 13 11 7 6 10 11 11 11 11 10 7 5 8 6 7 10 12 9 9 9 9 9 9
15 7 15 15 13 11 12 13 13 14 14 15 14 14 12 11 11 12 12 12 13 13 13 12 8 8 7 10 9 9 10 10 9 4 7 8 9 10 9 8 8 9 8 8 8
14 11 12 7 11 12 12 13 13 13 14 14 12 12 12 10 11 11 11 10 12 11 11 9 8 8 8 8 8 9 9 9 8 7 7 8 8 9 8 7 8 8 7 7 7
14 13 13 11 12 12 9 13 13 13 13 13 11 11 11 11 11 11 11 10 10 10 10 8 6 7 7 7 7 7 8 7 7 7 7 7 7 8 8 8 7 7 7 6 7
13 13 14 8 8 7 7 13 13 13 13 14 12 10 9 12 12 12 12 12 11 9 7 7 4 5 6 5 4 5 6 7 8 9 8 6 7 7 6 7 7 7 7 7 6

GFSSW_850_temp_018.txt.gz
Temp
13 13 14 14 14 15 15 15 16 16 16 17 17 17 17 18 19 19 19 19 20 20 21 21 22 22 21 20 20 19 13 14 17 18 19 18 19 19 19 18 18 18 18 18 17
13 13 13 14 15 15 15 16 16 16 17 17 17 17 18 19 19 19 19 20 20 21 21 22 22 22 21 20 20 15 12 17 17 17 18 18 19 19 19 18 19 19 19 18 17
12 13 14 14 14 15 15 16 16 17 17 17 17 18 18 19 19 19 19 20 20 21 21 22 22 22 21 21 19 17 16 17 19 19 19 18 19 19 18 17 19 20 19 18 16
12 13 13 14 15 15 16 16 16 17 17 17 17 18 19 19 17 19 19 20 20 21 22 22 22 21 17 17 19 18 18 18 19 20 19 18 19 19 19 20 21 21 20 19 17
12 13 14 14 15 15 16 16 17 17 17 17 18 18 19 19 19 19 19 20 20 21 22 22 21 20 17 18 19 19 19 19 20 20 19 19 19 19 19 21 21 20 19 19 19
13 13 14 14 15 16 16 17 17 17 17 18 18 19 19 17 19 19 20 20 20 20 20 20 20 20 19 19 18 19 18 18 19 19 19 19 19 19 21 21 20 20 19 19 18
13 14 14 15 15 16 16 17 17 17 18 18 18 18 19 18 19 19 19 19 20 20 20 20 20 21 20 19 19 19 18 16 18 17 18 18 17 17 20 20 20 20 19 19 19
14 14 15 15 16 16 17 17 17 18 18 18 18 19 19 19 19 19 20 20 20 20 20 20 20 21 20 19 17 15 14 15 17 17 18 18 15 17 19 18 19 19 18 18 18
14 15 15 16 16 16 16 17 17 18 18 18 19 19 19 19 19 19 19 20 21 21 21 21 21 19 18 14 13 12 15 16 15 15 14 17 15 16 18 17 18 18 18 18 18
15 15 16 16 16 16 17 17 18 18 19 19 19 19 19 18 19 19 20 20 21 21 21 21 19 13 12 12 13 15 15 15 15 15 13 13 13 12 14 15 15 16 17 17 17
15 15 16 16 16 17 17 18 18 19 18 18 18 18 18 19 19 19 20 20 20 20 15 17 13 14 16 16 16 16 15 15 14 15 14 13 12 12 13 14 14 15 15 16 17
15 16 16 16 16 17 17 18 17 17 17 18 18 18 19 19 19 19 19 20 18 15 16 14 15 17 14 15 16 16 15 14 13 14 14 13 13 13 13 12 13 14 15 16 18
15 16 16 16 17 17 18 17 17 17 17 18 18 18 18 19 18 18 19 18 17 15 14 14 17 16 16 14 14 14 15 15 14 12 14 12 14 13 15 15 15 15 16 17 18
15 16 16 16 17 17 17 17 17 17 11 15 18 19 19 19 18 18 18 18 16 16 16 16 16 15 15 15 14 14 15 14 13 13 13 12 13 14 12 13 13 15 16 15 16
16 16 16 16 17 17 16 17 17 17 10 17 18 19 19 18 18 17 17 18 15 15 15 16 16 15 15 16 15 14 13 13 13 12 12 12 11 13 12 13 13 13 15 16 16
16 16 16 16 16 16 17 17 17 10 13 17 18 17 17 17 17 17 16 17 16 13 13 14 16 15 16 15 14 13 12 11 10 10 10 13 12 11 12 13 13 13 15 15 15
16 16 16 16 16 16 16 17 10 10 15 16 16 17 15 15 14 14 12 11 11 14 11 12 14 14 15 14 13 12 10 9 11 9 11 12 11 11 13 12 12 12 14 14 15
15 16 16 16 16 16 17 12 13 12 15 16 16 15 15 15 14 12 12 11 11 11 9 10 12 13 14 14 14 13 11 7 11 8 9 10 12 12 13 13 12 13 13 12 12
15 15 15 15 16 16 16 8 9 12 15 15 15 14 14 14 14 12 11 11 11 11 11 10 12 12 14 13 13 13 10 11 8 7 7 9 10 12 10 10 10 10 11 10 10
15 15 15 15 16 16 10 10 13 14 15 15 14 14 14 13 14 12 12 12 12 11 12 11 10 12 12 14 13 12 12 10 6 7 10 9 9 11 10 9 9 8 9 10 10
15 15 14 15 16 16 8 9 14 15 15 14 14 13 13 13 13 12 12 13 13 12 12 11 9 11 11 11 11 10 10 9 8 7 6 7 8 10 9 9 9 8 9 9 9
15 12 15 15 14 8 9 13 15 14 15 14 13 13 13 12 12 12 12 13 13 13 12 10 7 7 11 11 10 10 10 8 6 8 5 5 7 10 9 9 8 8 8 9 8
15 15 15 16 7 4 12 12 13 14 13 13 13 13 12 11 11 12 12 12 13 12 12 11 7 6 9 10 10 10 10 8 6 4 8 7 7 9 10 10 9 8 8 8 8
15 8 15 15 12 10 12 12 13 14 13 13 12 13 11 10 10 11 11 11 12 12 11 11 7 8 7 9 8 8 9 8 8 6 7 8 9 10 10 7 8 8 8 8 8
15 10 11 6 10 11 11 13 12 13 13 13 12 12 11 10 10 10 10 10 11 11 10 8 8 7 7 7 7 8 7 7 7 7 7 9 7 8 7 7 8 8 8 8 7
14 13 12 10 11 11 8 13 12 12 13 12 11 11 11 11 11 10 10 10 10 10 9 7 6 6 5 6 6 5 6 7 7 6 7 7 6 7 8 8 8 8 7 6 5
14 13 14 6 7 7 7 12 12 12 12 13 11 10 9 11 12 12 12 11 10 10 7 7 4 3 4 4 4 5 7 6 8 7 8 7 8 7 7 7 7 7 6 5 5

GFSSW_850_temp_024.txt.gz
Temp
12 12 13 14 14 15 15 15 15 15 16 16 17 17 18 18 18 19 19 19 20 21 21 21 21 21 21 21 20 22 25 24 23 23 23 22 23 21 20 21 19 19 20 19 17
12 12 13 14 14 15 15 15 15 16 16 17 17 18 18 18 19 20 19 20 20 22 22 20 20 21 22 21 22 25 25 23 23 23 24 22 23 22 22 22 21 20 18 17 16
12 12 13 14 14 14 15 15 16 16 16 17 17 18 18 18 19 20 19 20 21 22 22 22 22 22 23 23 22 24 24 23 22 22 23 23 22 22 23 23 22 22 20 18 17
12 12 13 14 14 15 15 15 16 16 17 17 18 18 18 19 21 19 20 20 21 22 22 22 22 23 24 24 22 22 22 23 22 21 22 23 22 22 23 23 21 21 21 19 18
12 12 13 14 14 15 15 16 16 17 17 17 18 19 19 20 19 19 19 20 21 21 22 22 23 23 24 23 23 23 22 22 21 20 21 20 22 22 22 22 20 20 19 19 19
12 13 13 14 15 15 15 16 16 17 17 18 18 19 19 20 19 19 19 20 21 21 21 22 22 22 22 22 23 21 22 21 21 21 20 22 22 21 22 21 20 19 20 20 19
13 13 14 14 15 15 16 16 17 17 18 18 18 19 19 19 19 19 20 20 21 21 21 21 21 22 22 22 20 21 22 23 21 21 21 21 23 23 21 20 21 20 20 20 20
13 14 14 15 15 16 16 17 17 17 18 18 18 19 19 19 19 19 20 20 20 21 21 21 20 20 21 20 21 23 23 23 22 22 21 22 23 23 20 19 21 21 20 19 19
13 14 14 15 16 16 17 17 18 18 18 18 19 19 20 19 19 19 20 20 20 21 21 21 20 20 20 23 23 23 23 22 21 20 22 22 23 22 19 18 20 21 20 20 20
14 14 15 15 16 17 17 17 18 18 18 18 19 19 19 19 18 19 20 20 20 20 21 21 22 24 24 24 22 22 22 21 21 21 21 22 21 21 18 19 19 19 19 19 19
15 15 15 16 16 17 17 17 18 18 18 18 18 18 18 18 18 19 20 20 20 21 23 20 23 22 21 21 21 21 21 21 21 20 20 20 21 20 19 20 20 19 19 18 18
15 15 16 16 17 17 17 17 18 18 18 18 18 18 18 18 20 19 20 21 21 22 21 22 20 20 20 20 20 20 20 20 20 19 19 20 20 20 19 18 18 19 18 18 18
15 15 16 16 16 17 18 18 18 18 20 18 18 18 18 18 18 18 18 19 21 21 21 21 19 18 19 20 20 20 19 19 19 19 19 20 20 20 19 18 18 18 18 17 16
15 15 16 16 16 17 17 17 18 18 20 19 19 19 18 18 19 17 17 18 19 20 20 20 18 19 19 19 19 19 18 18 18 19 21 19 21 19 19 19 18 17 16 16 15
15 15 16 16 17 16 17 17 17 17 18 18 19 18 18 19 18 18 17 19 19 19 19 18 19 19 19 18 18 18 17 17 17 19 19 20 21 19 19 18 18 16 14 14 13
15 16 16 16 17 17 17 17 17 19 17 18 19 19 19 18 17 18 18 17 16 19 20 18 17 19 18 18 17 17 17 17 18 19 18 19 19 20 19 17 17 15 13 12 12
15 15 16 16 16 17 17 17 19 18 17 18 19 19 19 18 18 18 18 17 18 19 18 19 18 18 17 19 18 19 19 19 18 18 19 17 18 18 16 16 15 15 13 12 12
15 15 16 16 16 17 17 19 18 16 18 18 18 18 18 18 17 17 18 18 17 17 18 18 18 17 17 17 17 17 17 17 16 17 18 16 18 17 16 15 14 13 13 12 12
15 15 15 16 16 16 17 18 17 18 18 18 18 18 17 17 18 17 16 16 15 16 17 17 17 17 16 16 16 17 16 16 15 13 14 18 17 16 15 14 14 13 13 12 12
14 15 15 15 16 16 18 15 16 16 17 18 18 17 18 17 17 17 16 15 15 14 14 15 16 16 16 16 16 17 16 16 16 14 15 18 17 18 15 15 14 14 13 12 11
14 15 14 15 15 16 17 16 16 14 15 18 17 17 17 17 17 16 15 15 15 15 15 15 15 16 16 16 16 16 16 15 16 14 14 14 17 17 16 16 14 13 12 11 11
15 16 14 15 16 14 17 17 15 16 15 16 16 17 17 16 16 15 15 15 13 14 15 14 14 15 15 14 14 15 15 15 14 14 13 13 14 16 16 14 12 12 11 11 10
15 14 14 15 15 14 14 15 15 16 15 16 16 16 15 15 15 15 15 12 13 15 15 14 14 15 15 15 15 15 15 14 13 12 12 11 15 15 14 13 14 12 12 11 10
15 14 14 14 12 16 16 15 15 13 14 14 15 15 15 15 15 14 14 13 12 13 11 12 14 14 15 15 14 14 14 14 13 11 13 14 15 16 17 16 14 13 11 11 10
14 13 13 14 14 16 16 16 16 15 14 14 15 16 16 14 14 14 14 13 12 11 12 14 13 13 14 14 14 13 13 14 13 13 12 13 15 16 16 15 13 11 10 10 10
14 13 11 11 12 16 13 15 16 14 16 15 16 15 16 15 15 14 15 14 14 13 13 12 12 10 10 12 13 12 13 13 13 13 13 13 13 15 13 12 11 11 10 9 9
14 14 13 8 12 15 14 15 15 15 13 14 15 15 13 14 14 13 12 12 13 13 12 11 11 10 10 10 10 9 12 13 13 14 13 12 14 13 13 11 11 10 9 8 7

GFSSW_850_temp_027.txt.gz
Temp
12 12 13 13 14 14 14 15 15 15 16 16 17 18 18 18 19 20 21 20 20 21 21 20 20 21 22 24 24 25 26 26 25 25 24 24 25 24 23 23 22 22 22 21 19
12 12 13 13 14 14 14 15 15 15 16 17 17 18 18 19 20 21 20 20 21 21 21 21 22 23 25 25 25 27 27 26 26 26 26 25 25 24 24 23 23 22 21 20 19
12 12 13 13 14 14 14 15 15 16 16 17 17 18 18 19 19 22 20 21 21 21 21 22 23 24 25 25 26 26 26 25 25 25 25 25 25 24 25 25 24 24 22 21 20
12 12 12 13 14 14 15 15 15 16 17 17 18 18 18 19 22 21 20 21 21 22 21 23 24 25 26 26 25 25 25 25 25 24 24 25 25 24 25 25 24 24 22 21 20
12 12 13 13 14 15 15 15 16 16 17 17 18 18 19 20 21 20 20 21 21 22 23 24 25 26 26 26 26 25 25 24 24 23 24 23 24 25 25 24 23 23 22 22 21
12 12 13 14 15 15 15 16 16 17 17 18 18 19 19 22 20 20 20 21 22 23 23 24 25 25 25 26 26 25 24 24 24 24 23 24 24 24 24 24 23 23 23 22 22
12 13 13 14 15 15 16 16 17 17 17 18 18 19 20 21 20 20 21 21 21 22 23 23 23 24 24 24 24 24 24 24 24 24 25 24 25 25 24 23 24 23 23 23 22
13 14 14 14 15 16 16 17 17 17 18 18 19 19 21 19 20 20 21 21 21 21 22 22 22 24 25 24 24 25 26 25 25 24 24 24 25 26 24 23 24 24 23 23 23
13 14 14 15 15 16 17 17 17 17 18 18 19 19 21 20 20 20 20 22 21 21 21 21 23 24 23 25 25 25 25 25 24 24 25 25 25 25 23 23 23 24 24 23 23
13 14 15 15 16 16 17 17 17 18 18 18 18 20 20 21 20 20 20 20 22 22 22 23 24 25 26 26 25 25 25 24 24 24 24 25 25 24 23 23 23 23 23 23 22
14 15 15 16 16 16 17 17 17 18 19 21 21 20 20 20 20 21 20 21 22 23 24 24 25 25 24 24 24 24 24 24 24 23 23 24 24 23 23 23 23 23 22 21 21
15 15 16 16 16 17 17 18 18 19 20 19 19 20 19 20 21 21 21 22 23 24 24 24 24 23 23 23 23 23 23 23 23 23 22 24 23 23 22 22 22 22 21 20 18
15 15 16 16 16 16 17 17 19 19 21 20 19 20 20 21 21 20 21 22 24 24 24 24 23 21 22 22 22 23 22 22 22 23 23 23 23 22 22 21 20 20 19 19 19
15 15 16 16 16 16 17 18 19 18 22 21 21 20 20 20 20 20 19 21 23 23 24 22 21 22 22 21 21 22 21 20 21 21 23 23 23 22 22 21 20 19 18 18 18
15 15 16 16 17 18 17 18 18 18 20 20 21 20 20 21 21 20 20 21 23 22 22 21 21 21 21 20 21 21 20 20 21 21 23 23 23 22 22 21 20 18 17 16 16
15 16 16 16 16 17 17 18 18 20 19 20 21 22 21 21 21 20 21 20 21 22 23 21 20 21 21 20 20 20 20 21 21 22 20 23 22 22 22 21 19 18 16 16 15
15 15 16 16 16 17 18 18 20 20 20 20 21 21 22 21 20 22 21 21 22 21 21 21 21 21 20 21 21 22 21 20 20 20 20 21 21 21 19 19 19 17 16 15 15
15 15 16 16 17 17 17 20 19 19 21 21 21 21 21 21 20 20 21 21 20 21 21 21 19 20 20 19 19 20 20 18 17 19 21 20 20 20 19 17 16 16 15 15 15
15 15 15 16 16 17 18 19 20 21 21 21 21 21 20 20 20 20 20 19 18 19 20 20 20 19 19 19 19 20 19 19 18 16 16 21 20 19 18 18 17 16 16 15 14
14 15 15 16 16 17 19 18 20 20 20 22 21 20 20 20 20 20 20 18 18 18 18 18 19 19 19 19 19 19 19 18 18 14 16 21 21 21 17 17 17 17 16 15 14
14 17 15 16 16 18 19 19 19 18 19 21 20 20 21 19 20 19 19 17 18 18 18 19 18 19 19 19 19 19 19 18 18 17 16 16 19 20 19 19 19 17 16 15 14
15 18 15 16 18 19 19 19 18 18 18 19 20 20 20 19 19 18 18 18 16 17 18 17 18 17 19 18 18 18 18 18 16 16 16 15 15 19 19 18 16 16 15 14 13
17 16 15 16 17 18 18 18 18 19 19 19 18 19 19 19 17 18 17 15 16 17 17 17 17 17 18 17 17 17 18 17 16 14 13 13 15 19 18 17 16 15 15 14 13
17 16 16 16 17 19 18 18 17 16 17 18 18 18 18 18 19 17 16 15 14 15 13 14 17 17 16 17 18 17 17 17 16 14 14 15 17 19 19 18 17 16 15 14 13
17 17 16 17 18 19 19 19 18 17 17 18 18 19 18 17 18 17 17 15 15 13 14 16 15 17 17 17 17 17 17 17 16 16 14 15 16 17 17 16 15 15 13 13 13
17 16 15 16 17 18 15 19 19 18 18 18 18 19 19 17 18 17 17 17 17 15 16 15 14 13 13 16 16 16 16 16 16 16 16 16 15 16 16 15 15 14 13 12 11
15 15 16 13 17 18 18 18 19 17 16 18 18 18 16 17 16 16 15 16 16 16 15 14 13 12 11 12 12 11 14 16 16 16 15 14 15 16 16 14 12 11 10 9 6

GFSSW_850_temp_030.txt.gz
Temp
12 12 13 13 14 14 14 15 15 15 16 16 16 17 18 18 19 19 19 20 20 20 21 21 20 21 22 23 24 25 27 26 26 26 25 25 25 25 24 24 24 23 23 21 19
12 12 12 13 13 14 14 15 15 16 16 16 17 17 18 19 19 19 20 21 21 21 21 20 22 22 23 25 26 26 26 25 27 26 25 25 25 24 24 24 23 22 21 20 19
12 12 12 13 13 13 14 15 15 16 16 16 17 18 18 18 19 21 21 21 22 22 21 22 24 24 25 26 26 27 25 26 26 25 26 25 25 25 25 25 24 23 22 20 19
12 12 12 13 13 14 14 15 15 16 16 16 17 18 18 19 22 21 21 21 22 22 22 23 24 25 26 26 26 25 26 26 25 25 25 25 25 25 26 25 24 23 22 21 20
12 12 12 13 13 14 15 15 15 16 16 17 18 18 19 19 22 21 21 22 22 22 22 24 25 26 26 26 26 25 26 25 24 24 25 24 25 25 25 24 24 23 23 22 21
12 12 13 13 14 14 15 15 16 17 17 17 18 19 19 20 21 22 21 22 23 24 24 25 25 26 26 26 26 25 25 25 24 24 24 24 25 24 25 24 24 23 23 22 22
12 12 13 13 14 15 15 16 17 17 17 18 18 19 19 21 21 22 22 22 22 23 24 24 24 25 26 25 25 25 25 25 25 25 25 24 24 24 25 24 24 24 23 23 23
12 13 13 14 15 15 16 16 16 17 17 18 19 19 19 20 21 21 22 22 22 23 23 23 23 24 25 25 25 25 26 24 25 25 25 24 24 26 25 24 24 24 24 24 23
13 13 14 14 15 16 16 16 17 17 17 18 19 19 22 21 21 22 21 23 22 22 22 22 23 25 24 24 24 25 24 25 24 25 25 25 25 26 24 24 24 24 24 24 23
13 14 14 15 16 16 16 16 17 17 18 19 19 20 21 22 21 21 21 21 23 23 23 23 24 25 25 25 23 24 25 25 24 24 25 25 25 25 24 24 24 25 25 24 23
13 14 14 15 16 16 16 16 17 18 18 21 22 22 22 21 21 22 22 22 23 23 24 24 24 24 24 24 24 25 25 25 25 24 23 24 24 24 24 24 24 23 23 22 19
14 15 15 16 16 16 16 17 18 19 20 20 21 21 21 21 22 22 22 23 23 23 25 25 23 23 24 24 24 24 24 24 24 24 23 24 24 24 23 23 23 22 20 19 18
14 15 15 16 16 16 17 17 17 20 21 21 21 21 21 22 22 22 21 23 24 24 24 23 23 23 23 23 23 24 23 22 22 23 24 23 23 22 22 22 21 20 20 19 18
15 15 16 16 16 17 17 18 18 19 21 21 21 21 21 22 22 21 21 22 24 24 25 23 23 23 23 23 22 22 22 21 22 22 21 24 21 22 22 21 21 20 19 19 18
15 15 16 16 16 17 17 18 19 18 19 22 22 21 22 22 22 21 21 22 23 23 23 22 22 22 22 21 21 22 21 21 21 21 22 23 22 23 22 20 20 19 18 17 17
15 15 16 16 16 16 18 18 18 18 18 21 22 22 22 22 22 22 22 22 22 23 24 22 22 22 21 21 21 22 21 22 22 21 19 22 23 21 21 21 20 18 17 17 16
15 15 16 15 16 17 18 18 19 19 22 21 22 23 22 22 22 23 22 22 22 21 21 22 22 21 21 21 22 22 21 19 18 19 19 22 22 20 20 21 20 18 17 16 16
15 15 16 16 16 17 18 19 18 21 22 23 22 22 21 22 21 22 22 21 21 21 22 21 19 21 21 20 20 21 20 18 17 16 18 22 21 19 20 19 18 18 17 16 15
15 15 15 16 17 17 17 18 21 22 23 22 22 21 21 21 21 21 21 20 19 20 20 21 20 20 20 20 20 20 19 20 18 18 16 19 20 20 19 18 18 17 17 16 15
15 15 15 16 17 17 18 18 21 21 23 23 21 22 21 21 21 21 21 20 19 19 20 19 19 20 20 20 20 20 20 18 18 14 16 19 20 17 18 18 18 18 17 16 15
15 16 16 16 16 17 18 20 20 20 21 22 22 21 22 21 22 21 20 19 20 19 20 19 19 19 20 19 19 19 19 19 19 18 15 15 18 20 19 19 18 18 17 16 15
15 17 15 16 17 19 19 21 19 19 19 21 22 22 21 21 21 20 19 18 18 19 18 17 19 17 19 19 19 19 18 18 15 15 15 15 15 20 19 18 18 17 16 15 15
17 16 15 16 17 18 19 20 20 20 21 20 20 21 21 20 18 20 18 17 17 17 16 17 18 16 18 18 18 18 19 18 17 14 13 12 14 20 19 15 16 16 15 14 14
17 16 16 15 18 19 19 19 18 18 19 20 20 20 20 19 20 18 17 16 16 15 14 14 18 17 16 18 18 17 18 18 18 13 14 14 15 17 18 16 16 15 15 14 14
17 18 18 17 18 20 20 20 19 18 19 19 19 20 20 18 19 18 18 16 16 14 16 17 15 17 17 18 18 17 17 17 17 17 14 16 16 17 16 16 16 13 12 12 11
17 17 17 19 19 19 16 20 20 20 19 19 19 20 20 18 19 18 18 18 17 16 17 16 14 13 13 17 16 15 16 16 17 17 17 16 15 17 17 14 13 12 10 10 8
15 16 17 16 18 19 18 20 20 19 18 20 20 19 16 17 16 16 16 17 18 17 16 15 13 12 11 11 11 11 13 16 16 16 16 14 16 16 14 12 11 10 9 8 6

GFSSW_850_temp_033.txt.gz
Temp
13 13 13 13 13 14 14 15 15 15 16 16 16 17 17 18 18 18 19 19 20 20 20 20 20 21 21 21 22 22 19 20 21 21 21 24 22 24 23 23 22 22 20 19 18
13 13 12 13 13 13 14 15 15 15 16 16 16 17 17 17 18 19 19 19 20 21 21 21 21 22 20 22 22 21 19 21 22 21 21 23 24 23 22 22 20 19 19 18 18
13 12 12 12 13 13 14 15 15 15 16 16 16 17 17 17 18 20 20 21 21 22 21 21 22 22 22 23 25 24 21 22 22 24 25 23 23 24 22 19 21 19 19 18 18
12 12 12 12 13 14 14 15 15 15 16 16 16 17 17 17 18 21 21 21 22 22 22 23 23 23 22 21 25 22 23 24 24 24 25 23 24 24 23 22 22 20 20 19 19
12 12 12 13 13 14 14 15 15 16 16 16 17 17 17 18 19 21 21 22 22 22 23 23 23 24 21 24 24 22 22 24 24 24 24 24 24 23 23 23 23 21 20 19 19
12 12 12 13 13 14 14 15 16 16 16 16 17 17 18 17 21 21 22 22 22 22 23 23 24 24 25 24 23 24 24 23 24 24 24 23 23 24 23 24 22 22 21 21 20
12 12 13 13 14 14 15 16 16 16 16 16 17 18 18 20 21 21 22 22 22 23 23 24 24 24 24 23 25 25 21 22 22 23 22 23 22 22 23 24 23 23 22 21 21
12 13 13 13 14 15 15 16 16 16 16 17 18 18 19 20 21 21 22 22 22 22 23 23 24 24 24 25 25 23 21 19 21 22 23 22 19 21 24 24 23 23 23 22 22
12 13 14 14 15 15 16 16 16 16 17 18 18 18 19 21 21 21 22 22 22 22 22 23 23 24 24 21 19 21 19 20 22 23 22 21 20 21 24 24 23 23 23 23 22
13 13 14 15 15 15 16 16 16 17 17 18 18 17 20 21 21 21 21 22 22 23 23 23 23 20 18 18 18 20 20 21 19 22 23 21 21 21 24 24 23 21 19 18 18
13 14 14 15 15 16 16 16 17 17 17 18 20 20 21 21 21 21 22 22 22 23 20 23 18 19 21 22 23 22 21 20 20 21 22 21 20 20 21 21 17 17 16 15 15
13 14 14 15 15 16 16 17 17 17 18 19 20 21 21 21 22 22 22 22 22 20 21 20 18 21 23 23 22 22 21 19 20 21 20 20 20 19 20 19 19 17 16 15 15
14 14 15 15 15 16 17 17 17 18 19 20 21 21 21 21 22 22 22 21 21 20 20 18 21 23 22 20 20 19 19 19 20 20 21 20 19 18 19 20 19 18 17 16 15
14 14 15 16 16 17 17 16 17 19 15 19 21 21 21 21 21 21 21 21 22 20 19 20 22 22 21 20 19 19 19 19 19 18 16 19 15 17 17 17 17 17 17 16 15
14 15 15 16 16 16 17 17 18 19 12 19 21 21 21 21 21 21 21 22 20 22 20 20 20 19 19 19 20 19 20 19 19 17 17 17 17 16 18 16 15 16 16 16 15
14 15 15 16 16 17 17 18 19 13 14 20 21 21 20 22 22 21 22 22 22 21 19 20 21 19 19 21 21 20 19 18 18 16 14 17 17 16 17 16 15 16 16 16 15
15 15 15 15 16 17 18 18 12 13 20 19 20 21 20 21 21 21 20 19 18 18 18 20 19 20 21 18 20 19 16 13 14 12 14 17 16 15 16 17 16 15 16 15 15
15 15 16 17 16 17 17 14 15 19 20 21 20 21 19 21 20 21 19 17 17 18 18 17 17 18 20 19 18 18 18 10 15 11 13 17 15 15 15 16 17 16 16 15 15
15 15 16 16 17 17 17 13 16 20 21 21 21 19 19 20 20 19 17 17 17 16 17 17 17 18 18 19 18 17 15 18 15 13 11 14 16 16 15 15 16 16 16 15 15
15 15 16 16 17 17 13 14 19 20 22 21 19 19 18 19 19 19 18 18 17 17 18 18 16 19 19 19 19 18 18 14 12 12 14 14 15 14 15 15 15 16 15 15 15
15 15 16 16 16 16 12 15 19 20 19 19 20 21 20 18 19 18 17 17 17 18 17 15 15 17 19 17 16 16 16 16 15 11 10 9 12 15 15 14 14 15 15 14 14
15 12 15 16 15 15 13 18 20 19 19 20 20 21 20 20 18 18 16 16 18 17 16 16 15 13 16 17 18 18 17 16 8 12 10 8 10 14 12 13 14 14 15 14 14
15 15 14 15 10 11 16 19 20 18 19 20 19 19 19 18 16 15 15 16 16 14 13 14 14 10 14 15 16 17 18 18 14 8 10 6 9 16 15 15 14 14 15 12 11
15 10 14 14 16 15 17 17 18 18 19 20 19 20 19 17 17 15 14 15 15 14 14 14 15 13 10 15 15 16 16 16 15 7 9 9 12 14 11 11 12 11 11 10 10
15 13 15 10 13 14 16 17 17 17 18 19 19 18 18 17 16 15 14 14 15 14 15 13 12 13 13 14 15 15 14 13 13 13 11 11 14 13 12 10 11 10 10 9 9
15 15 17 16 17 16 13 17 17 17 17 18 18 18 16 16 15 14 14 14 14 14 15 14 10 11 12 12 12 12 12 12 14 15 14 13 13 11 11 11 9 8 8 6 6
15 16 16 15 15 14 14 18 18 17 17 18 18 13 11 14 15 15 16 16 15 13 13 11 8 6 7 8 7 7 12 14 14 13 13 12 12 10 9 7 7 6 6 5 4

GFSSW_850_temp_036.txt.gz
Temp
13 13 13 13 13 13 14 14 15 15 15 15 16 16 17 17 17 17 19 19 19 19 20 20 20 20 20 20 21 21 17 16 18 20 21 22 21 22 22 20 19 20 18 18 18
13 13 13 13 13 13 14 14 15 15 15 15 16 16 16 17 18 19 20 20 20 20 20 21 21 20 19 21 21 19 16 18 20 21 21 21 22 22 20 19 17 18 18 18 18
13 13 13 13 13 13 14 14 15 15 15 15 16 16 16 17 18 20 20 21 21 20 20 21 21 20 20 21 22 20 19 21 21 23 24 22 22 23 18 17 18 17 18 18 18
13 13 12 13 13 13 13 14 15 15 15 15 16 16 17 17 17 21 21 21 20 21 21 21 20 19 20 20 23 20 21 23 22 22 23 21 23 22 23 20 20 19 18 18 18
12 12 12 13 13 13 13 14 15 15 15 15 15 16 17 17 19 21 21 21 21 21 22 22 21 22 21 22 22 20 21 23 23 23 23 23 22 21 22 21 20 19 18 18 18
12 12 12 13 13 13 14 15 15 15 15 15 16 16 17 16 20 21 21 21 22 22 22 22 22 23 22 23 21 22 22 23 23 23 23 22 21 23 21 21 19 19 19 19 19
12 12 13 13 13 13 14 15 15 15 15 15 16 17 17 19 21 21 21 22 22 22 22 23 23 24 23 21 23 23 20 21 22 23 22 23 21 19 21 21 19 19 19 19 20
12 12 13 13 14 14 15 15 15 15 15 16 16 17 18 20 20 21 21 22 22 23 22 23 24 24 24 24 23 20 19 19 21 21 23 21 18 20 21 20 19 19 19 20 19
12 13 13 14 14 14 15 15 15 15 15 16 16 17 18 20 20 21 21 22 22 23 23 23 23 23 23 18 17 18 18 19 21 20 21 20 19 20 22 22 21 18 19 18 18
12 13 13 14 14 15 15 15 15 15 16 16 16 17 19 20 21 21 22 22 22 22 22 23 22 17 16 16 17 18 18 19 19 20 20 19 19 20 21 20 16 15 14 15 16
13 13 13 14 15 15 15 15 16 16 16 18 19 18 20 21 21 21 22 22 22 22 19 21 17 18 19 18 19 21 19 18 19 21 21 18 18 18 15 15 13 14 14 13 14
13 13 14 14 15 15 16 16 16 16 18 19 19 18 20 21 21 21 21 21 21 19 20 17 18 20 20 19 19 19 18 18 19 20 19 17 18 16 15 14 14 14 14 14 13
13 13 14 15 15 16 17 16 17 17 16 20 20 20 21 21 21 21 21 21 21 20 19 17 19 22 19 18 18 17 17 18 19 19 19 17 17 16 15 15 14 14 15 15 15
14 14 15 15 15 16 16 16 17 17 13 19 20 21 21 21 20 21 21 21 20 19 18 19 21 19 18 18 18 17 19 19 18 16 16 17 14 16 15 14 14 13 14 14 14
14 14 15 15 15 16 16 16 17 17 12 19 20 21 21 21 21 20 21 22 20 20 18 19 18 17 18 19 19 18 19 19 18 16 16 15 14 14 14 13 13 12 13 13 14
14 15 15 15 15 16 17 17 17 13 14 18 20 20 20 21 20 21 21 21 21 18 18 18 19 18 18 19 19 19 18 15 15 14 13 16 15 13 13 14 13 13 13 14 14
14 15 15 15 16 17 17 18 12 12 19 18 18 19 19 19 20 20 18 16 16 17 17 18 18 18 19 17 17 17 14 12 13 11 12 16 14 14 14 15 14 12 14 14 14
14 14 15 16 16 17 17 13 14 16 18 19 19 18 18 19 19 19 17 15 16 16 16 15 15 17 18 18 17 17 15 10 14 11 12 14 13 13 13 14 15 15 15 14 14
15 15 15 16 17 17 17 12 14 18 19 19 19 18 18 19 19 17 16 16 16 16 16 15 16 18 18 18 17 17 14 15 12 11 10 13 14 14 14 15 15 14 14 13 13
15 15 16 16 17 17 12 12 16 18 19 19 18 18 17 18 18 17 16 16 17 17 16 17 15 18 18 18 17 17 16 14 10 12 13 12 13 12 13 13 14 13 13 13 14
15 15 15 16 16 16 11 12 18 19 19 19 19 18 18 17 17 16 15 15 16 16 16 15 13 16 17 16 15 15 14 14 12 10 9 8 11 13 12 12 12 13 14 14 13
14 11 15 15 14 10 11 16 19 18 19 18 19 17 18 18 16 14 15 15 15 15 15 14 12 12 16 17 17 17 16 13 8 13 8 7 9 13 12 14 14 14 12 12 11
14 13 13 15 9 10 13 17 18 18 18 19 18 18 17 16 14 14 14 14 15 13 14 14 12 9 12 13 15 16 16 14 10 7 10 6 9 12 13 9 10 10 10 10 9
15 9 13 14 14 12 15 16 17 18 18 18 18 18 17 16 14 14 14 14 15 14 14 13 12 11 10 13 13 15 15 13 11 6 8 8 11 12 10 8 9 8 9 9 8
14 12 14 9 11 13 14 15 16 16 18 18 17 18 16 15 15 12 13 13 14 14 15 12 11 12 12 12 13 14 13 12 13 11 9 11 10 9 9 8 9 9 8 8 7
14 14 14 13 15 14 11 14 15 16 17 17 17 15 15 14 14 12 13 12 13 13 14 11 9 11 12 10 9 12 11 11 12 14 12 9 9 9 9 9 8 7 7 6 5
15 15 16 11 12 12 12 14 15 16 16 15 14 11 10 13 12 13 14 15 14 12 11 10 6 6 7 6 7 7 11 13 13 11 12 10 8 8 7 6 6 5 5 5 5

GFSSW_850_temp_042.txt.gz
Temp
14 14 14 14 14 13 13 13 13 14 14 14 14 15 15 15 16 17 18 19 19 18 18 18 18 18 18 19 19 19 15 14 15 17 18 20 18 19 18 18 17 17 16 17 16
14 14 14 13 13 13 13 13 13 13 14 14 14 14 15 15 16 18 20 19 19 18 18 18 18 18 19 19 19 17 14 16 17 17 18 20 19 19 18 17 16 17 16 16 16
14 13 13 13 13 13 13 13 13 13 14 14 14 14 15 16 17 20 20 20 19 19 19 18 18 18 19 19 19 17 17 17 18 22 22 19 19 19 17 16 17 17 16 16 16
13 13 12 13 13 12 12 12 13 13 14 13 14 14 15 15 17 19 20 20 20 19 19 19 19 18 18 18 20 19 19 19 20 20 19 18 20 17 18 20 19 19 17 16 16
13 13 12 12 13 12 12 12 13 13 13 13 14 15 15 15 18 19 20 20 20 20 19 19 18 19 19 18 19 19 20 19 20 20 19 20 19 18 19 20 19 18 17 17 17
12 12 12 12 12 12 12 12 12 13 13 14 14 15 14 14 19 19 20 20 20 20 20 20 20 21 20 20 20 20 19 19 20 20 21 19 18 20 18 19 18 18 17 17 17
12 12 12 12 12 12 12 12 13 13 13 14 14 14 14 19 20 20 20 21 21 21 21 21 20 20 20 19 20 20 19 18 19 20 19 21 20 18 18 18 18 17 16 16 16
12 12 12 12 12 12 12 13 13 13 14 14 14 14 16 19 20 20 21 21 21 21 21 21 21 21 21 21 19 18 16 17 19 20 19 19 17 19 17 18 16 16 15 15 15
12 12 12 12 12 12 12 13 13 13 14 14 14 14 18 19 20 21 21 21 21 21 21 21 21 21 20 16 16 15 17 18 20 19 19 20 19 14 16 16 15 15 15 15 16
12 12 12 12 12 12 12 13 13 13 14 13 13 14 19 20 20 21 21 21 21 22 22 22 21 15 14 15 16 17 18 18 19 19 19 18 13 10 14 15 14 14 14 15 15
12 12 12 12 12 13 13 13 13 13 14 16 17 17 19 19 20 21 21 21 21 21 18 18 16 17 17 17 18 18 17 18 17 18 16 13 11 10 11 12 11 11 12 12 14
12 12 12 12 13 13 13 14 15 15 15 17 17 17 19 19 19 20 21 21 20 18 18 16 16 18 16 17 16 16 16 17 17 15 15 12 11 10 11 10 10 10 10 11 11
12 12 12 13 13 13 14 15 15 15 15 18 18 18 19 20 20 20 20 20 19 19 16 16 18 17 17 16 16 15 16 17 17 16 14 14 13 11 11 11 10 10 11 11 12
12 12 12 13 13 14 15 15 15 15 12 16 18 19 20 20 19 20 20 21 18 17 17 17 17 17 16 16 16 17 17 17 16 15 15 14 14 13 11 10 10 10 11 11 11
12 12 12 13 14 14 15 15 16 15 12 17 18 20 20 20 20 20 20 20 18 17 17 17 17 17 16 17 17 17 15 16 15 13 14 14 12 12 11 11 10 10 10 11 12
12 12 12 13 14 16 15 16 16 11 12 17 18 18 18 19 19 19 20 20 18 15 15 16 17 17 17 16 17 16 14 12 11 11 12 14 13 12 10 11 10 10 11 12 12
12 13 13 14 15 16 16 16 12 11 16 16 17 18 18 17 17 17 15 14 15 15 15 15 15 15 17 17 16 13 13 11 12 11 11 12 12 12 12 11 11 10 12 12 13
12 13 14 14 15 16 16 13 14 14 14 16 16 16 17 17 16 15 15 14 14 14 13 13 14 16 16 17 16 15 13 10 14 11 12 12 12 12 11 12 13 13 14 13 13
12 12 13 14 15 16 16 11 12 13 16 16 16 16 16 17 16 14 14 14 15 15 15 14 15 16 16 16 16 15 12 12 9 9 9 10 12 12 10 10 11 12 13 13 12
12 12 13 14 15 15 11 11 14 14 16 16 16 16 15 16 15 14 15 14 15 14 15 14 14 16 16 16 15 16 13 13 9 11 13 11 11 10 10 10 10 10 11 12 12
12 13 14 15 15 15 10 11 14 16 16 17 15 15 15 15 14 14 14 14 14 15 14 13 12 14 15 14 14 14 13 10 9 8 8 7 10 10 10 10 10 11 12 11 11
12 10 13 14 12 8 10 12 16 16 17 17 16 16 15 15 14 14 14 14 13 14 15 12 10 11 14 14 13 14 14 11 7 11 7 6 8 10 9 11 12 10 9 8 9
13 12 12 14 8 8 11 15 16 16 16 17 16 16 14 13 13 13 13 13 13 13 12 12 10 9 12 12 13 15 12 9 7 6 8 5 8 9 8 8 8 7 7 7 7
14 8 12 13 12 11 13 15 15 16 16 16 15 15 13 13 11 11 12 13 13 13 13 12 9 10 10 12 11 13 12 10 10 6 8 7 10 9 8 6 6 7 7 7 7
13 10 12 8 9 11 13 14 15 16 16 16 15 15 14 13 12 11 12 12 13 12 11 10 11 11 9 9 11 13 11 10 10 10 10 10 8 9 7 5 6 7 6 7 7
13 11 11 10 13 11 10 13 14 15 15 15 14 13 14 12 13 11 11 11 12 11 10 8 9 10 10 7 7 10 10 9 9 9 8 9 8 8 8 8 6 6 6 6 7
13 14 15 7 8 9 9 12 13 13 13 14 13 11 13 13 12 12 12 11 11 10 8 7 6 6 7 5 6 6 8 8 9 9 8 8 8 6 6 6 6 6 6 6 6

GFSSW_850_temp_045.txt.gz
Temp
14 15 14 14 14 14 14 14 13 13 13 14 14 14 15 15 16 16 18 19 18 18 18 18 17 18 18 18 18 18 19 18 19 19 18 18 18 19 18 17 17 16 16 16 16
14 14 14 13 13 13 14 13 13 13 13 13 13 14 15 15 16 17 19 19 18 18 18 18 18 18 18 18 18 18 19 18 19 19 16 17 18 18 18 17 16 16 16 16 16
13 13 14 13 13 13 13 13 13 13 13 13 13 14 15 15 16 19 19 19 19 19 18 18 18 18 17 18 18 18 20 19 19 20 20 18 18 18 18 18 17 15 15 15 15
13 13 13 13 13 13 13 12 12 13 13 13 13 14 14 15 17 19 19 19 19 19 18 18 18 18 17 19 19 19 19 19 21 20 19 19 18 17 19 18 18 17 17 16 16
13 12 13 12 12 12 12 12 12 12 12 13 13 14 14 15 18 19 19 19 19 19 18 18 18 18 18 18 18 19 19 19 20 19 19 19 19 19 18 19 19 18 17 17 16
12 12 12 12 12 12 12 12 12 12 13 13 13 14 14 13 19 19 19 20 19 19 19 18 19 19 19 19 19 19 18 18 18 19 20 19 18 19 18 19 18 17 16 16 16
12 12 12 12 12 12 12 12 12 13 13 13 13 13 14 18 19 19 20 20 20 20 20 19 19 20 20 19 19 19 18 18 18 19 19 20 19 18 18 17 17 15 15 15 16
12 12 12 12 12 11 12 12 12 13 13 13 13 13 16 19 19 20 20 20 20 21 20 20 19 19 19 19 18 19 18 19 19 19 18 20 19 15 15 16 15 14 14 15 15
12 12 11 12 11 12 12 12 12 13 13 13 13 13 17 19 20 20 20 21 21 21 20 19 19 19 19 18 19 18 19 19 19 18 19 20 18 13 13 14 14 14 14 15 15
11 11 11 12 11 12 12 12 12 13 13 12 13 13 18 19 20 20 21 21 21 21 20 20 19 18 17 19 19 18 18 18 19 19 18 17 15 13 12 13 12 12 14 14 15
11 11 11 12 11 12 12 12 12 13 13 15 16 16 18 19 19 20 21 21 21 20 19 18 19 19 19 18 18 18 18 19 18 17 15 14 14 12 11 11 11 11 12 13 13
11 11 11 11 12 12 12 13 14 14 14 16 16 16 18 18 19 20 20 21 20 18 18 18 18 17 16 17 17 17 17 17 17 15 16 14 13 12 11 10 10 10 10 12 12
11 11 11 11 12 13 13 14 14 14 14 16 17 17 19 19 19 20 20 20 18 18 17 17 18 17 17 16 18 16 17 17 18 16 15 16 16 14 11 10 9 9 10 11 11
11 11 11 12 12 13 14 14 14 14 13 16 17 18 19 19 19 19 20 20 17 17 16 17 16 17 16 17 17 17 16 16 17 17 18 15 18 15 12 11 11 10 10 10 11
10 11 10 11 13 13 14 15 14 14 12 16 17 19 19 19 19 19 19 20 17 17 17 17 17 17 17 16 16 16 15 16 15 16 16 16 18 16 12 12 11 10 10 11 12
10 10 10 12 13 14 14 14 14 13 13 16 17 18 18 18 18 19 19 19 18 15 16 15 16 16 17 15 15 14 16 15 14 15 16 15 16 17 14 13 12 11 10 11 12
11 10 10 12 13 14 14 14 13 13 16 16 16 17 17 17 16 16 15 15 17 16 15 16 16 16 16 17 16 16 16 15 16 15 16 13 14 16 14 13 14 12 11 12 12
11 11 11 12 12 13 14 13 14 13 14 16 16 16 16 16 15 15 15 15 14 15 15 15 16 16 15 16 17 15 16 15 15 15 15 13 15 16 13 12 12 12 12 13 12
11 11 12 13 11 13 14 12 12 13 15 15 16 16 16 16 15 14 14 14 14 14 16 15 15 15 15 15 16 15 15 14 12 10 13 14 14 14 12 11 12 12 11 11 12
11 11 12 13 12 12 12 11 13 14 16 15 15 15 15 15 15 14 15 14 14 13 14 14 15 15 15 15 14 16 14 14 13 13 14 14 13 16 13 13 12 12 12 11 11
10 10 13 12 12 13 11 11 13 15 16 15 15 15 14 15 14 14 14 14 14 14 14 13 14 14 15 15 15 15 14 11 12 12 13 13 15 12 13 13 13 13 11 10 10
10 9 12 12 11 8 10 12 15 16 16 15 15 15 15 14 14 13 14 14 13 14 15 13 12 13 15 14 14 14 14 13 13 13 9 11 14 11 11 12 11 11 10 10 9
11 11 11 12 9 9 11 13 15 15 15 16 15 15 13 13 14 13 12 12 13 13 13 12 12 13 14 15 14 14 13 11 10 9 11 12 14 10 9 9 9 9 7 8 8
12 9 11 11 12 11 12 13 15 15 15 15 13 13 13 13 11 12 12 12 13 12 12 12 11 13 14 14 12 13 12 11 12 11 11 12 13 12 10 9 7 7 6 7 7
12 9 12 8 9 10 13 13 14 15 15 15 14 14 13 12 12 11 12 12 12 12 10 12 13 11 10 9 11 12 12 11 12 12 13 13 12 13 12 10 8 6 6 6 6
12 10 10 9 12 11 11 12 14 14 14 15 14 13 13 12 13 12 12 11 12 11 10 9 10 10 10 8 8 11 11 11 10 10 11 10 11 11 8 8 6 6 5 6 6
12 14 15 6 8 10 10 11 13 13 12 12 13 12 13 12 11 10 11 10 11 11 9 9 8 9 10 7 8 10 11 11 10 10 12 12 13 8 7 7 7 6 6 7 7

GFSSW_850_temp_048.txt.gz
Temp
14 15 15 15 14 14 14 14 14 14 14 13 14 14 14 15 16 16 17 18 18 18 18 18 17 17 18 20 20 20 23 22 22 23 21 20 21 21 19 19 19 18 18 17 16
13 14 14 14 14 14 14 13 13 13 13 13 14 14 15 15 16 17 18 19 18 18 18 18 19 18 20 20 21 22 24 24 24 23 20 20 20 18 21 19 19 18 16 14 15
13 14 14 13 13 13 13 13 13 13 13 13 13 14 15 15 16 18 19 19 19 19 18 18 19 19 21 21 21 23 23 24 23 22 22 20 18 20 21 22 22 21 15 15 14
13 14 13 13 13 13 13 13 12 12 13 13 13 14 14 14 20 19 19 19 19 19 17 18 18 20 22 22 22 22 23 23 22 21 21 20 20 21 21 21 19 19 16 15 15
12 13 13 13 12 13 13 13 12 12 13 13 13 14 14 14 17 19 19 19 19 19 17 18 19 21 22 22 22 22 22 22 22 20 21 21 21 22 22 19 19 17 16 16 16
12 13 13 12 12 12 12 13 12 12 13 13 13 13 13 16 18 19 19 19 19 18 17 18 19 20 21 22 23 22 22 22 20 21 20 22 21 22 20 18 18 17 17 17 17
11 12 12 12 12 12 12 12 12 12 13 13 13 13 13 16 18 19 19 19 19 19 18 18 19 20 21 21 19 20 21 21 21 21 22 22 22 22 19 18 18 18 17 17 17
11 12 12 12 12 12 12 12 12 12 13 13 13 13 14 18 19 20 19 20 20 19 18 18 18 19 19 19 21 22 22 21 22 22 21 23 22 20 19 19 19 18 17 17 16
11 11 12 12 12 12 12 12 12 13 13 13 13 13 17 19 19 19 20 20 20 20 19 19 18 20 19 22 22 22 22 22 21 22 22 23 22 18 16 20 19 18 17 17 15
11 11 11 11 12 12 12 12 12 13 13 13 13 13 18 19 19 20 20 20 20 19 18 19 20 22 22 23 22 22 22 22 22 21 23 22 20 18 17 18 18 17 17 16 16
11 11 11 11 12 11 12 11 12 12 13 16 16 16 17 18 20 20 20 20 20 21 22 21 22 22 23 23 23 23 23 23 23 22 22 22 20 19 17 18 17 17 17 16 15
10 11 11 11 11 11 12 11 14 14 16 16 15 15 17 18 19 20 20 21 22 22 21 22 22 21 21 21 22 22 23 22 21 20 22 21 20 18 17 17 17 17 16 15 14
10 10 11 11 11 12 12 13 14 14 16 17 16 16 18 18 20 21 20 20 22 21 21 23 21 19 21 21 22 22 22 21 22 20 21 21 20 18 16 15 15 15 15 15 15
10 10 11 11 11 12 12 14 14 13 17 18 18 19 18 19 20 19 20 20 21 21 21 21 20 21 22 21 21 22 20 21 21 22 22 20 22 21 18 17 16 14 15 14 14
10 10 10 11 11 11 13 14 14 13 16 20 19 19 19 20 20 20 19 20 21 21 20 20 21 21 21 20 20 20 20 21 21 22 22 21 22 22 18 17 16 15 15 14 13
10 10 10 11 12 12 12 13 13 16 16 18 20 20 20 20 20 19 20 19 19 20 21 20 19 21 20 19 20 19 20 21 21 21 20 22 21 23 21 20 17 16 15 14 14
9 10 10 12 11 12 13 13 16 16 18 18 19 20 21 20 20 20 20 20 21 20 20 20 20 20 19 20 19 20 21 20 19 19 20 18 19 22 19 18 18 16 15 14 14
9 10 11 11 11 12 13 15 15 18 19 19 19 20 20 20 19 19 20 20 19 20 21 20 19 20 19 20 21 20 21 19 18 18 19 17 19 21 18 17 17 16 15 15 14
9 9 11 12 11 11 13 15 17 18 19 19 19 19 19 19 20 19 19 20 20 20 21 20 19 19 18 19 20 19 19 19 17 15 17 20 20 19 17 17 16 16 16 15 14
9 9 10 12 11 10 14 15 18 18 18 19 19 19 19 19 19 19 19 18 18 18 18 19 18 19 18 19 18 20 19 18 18 16 17 20 19 21 18 17 17 17 16 15 14
7 10 11 11 11 11 14 16 18 17 17 19 19 18 19 18 20 19 19 17 18 18 18 20 20 18 18 19 20 18 18 18 19 17 18 18 21 19 19 19 18 17 16 15 13
8 12 10 11 13 15 15 17 16 18 16 18 20 20 19 19 19 19 19 19 15 18 19 17 19 18 19 18 18 19 19 19 18 17 16 16 19 17 17 17 17 17 16 14 12
10 11 9 11 14 14 16 17 17 18 18 18 19 19 18 19 18 18 18 14 15 17 18 17 18 17 17 18 17 18 18 18 16 16 16 15 19 17 15 15 16 16 13 11 10
12 12 9 9 14 16 16 17 17 15 17 17 18 18 18 17 17 17 16 15 13 15 13 16 17 19 18 19 19 17 17 17 18 16 18 18 20 17 17 16 15 15 13 11 9
12 15 14 12 14 16 17 18 17 17 17 17 18 19 19 17 17 16 16 15 14 12 14 17 17 17 15 15 16 17 17 17 17 18 16 19 19 20 19 17 16 13 12 10 10
12 13 11 14 15 16 14 17 18 17 18 18 19 18 18 18 19 17 17 17 17 14 16 15 16 15 14 13 14 15 16 17 17 18 18 18 18 19 17 15 14 12 11 10 9
11 13 14 10 14 15 16 17 17 18 14 15 19 18 17 16 14 15 14 16 17 16 15 15 14 14 15 12 13 12 15 17 17 17 17 17 18 16 15 14 13 12 10 10 9

GFSSW_850_temp_051.txt.gz
Temp
13 13 14 14 14 14 15 15 15 14 14 14 14 14 15 15 16 15 15 17 17 18 18 18 19 19 20 21 22 23 25 25 22 20 24 22 22 17 20 21 21 21 21 20 15
13 13 14 14 14 13 14 15 14 14 13 14 14 14 14 15 16 15 18 18 18 18 18 19 20 20 21 22 23 24 25 24 25 21 16 21 23 21 22 22 22 21 18 15 14
13 13 13 13 14 13 13 14 14 14 13 13 13 14 14 15 14 20 19 19 19 18 18 20 21 21 22 23 23 24 24 25 26 23 23 23 22 20 20 22 21 22 18 16 17
13 13 13 13 13 13 13 14 14 13 13 13 13 14 14 15 20 20 19 19 19 19 18 20 21 22 23 24 24 24 25 25 24 19 23 23 21 20 20 17 22 21 19 18 18
12 12 13 12 13 13 13 13 14 13 13 13 13 13 14 15 18 19 19 19 19 19 19 20 21 22 24 25 24 24 24 23 18 23 23 22 22 18 23 22 22 20 19 19 19
12 12 12 12 12 13 12 13 13 13 13 13 13 13 13 17 19 19 19 19 18 18 19 20 21 22 23 24 24 24 23 22 23 23 23 23 23 23 22 22 21 19 20 20 19
11 12 11 12 12 12 12 13 13 13 13 13 13 13 13 17 19 19 19 19 19 19 20 21 21 21 22 24 22 23 22 23 23 23 23 23 23 23 22 21 21 21 20 20 20
11 11 11 12 12 12 12 12 13 13 13 13 13 12 15 18 19 19 19 20 19 19 20 20 20 20 21 21 22 22 22 22 24 24 24 24 23 24 22 21 21 21 20 20 19
11 11 11 12 12 12 12 12 13 12 13 13 12 12 18 19 19 20 21 21 20 19 19 18 19 20 21 22 22 23 21 22 23 24 25 24 23 23 22 22 21 21 20 20 19
11 11 11 11 12 12 12 12 13 13 13 12 12 14 17 20 20 20 21 21 21 20 19 20 20 22 23 22 21 22 23 24 23 24 24 24 23 23 22 23 22 21 21 20 18
10 11 11 11 11 12 12 12 12 12 12 17 19 19 20 20 20 21 21 21 22 21 20 22 22 22 23 24 24 25 24 24 24 25 24 24 23 23 23 22 21 21 20 20 19
10 10 10 11 11 11 12 12 15 14 17 16 17 17 18 18 20 21 21 22 23 20 23 23 21 23 24 24 24 24 24 23 24 24 24 24 23 22 21 21 21 21 20 20 18
10 10 10 10 11 11 12 12 13 13 17 20 19 18 19 19 21 22 21 22 23 23 22 21 22 23 23 23 24 24 23 23 23 23 24 24 23 22 22 22 21 21 21 20 18
9 10 10 10 10 11 12 13 13 12 17 20 19 20 19 20 21 22 22 22 23 22 23 19 20 23 23 24 24 22 24 24 24 23 22 24 22 22 22 21 20 19 20 19 18
9 10 10 10 9 12 13 13 13 13 16 22 21 21 21 21 22 22 21 22 22 23 22 22 23 23 23 23 23 22 23 24 24 24 22 24 23 22 22 21 20 19 19 18 17
9 9 9 9 11 12 11 12 13 16 17 20 22 21 21 21 22 22 22 21 22 23 23 19 22 24 23 22 23 23 23 23 23 23 22 24 24 23 23 23 22 20 19 18 17
9 9 9 8 11 12 12 13 16 17 21 21 21 22 22 22 22 22 22 22 22 21 21 22 23 22 22 22 23 23 23 21 20 21 21 23 22 24 23 22 23 20 18 17 17
8 8 9 8 9 11 11 16 16 20 21 22 22 22 21 22 22 22 22 22 23 23 22 21 20 22 23 23 23 23 23 21 19 20 22 22 21 23 22 21 21 20 18 17 16
8 8 8 10 10 11 13 16 17 20 22 21 21 21 21 22 22 21 21 22 23 23 21 22 21 22 22 22 23 22 21 22 21 20 19 22 23 21 21 21 20 19 18 17 17
7 7 9 9 10 9 14 16 19 21 21 21 20 21 21 21 20 21 21 23 22 22 23 23 21 22 21 21 21 21 22 20 21 17 18 23 23 23 20 20 20 20 19 18 17
7 10 12 9 10 11 15 17 20 20 20 20 21 21 22 21 21 21 22 21 22 21 21 23 22 20 21 21 22 21 21 21 21 21 19 19 22 23 22 21 20 20 19 18 17
8 12 9 10 12 13 16 19 19 21 19 20 21 22 22 22 21 21 21 22 21 22 21 22 22 20 21 22 22 22 22 22 19 19 19 19 20 22 22 21 21 20 19 18 17
9 11 9 10 14 15 17 19 20 20 20 20 20 22 22 21 20 21 21 17 19 20 21 21 20 19 20 20 20 20 21 21 21 19 19 17 20 21 20 20 20 20 19 18 17
11 11 8 9 14 16 17 18 18 19 20 20 21 21 21 21 22 20 20 18 17 19 16 17 21 20 19 21 22 20 21 21 20 18 18 20 22 21 20 20 20 19 19 17 15
11 15 12 12 15 15 18 18 18 19 19 19 20 20 21 20 20 20 20 17 17 15 17 19 19 20 21 20 20 20 21 21 20 20 19 20 22 23 22 21 20 19 18 16 14
11 16 14 15 15 16 15 18 19 20 20 19 20 21 22 21 20 20 20 19 19 17 18 19 18 18 17 19 18 18 20 20 20 20 21 21 21 23 22 20 19 18 17 16 14
10 14 15 15 16 17 18 19 19 21 18 19 21 22 21 20 19 19 20 20 21 19 18 18 18 16 16 16 17 14 17 19 20 21 20 19 21 21 20 19 18 18 16 15 14

GFSSW_850_temp_054.txt.gz
Temp
14 14 14 14 14 15 14 14 15 15 14 14 14 15 15 15 15 15 17 18 17 18 18 19 19 19 20 21 23 24 23 23 25 23 20 16 14 15 17 19 20 20 18 18 16
13 13 13 13 14 14 14 14 14 15 14 13 14 15 15 16 16 17 19 18 18 18 18 18 21 21 21 22 23 24 23 24 25 21 18 15 14 15 16 13 18 17 17 16 15
13 13 13 13 13 14 14 14 13 14 14 13 14 14 15 15 15 20 20 19 19 19 19 19 21 22 22 23 24 24 23 25 21 19 18 16 14 14 22 20 22 19 17 16 15
12 12 13 13 13 14 14 14 13 14 14 13 13 14 14 15 19 19 19 19 19 19 19 19 21 22 23 24 24 24 25 24 19 19 18 19 17 21 21 22 20 19 18 18 16
12 12 12 12 13 13 13 13 13 14 14 13 13 14 14 14 17 19 19 19 20 19 18 20 22 22 23 25 25 25 25 20 20 20 20 22 18 18 19 22 21 19 19 19 18
11 11 12 12 13 13 13 13 13 13 13 13 13 14 14 15 20 20 19 19 19 19 19 20 22 22 23 24 25 24 23 21 21 20 20 21 18 19 20 20 21 21 20 20 19
11 11 11 12 12 13 13 13 13 13 13 13 13 13 12 16 20 20 19 19 20 20 20 21 22 22 23 24 23 24 22 23 23 21 21 20 20 21 22 21 21 22 21 21 20
10 11 11 12 12 12 13 13 13 13 13 13 13 13 14 19 19 19 20 21 21 20 20 21 21 21 21 22 23 22 22 21 24 24 23 21 18 23 22 21 22 21 21 21 20
10 11 11 11 12 12 13 13 13 13 13 13 13 13 16 19 19 20 21 21 21 20 20 20 20 20 22 22 20 21 18 21 22 25 24 22 21 23 22 22 22 21 21 20 20
10 10 11 11 11 12 12 13 13 14 13 13 13 14 17 20 21 21 22 21 21 21 20 20 20 21 22 21 19 20 21 22 22 24 24 22 23 24 23 22 21 21 21 20 19
9 10 11 11 11 11 12 13 12 12 12 16 18 18 21 21 21 21 21 22 22 22 21 22 21 20 20 22 23 23 23 23 23 25 24 24 23 23 24 23 22 22 21 20 20
9 10 10 11 11 11 12 12 16 14 15 17 17 18 19 19 20 22 22 22 23 22 20 20 19 22 22 23 23 24 23 24 25 25 24 24 23 24 24 24 23 22 22 21 20
9 10 10 10 11 12 12 13 14 14 16 19 19 19 20 20 21 22 22 22 22 20 22 18 15 19 22 23 23 23 21 21 23 24 24 24 23 23 23 23 23 22 21 20 19
9 9 10 10 10 12 11 13 13 13 16 21 21 20 20 21 21 22 23 23 23 20 20 18 20 19 21 23 24 20 22 21 23 22 21 22 19 19 23 22 23 22 21 21 20
9 9 9 9 10 12 14 14 14 13 15 23 22 21 21 21 23 22 22 23 22 23 23 20 19 20 22 23 23 19 21 22 24 23 21 19 18 19 21 22 22 22 21 21 20
8 9 9 9 10 13 12 13 13 15 16 21 22 22 22 22 23 23 22 22 23 23 23 22 20 21 22 23 24 23 21 23 23 23 18 19 19 20 20 22 22 21 20 20 19
8 9 9 8 10 12 12 12 14 15 22 21 21 22 22 22 22 23 22 22 21 20 21 21 21 24 23 23 23 23 22 20 14 15 20 24 21 21 19 19 21 21 20 19 18
8 8 9 9 10 10 11 12 15 19 21 23 22 22 21 22 22 22 22 21 22 22 22 21 20 23 23 23 17 19 22 16 17 15 20 20 21 22 23 23 23 21 20 19 18
8 8 8 10 10 9 11 12 16 20 22 22 22 21 21 22 22 22 22 22 23 23 21 19 20 18 23 24 20 22 21 22 21 21 19 21 23 22 22 22 22 21 20 18 18
7 6 8 10 9 9 11 13 17 20 22 23 21 22 21 22 21 22 22 23 23 24 20 17 15 18 22 22 23 22 23 20 21 17 18 21 22 21 20 21 21 21 20 19 18
6 8 11 9 9 10 12 14 17 20 22 21 21 21 22 22 22 21 22 23 24 23 23 20 15 21 22 21 22 21 21 21 22 21 18 17 20 22 22 22 21 21 20 19 18
6 10 12 9 10 12 13 16 18 19 21 21 21 22 22 22 22 21 21 23 23 23 21 22 22 20 21 23 23 22 22 22 18 19 20 18 19 23 23 22 21 21 20 19 18
8 10 10 11 12 13 14 16 18 19 21 21 20 22 22 22 21 22 22 20 22 22 21 22 20 18 20 22 22 21 22 22 22 20 18 15 19 22 22 22 21 21 20 19 18
10 10 9 9 13 14 15 16 17 19 21 21 21 22 22 21 22 21 22 19 19 20 18 19 21 20 18 20 21 21 21 22 21 16 17 18 20 22 21 21 21 20 20 20 19
10 13 12 9 11 15 16 17 18 19 20 20 21 21 21 20 21 21 22 18 18 17 18 20 19 20 21 22 21 20 21 22 21 21 18 19 20 22 23 21 21 20 20 19 18
10 14 12 13 13 14 15 16 18 20 20 19 20 21 22 20 21 20 21 19 19 18 19 19 18 18 18 20 20 19 20 20 21 21 21 21 21 23 22 21 21 20 20 19 17
9 12 13 13 14 14 15 16 18 20 20 20 21 21 20 21 21 20 22 21 21 19 18 19 17 16 15 17 16 13 17 19 20 21 21 19 21 22 21 20 19 19 19 18 17

GFSSW_850_temp_057.txt.gz
Temp
13 13 14 14 14 14 14 14 15 15 15 15 14 14 15 15 16 16 19 19 19 17 18 19 18 19 20 20 21 21 16 17 18 20 15 15 16 16 17 17 16 14 15 17 14
13 13 13 13 13 14 14 14 14 14 15 15 14 14 15 15 16 18 19 20 19 18 18 18 19 20 20 20 21 19 15 19 20 18 16 15 15 15 16 17 14 15 15 15 15
12 13 13 13 13 13 14 14 14 14 14 14 14 14 15 15 16 19 19 20 19 18 18 18 18 19 20 22 22 21 17 20 19 18 16 15 15 15 15 14 16 15 14 16 15
11 12 12 12 13 13 13 14 14 14 14 14 14 14 15 15 16 19 19 19 19 18 19 19 19 19 20 19 22 20 21 20 19 18 17 16 18 16 16 17 18 17 17 16 15
11 12 12 12 12 13 13 14 14 14 14 14 14 14 15 14 17 19 19 20 19 19 19 19 19 21 19 20 22 21 19 20 19 19 19 18 17 18 17 17 17 17 16 16 16
11 11 12 12 12 13 13 13 13 14 13 13 13 13 14 12 19 19 20 20 19 19 19 20 20 21 22 21 21 22 20 19 20 20 19 20 19 19 15 17 15 17 17 16 15
10 11 12 12 12 12 13 13 13 14 13 13 13 13 13 18 20 19 19 20 20 20 20 20 21 21 21 20 22 22 20 19 19 20 19 19 17 17 19 18 16 18 18 17 14
10 10 11 12 12 12 13 13 13 14 13 13 13 13 14 19 19 20 20 20 20 20 20 20 21 21 21 21 21 19 20 19 19 20 19 20 17 18 21 20 20 20 19 15 15
10 10 11 11 12 12 13 13 14 14 13 13 13 12 14 18 19 20 20 20 21 20 20 20 20 20 21 19 18 19 17 19 19 19 19 18 18 19 21 21 20 20 20 19 17
9 10 10 11 11 12 13 13 14 14 13 13 13 11 17 20 21 21 21 21 21 20 20 20 20 18 18 18 17 18 18 19 18 16 18 17 17 18 21 21 20 20 20 20 19
9 10 10 11 11 12 13 14 14 13 13 14 16 17 19 19 21 21 21 21 21 20 18 20 17 18 19 19 19 20 19 19 20 20 19 18 19 19 20 19 19 19 20 20 19
8 9 10 10 11 11 12 12 14 13 13 14 16 16 17 18 19 21 21 21 20 18 18 17 17 20 20 20 20 19 20 18 21 21 21 18 19 19 17 17 20 20 18 20 18
8 9 9 10 11 11 12 14 14 13 13 15 17 17 18 19 19 20 21 22 19 19 17 17 18 18 18 18 18 20 19 20 20 19 22 21 19 18 19 17 18 20 19 19 18
8 9 9 9 10 11 13 14 14 13 10 16 18 18 18 19 20 21 21 22 19 18 18 17 19 19 18 18 19 18 21 20 20 18 17 19 15 18 18 20 16 18 18 19 18
8 9 9 9 11 11 12 13 13 12 11 19 19 20 20 20 21 21 22 22 19 19 17 18 18 18 18 19 21 19 20 20 19 18 18 18 14 16 19 18 18 19 20 19 18
8 8 8 10 10 12 13 13 13 12 12 20 21 20 19 20 20 21 22 22 22 20 20 18 21 19 18 20 21 21 20 19 16 17 15 18 16 15 16 19 19 20 20 20 18
7 8 8 9 11 10 12 12 11 11 19 20 19 20 19 19 19 20 20 19 18 18 18 19 19 21 21 19 21 19 18 14 13 12 14 19 17 17 18 17 18 18 20 19 18
7 8 8 9 10 10 11 10 11 15 16 21 20 19 18 19 19 20 19 17 18 19 17 16 17 18 21 20 19 18 17 13 14 12 14 17 17 19 19 20 20 18 20 19 17
7 7 7 10 10 9 9 10 11 16 19 19 20 18 18 19 19 19 18 18 18 18 17 17 17 18 20 20 20 16 14 17 16 16 14 16 17 18 19 18 16 17 19 18 17
7 7 8 10 10 8 9 11 13 17 18 19 18 19 17 18 18 19 18 19 19 20 18 16 16 15 17 19 20 19 17 16 14 16 16 16 17 16 17 18 17 17 17 18 17
6 6 8 9 8 7 9 11 13 16 17 18 19 19 19 18 19 19 19 20 20 20 17 15 15 15 17 17 17 18 18 19 17 14 13 12 15 17 17 17 16 17 18 18 17
6 7 9 9 7 8 9 11 14 16 16 17 20 19 19 18 19 18 19 19 22 21 19 16 13 12 15 17 19 20 19 17 11 16 14 11 13 20 17 17 19 18 19 18 18
6 8 9 10 8 8 10 11 13 15 16 17 19 19 19 19 19 19 19 18 21 20 19 18 16 13 16 17 19 19 19 19 18 13 15 10 13 19 19 18 20 20 19 18 18
6 7 7 7 11 10 10 12 12 15 15 16 18 19 18 18 19 18 16 18 19 17 18 19 17 15 13 16 18 19 19 19 17 9 13 13 16 17 17 18 19 20 19 19 18
6 10 10 8 8 10 11 12 13 14 16 17 18 17 17 17 19 19 16 16 18 17 18 16 15 18 17 18 18 19 19 18 18 16 13 15 16 17 17 16 19 20 20 19 18
6 10 10 10 11 10 11 12 13 15 16 16 17 17 17 17 17 18 17 16 16 16 17 16 14 17 16 17 16 16 17 17 17 17 18 17 17 18 19 20 19 19 19 19 17
5 11 12 10 10 9 10 13 14 16 17 18 17 17 17 17 20 19 20 19 17 14 14 14 14 10 13 12 13 10 15 16 16 17 17 16 16 17 17 16 18 18 18 18 17

GFSSW_850_temp_060.txt.gz
Temp
13 14 14 13 14 14 14 14 14 15 15 15 15 15 15 16 16 17 19 19 18 18 18 18 19 18 18 19 20 19 14 14 16 17 16 15 15 15 16 15 19 17 15 15 13
12 13 13 13 13 13 14 14 14 15 15 15 15 15 15 16 17 19 19 19 19 18 19 18 19 18 18 18 20 17 13 16 18 16 14 15 15 15 15 15 14 14 14 15 13
12 12 13 13 13 13 14 14 14 14 14 15 14 14 14 16 17 19 19 19 19 19 19 18 18 18 17 19 19 18 16 17 18 17 17 14 15 16 15 15 15 15 14 13 14
11 12 12 13 13 13 13 14 14 14 14 14 14 14 15 15 16 19 19 19 19 19 19 19 18 18 17 17 20 19 19 19 17 17 16 14 16 15 15 17 17 16 16 14 13
10 11 12 13 13 13 13 14 14 14 14 14 14 14 14 14 18 19 19 19 20 19 20 19 19 18 18 19 19 18 18 19 19 19 19 17 17 16 16 15 18 15 14 13 14
10 10 11 12 13 13 13 13 13 13 14 14 13 13 14 12 19 19 18 19 20 19 19 19 20 19 19 20 19 19 19 17 18 18 19 18 16 17 14 16 16 15 14 13 15
10 10 11 11 12 12 13 13 14 13 13 13 13 13 13 18 19 18 18 19 19 20 20 20 20 19 21 19 20 19 16 17 17 19 19 19 18 16 15 15 16 15 14 15 15
10 9 10 11 12 12 13 13 14 13 13 13 13 13 15 19 19 19 19 19 20 19 20 20 20 20 21 20 20 19 17 16 18 19 20 18 17 18 17 16 16 16 15 14 14
9 9 10 11 11 12 13 13 14 14 13 13 13 12 15 19 19 20 20 20 20 20 19 20 20 20 20 17 16 17 17 17 18 19 19 18 17 18 16 16 16 14 15 14 14
8 8 9 10 11 12 13 13 14 14 13 13 12 11 17 19 19 20 20 20 20 20 20 20 19 17 16 15 16 17 17 18 17 18 17 16 16 16 16 17 15 13 14 15 15
8 8 9 9 10 11 12 13 13 13 12 14 15 16 17 18 19 20 20 21 20 20 17 19 17 16 18 19 19 18 18 16 17 17 17 16 17 16 17 17 15 14 13 14 16
8 8 8 9 10 11 11 12 13 12 11 15 15 15 17 16 16 20 20 20 20 17 17 16 15 18 19 18 17 17 17 17 18 18 16 16 17 17 16 17 18 16 16 15 15
8 7 8 9 10 11 12 13 11 12 11 14 15 16 17 18 17 19 20 20 18 17 17 15 16 18 18 17 17 17 16 18 17 19 18 17 17 18 18 17 18 18 18 18 17
8 7 7 8 9 11 12 12 12 13 10 13 15 17 17 18 18 20 20 20 18 17 17 16 17 18 17 18 17 15 18 19 20 17 16 18 15 16 17 17 16 17 17 18 18
8 7 8 8 10 11 11 12 12 12 11 17 17 19 19 19 20 20 21 20 17 17 17 17 16 17 18 18 18 16 19 19 19 16 16 17 15 15 17 16 17 17 17 17 17
7 7 8 8 9 12 11 12 12 11 10 17 19 17 17 18 19 20 21 21 21 17 17 17 19 18 17 18 18 19 19 15 14 14 15 17 16 15 16 18 18 17 18 18 17
6 7 8 8 9 11 11 12 10 11 16 18 18 17 17 17 18 19 19 19 17 17 17 18 18 20 19 19 18 18 15 13 13 12 14 17 15 16 17 17 17 17 17 17 17
5 6 7 8 9 10 11 10 10 13 14 18 18 17 16 17 17 18 18 16 17 18 15 15 16 18 20 19 18 16 16 12 15 13 14 17 16 17 17 18 19 20 19 18 17
4 6 7 9 9 9 9 10 9 13 17 17 18 16 16 17 18 17 16 15 17 16 16 15 16 15 18 18 18 16 15 14 14 14 13 14 17 17 18 17 17 17 17 15 16
4 5 6 8 8 7 8 10 11 14 16 17 16 17 15 16 16 16 16 17 18 17 17 16 16 16 16 18 18 17 16 14 12 15 15 15 15 15 17 18 15 14 15 16 16
3 5 6 7 7 7 8 10 12 14 15 15 16 17 17 16 16 16 17 18 18 18 16 15 15 16 16 17 17 16 16 16 14 12 12 11 13 15 16 16 14 14 17 17 16
3 6 7 7 6 6 8 11 12 13 14 14 15 15 17 16 16 16 17 18 19 17 17 15 13 13 16 17 17 16 16 15 11 15 12 10 13 17 15 15 17 17 17 17 17
4 6 7 8 7 6 9 10 11 13 14 15 15 16 18 18 17 16 16 18 19 18 15 14 14 12 14 15 16 16 17 17 14 10 13 9 12 16 17 15 17 17 17 18 17
5 6 6 6 9 8 8 9 10 12 12 13 14 14 15 17 17 17 17 17 17 16 18 17 14 13 12 14 16 17 18 17 14 9 12 11 15 16 16 16 16 17 18 18 18
5 8 9 7 7 9 9 9 10 11 13 15 14 14 14 15 17 16 16 16 16 16 17 15 15 16 15 16 17 17 17 18 17 15 13 14 13 16 16 15 17 19 19 18 16
5 7 8 8 9 8 9 9 10 12 13 14 14 15 15 15 15 15 15 15 15 15 16 14 15 16 16 14 14 16 16 15 16 17 16 15 15 15 17 16 17 18 18 18 17
3 7 9 9 8 7 9 10 11 13 13 14 15 14 14 15 18 19 19 18 16 14 13 13 12 9 12 11 13 10 13 15 16 15 16 15 15 15 13 14 15 17 18 17 16

GFSSW_850_temp_063.txt.gz
Temp
12 13 13 14 14 14 14 14 14 14 15 15 15 15 16 16 17 18 19 18 18 18 18 18 18 18 18 18 18 18 13 13 15 16 17 15 15 14 15 15 15 15 15 14 14
12 12 12 13 13 13 14 14 14 14 15 15 15 15 16 16 18 19 19 19 18 18 18 18 18 18 18 18 18 15 12 15 16 16 16 15 14 15 15 15 14 12 13 13 13
11 12 12 12 13 13 13 13 13 14 14 14 15 15 15 16 17 19 19 19 19 19 18 17 18 18 17 17 18 16 15 15 17 18 16 14 14 15 15 14 15 12 13 13 13
11 11 12 12 12 13 13 13 13 14 14 14 14 14 15 15 17 19 19 19 19 19 18 18 18 18 16 17 19 17 17 17 18 16 16 14 15 14 15 15 16 15 13 12 12
10 10 11 11 12 12 12 13 13 13 13 14 14 14 15 14 18 19 19 19 19 19 19 19 18 18 17 17 17 17 17 17 17 17 16 17 16 15 14 14 15 13 13 12 12
9 10 10 11 11 12 12 12 13 13 13 13 13 13 14 11 18 19 19 19 19 19 19 19 19 19 18 17 18 17 16 17 17 17 17 16 15 16 14 13 12 14 14 13 13
10 9 10 10 11 11 12 12 13 13 12 13 13 13 13 17 18 19 19 19 19 18 19 19 19 19 19 18 19 18 16 16 17 17 18 18 16 15 15 14 15 14 15 13 13
9 9 10 10 10 11 11 12 13 13 12 13 12 13 14 18 18 19 19 20 19 19 19 19 19 19 19 19 19 16 15 15 17 18 18 18 16 15 15 14 13 14 15 12 14
9 9 9 9 10 10 11 12 13 13 13 13 12 12 15 17 18 19 19 20 19 19 20 19 19 19 19 16 15 15 15 16 17 18 18 17 17 15 15 15 14 13 13 13 12
10 10 9 9 9 10 11 12 13 14 13 12 11 11 17 18 18 19 19 20 19 20 19 19 19 15 14 14 14 16 16 17 17 17 17 17 16 13 15 15 14 13 13 13 14
10 9 8 9 8 9 11 12 13 12 11 14 15 15 17 18 18 19 19 20 19 19 17 18 15 15 17 16 17 17 16 16 16 16 16 15 15 14 14 14 14 13 13 13 15
10 9 8 8 8 9 10 11 11 9 10 14 15 14 16 16 15 19 19 19 19 16 16 16 16 16 18 17 17 17 16 15 16 16 16 14 15 15 13 14 15 14 13 14 15
10 9 8 8 8 9 10 11 10 10 10 13 14 14 16 16 16 19 19 20 17 16 15 15 16 17 17 17 17 16 16 15 15 17 17 15 16 15 14 15 15 14 16 16 17
9 9 7 7 8 9 10 10 11 12 9 13 13 15 15 17 17 19 19 20 17 16 15 15 16 17 17 16 16 16 16 15 16 16 15 17 14 15 14 15 14 14 14 15 16
5 8 7 6 8 10 10 10 11 11 10 16 15 17 17 18 19 18 19 19 16 16 16 16 16 16 16 17 17 16 17 17 18 16 16 16 14 15 15 15 16 15 15 15 16
3 6 6 6 7 11 10 11 11 10 10 15 17 16 16 17 18 19 19 20 19 16 16 16 17 16 16 18 17 18 17 15 13 13 14 16 15 14 14 17 17 17 16 16 16
3 5 5 6 7 9 10 11 10 10 15 16 16 16 15 15 17 18 17 16 15 15 16 17 17 18 18 18 17 16 14 13 13 11 13 15 15 15 16 16 16 17 17 16 16
3 4 5 6 7 8 9 9 9 11 13 16 17 15 15 16 16 16 16 15 16 16 13 15 15 18 19 18 17 15 15 12 15 13 13 15 15 16 17 17 16 19 18 17 15
3 3 4 6 7 7 8 9 9 11 15 15 16 15 15 16 16 17 15 15 15 15 15 14 15 16 16 18 17 16 15 14 13 12 12 13 14 16 15 15 15 14 16 15 16
2 3 4 6 7 7 7 9 11 13 14 14 15 15 14 14 15 15 14 16 16 15 16 15 16 16 16 17 17 16 14 13 11 14 14 13 14 14 16 16 14 14 14 16 16
3 3 5 5 6 6 7 9 11 13 14 13 14 15 15 15 14 14 16 17 16 16 15 14 14 15 16 16 15 15 14 15 13 11 12 11 13 13 15 15 15 13 16 17 15
2 3 6 6 6 7 7 9 11 12 13 13 13 13 15 15 14 14 15 17 18 15 15 14 12 12 15 16 16 16 15 14 11 14 10 9 11 15 14 14 16 17 16 16 17
2 4 6 6 7 7 8 9 11 12 12 12 13 14 14 15 15 14 14 17 18 15 14 14 12 12 14 15 15 15 14 14 12 9 11 8 11 15 14 15 18 16 17 17 17
3 4 5 5 8 9 8 8 9 11 11 12 12 13 14 15 16 15 15 16 16 16 17 16 12 14 12 14 15 16 17 15 13 9 12 10 14 15 15 15 16 17 18 17 17
2 5 7 6 6 8 9 8 8 10 11 11 11 11 13 13 15 15 15 15 15 14 15 14 14 14 14 15 16 17 16 15 14 13 12 13 12 14 14 14 16 19 18 17 16
2 6 7 7 8 8 9 9 9 10 10 10 11 13 13 12 14 15 14 14 15 15 14 13 13 15 14 14 14 15 15 15 14 15 13 13 13 13 15 16 15 15 17 18 17
2 6 7 8 7 7 9 9 9 10 11 12 12 12 12 13 15 17 17 16 15 13 12 12 10 9 12 11 12 10 11 13 14 14 14 13 13 14 13 12 12 14 16 16 15

GFSSW_850_temp_066.txt.gz
Temp
11 12 12 13 13 13 13 14 13 14 14 15 15 15 16 17 18 18 19 18 18 18 18 17 17 17 17 17 17 17 12 12 15 15 16 14 15 15 15 15 14 14 14 14 13
11 11 12 12 13 13 13 13 13 14 14 14 14 15 15 16 18 18 18 18 18 18 17 17 17 17 17 17 17 14 11 13 15 16 16 14 14 15 15 14 12 12 13 13 13
10 11 11 11 12 12 13 13 13 13 14 14 14 14 15 16 18 19 18 18 18 18 17 18 18 18 17 17 16 14 14 14 17 16 16 14 14 14 14 15 14 13 13 13 12
10 10 10 11 11 12 12 13 13 13 13 14 14 14 15 15 17 18 18 18 18 18 18 18 18 18 16 16 17 16 16 16 16 16 16 14 14 14 14 14 14 13 12 12 11
10 10 10 10 10 11 12 12 13 13 13 13 13 13 14 14 18 19 19 18 18 18 18 18 18 18 16 16 16 15 16 15 16 16 17 16 15 14 12 14 13 12 12 12 13
9 10 10 9 10 10 11 12 12 13 13 13 12 13 12 11 18 18 19 18 18 18 18 18 19 18 18 17 17 16 15 15 16 16 16 16 15 15 11 12 11 11 12 14 13
9 9 10 11 9 10 10 11 12 13 12 13 12 12 12 16 18 18 19 19 18 18 18 18 18 18 18 17 17 17 16 16 16 15 16 16 15 13 12 13 15 14 13 13 12
10 9 9 10 9 9 10 11 12 13 13 13 12 12 12 17 18 19 19 19 19 19 19 18 18 18 18 18 17 16 14 14 16 17 17 16 16 12 12 14 15 13 12 13 13
10 9 9 9 9 9 10 10 12 13 13 13 12 12 14 17 18 19 19 19 19 19 19 18 18 18 18 14 14 13 14 15 16 17 17 17 16 13 13 13 13 13 12 13 14
10 9 9 9 8 9 10 10 12 13 13 12 10 11 16 17 18 18 19 19 19 19 19 18 18 14 12 13 13 15 15 16 15 17 17 17 16 12 13 13 13 14 12 12 13
10 10 9 9 7 8 10 10 12 12 11 14 13 14 16 17 18 19 19 19 19 19 16 16 14 14 15 14 15 16 16 15 15 15 16 15 15 12 13 13 13 13 13 12 13
10 10 9 8 8 7 7 9 10 8 8 13 14 13 15 15 14 18 18 19 18 15 16 15 15 16 16 16 16 16 16 15 15 16 15 13 14 14 12 13 13 13 13 14 13
7 9 9 8 7 7 8 9 9 9 8 11 14 14 15 15 15 17 18 19 17 15 15 14 16 16 17 17 16 16 16 15 15 15 15 14 15 14 13 14 14 14 15 15 15
3 6 7 7 6 8 9 10 9 10 8 12 12 14 14 16 15 18 19 19 16 15 14 15 16 15 16 16 15 15 15 15 15 15 14 16 14 14 14 14 13 14 14 15 15
3 4 6 6 7 8 9 9 10 10 9 15 14 14 14 17 18 18 19 19 15 15 15 16 15 15 15 16 16 15 17 16 17 15 15 15 13 14 14 14 14 14 15 16 16
2 3 4 5 6 10 9 9 9 10 9 14 15 14 14 16 17 17 17 18 18 15 15 15 16 15 15 17 16 17 16 14 12 12 13 15 14 13 13 15 16 16 15 16 17
1 2 3 4 5 9 8 8 9 9 13 15 15 14 14 14 16 16 15 15 14 14 14 16 16 17 17 18 16 15 14 12 12 11 13 14 14 14 16 15 15 15 16 17 17
1 2 3 3 5 6 7 8 8 11 11 14 16 13 14 14 15 15 14 14 15 15 12 14 14 16 17 17 15 15 14 11 15 13 13 14 14 16 16 16 16 16 17 16 16
1 2 3 4 5 6 7 7 9 10 13 14 16 14 14 15 15 15 13 13 14 14 15 13 15 16 16 17 17 15 14 13 11 11 11 12 13 15 16 15 15 14 16 17 16
1 2 3 3 5 6 6 9 11 11 13 13 13 14 13 13 14 14 13 14 15 14 15 14 15 16 16 16 15 16 13 13 10 14 13 12 13 13 16 15 14 13 13 16 17
1 2 3 3 5 6 7 8 10 13 13 12 12 13 14 13 13 13 13 16 15 14 15 13 14 15 15 15 15 14 14 12 12 10 12 10 12 12 15 15 14 14 15 15 15
1 2 4 4 5 6 7 8 10 11 12 12 12 12 13 13 13 13 14 15 17 14 14 13 12 12 14 15 15 14 14 12 11 13 9 9 10 14 13 13 15 16 17 16 16
1 3 4 4 5 6 8 9 9 10 11 11 11 12 13 14 15 13 13 16 16 14 13 13 12 12 13 14 14 15 14 13 10 8 10 8 11 14 13 13 17 16 18 19 17
1 2 4 4 7 7 8 8 8 10 10 12 11 12 13 14 13 15 13 15 15 15 16 15 11 12 13 13 13 14 14 12 12 8 11 9 13 14 14 14 14 17 18 18 18
1 3 5 5 4 6 8 9 9 9 10 11 10 11 12 13 14 15 14 14 14 13 13 13 13 12 13 14 14 15 15 12 12 12 12 13 11 13 14 13 15 17 17 16 17
-1 3 6 5 6 6 8 8 8 9 9 9 9 10 11 11 13 14 14 14 14 13 12 11 13 13 14 13 13 14 13 13 13 13 12 12 12 12 14 15 14 14 15 15 15
-1 2 4 7 7 6 6 8 8 9 10 10 11 11 11 11 14 14 14 15 13 13 11 11 10 9 12 10 12 10 11 12 13 12 12 11 12 14 14 11 9 11 12 14 15

GFSSW_850_temp_069.txt.gz
Temp
10 10 11 11 12 12 13 13 13 14 14 14 14 15 15 17 17 18 18 18 18 18 18 17 17 17 17 17 17 17 17 17 17 17 19 15 16 14 15 14 14 14 14 14 13
9 10 10 11 11 11 12 12 13 13 14 14 14 15 15 16 17 18 18 18 17 18 17 17 17 17 17 17 16 17 17 18 18 18 18 15 15 15 15 14 13 13 13 13 13
10 9 10 10 10 10 11 12 12 13 13 14 14 15 15 16 17 18 18 18 18 17 17 17 17 18 17 16 16 15 18 17 18 17 16 15 15 14 15 16 14 14 13 13 13
10 10 10 9 9 10 10 11 12 12 13 13 13 14 15 16 17 18 18 18 18 18 17 17 17 17 16 17 16 16 16 16 17 16 15 16 14 15 14 14 14 13 12 12 12
9 9 10 10 10 9 10 11 12 12 12 13 13 14 14 14 17 18 18 18 18 18 18 17 17 17 18 16 16 16 17 15 15 15 15 15 14 14 12 12 14 12 12 12 12
10 9 9 10 9 10 10 10 11 11 12 12 12 12 12 11 17 18 18 18 18 18 18 18 18 18 17 17 17 16 15 15 15 15 15 16 15 14 12 11 11 12 12 11 11
10 9 9 9 9 10 10 10 11 11 12 13 12 12 12 16 17 17 17 18 18 18 18 18 18 18 18 17 17 16 17 17 16 16 17 16 17 15 13 11 12 11 11 11 11
10 10 9 9 9 10 10 10 11 11 12 13 13 12 13 17 17 18 17 18 18 18 18 18 18 18 18 17 16 17 16 18 17 16 16 17 17 14 13 12 13 12 11 12 13
10 10 10 8 9 9 10 10 10 11 12 13 12 12 14 16 17 18 18 18 19 18 18 17 18 17 17 17 17 16 17 17 18 17 17 17 17 15 12 12 13 14 14 11 12
9 10 10 9 8 9 10 10 11 12 12 11 11 10 15 17 17 17 18 18 18 18 17 17 17 16 15 17 17 17 16 16 17 18 17 18 16 15 13 13 14 13 12 12 12
6 9 10 9 8 8 10 10 11 11 10 12 13 13 15 16 16 18 18 18 18 18 17 16 17 17 17 16 17 17 17 17 17 17 17 17 17 15 13 13 13 13 13 13 13
3 5 7 9 8 8 8 8 8 8 7 12 13 13 14 14 14 17 17 18 17 17 15 16 16 16 16 16 17 17 17 17 17 16 16 16 17 16 15 14 14 14 13 13 14
2 3 4 6 8 7 9 9 8 8 7 10 13 13 14 15 14 17 17 18 17 15 15 16 17 15 16 16 16 17 16 16 17 16 16 15 17 16 15 14 14 14 14 13 14
2 2 2 4 7 7 8 8 8 9 8 11 11 13 13 15 14 17 17 18 16 17 15 16 15 16 16 16 16 16 16 16 16 16 18 16 18 17 16 15 15 14 14 15 14
1 2 2 3 6 7 8 8 9 9 11 14 12 13 13 15 16 15 18 18 16 15 16 17 15 15 16 16 16 17 16 16 16 16 16 16 17 19 15 16 16 16 15 15 17
1 1 2 3 4 9 8 8 8 9 9 13 13 12 12 14 16 15 17 18 17 15 15 16 15 16 17 16 16 16 16 15 14 15 16 16 17 19 19 18 18 17 16 15 17
1 1 2 3 4 7 7 7 9 9 12 14 14 13 13 14 15 15 15 15 16 15 15 16 16 16 16 17 16 16 16 16 16 16 17 15 15 18 18 17 17 18 16 17 17
1 1 2 3 4 5 6 7 9 11 11 13 14 13 13 14 15 15 14 15 14 15 14 16 16 16 16 18 18 16 17 16 16 15 16 14 16 20 17 17 16 16 15 16 17
1 1 1 2 4 5 6 8 10 11 12 13 14 13 13 14 15 15 14 16 16 15 17 14 15 15 16 16 17 16 16 15 13 12 14 15 16 18 16 17 16 16 15 15 16
0 0 1 1 3 4 6 8 10 11 13 13 13 14 13 13 14 15 13 14 15 15 16 15 16 15 15 16 15 16 15 15 14 14 15 15 15 17 19 19 16 17 17 17 15
-0 1 2 2 3 4 6 8 10 11 12 12 12 12 13 13 14 13 14 15 16 14 15 14 15 15 15 16 17 15 15 14 15 14 15 15 17 16 18 18 17 17 17 18 18
0 1 3 2 3 5 6 8 10 11 11 12 12 12 13 13 13 13 14 15 15 14 15 14 13 14 16 15 15 15 16 15 15 14 12 13 15 16 16 15 14 15 16 18 19
1 0 3 3 4 5 7 8 9 10 11 11 11 12 12 13 14 13 13 15 15 14 15 13 13 14 15 15 15 16 15 14 12 11 13 14 16 15 15 16 16 15 17 17 18
0 1 2 2 5 6 6 7 8 10 10 11 11 11 12 13 12 14 13 14 14 14 15 15 13 15 15 16 15 14 14 13 15 13 14 14 16 17 17 16 17 16 17 17 17
0 1 3 3 3 5 7 8 8 9 10 10 10 11 12 12 13 13 14 13 13 13 13 15 15 13 14 14 14 15 15 13 15 15 15 17 14 17 17 17 16 16 16 17 17
0 1 3 5 5 4 6 7 8 9 10 10 10 11 12 11 13 13 14 13 14 11 12 12 14 12 14 12 13 14 15 13 13 14 14 14 14 15 15 14 14 14 14 15 16
-0 2 3 5 5 4 5 7 8 10 10 11 10 11 10 12 12 12 13 13 13 14 12 12 11 11 13 11 13 12 13 14 14 14 15 14 16 14 14 14 12 11 12 13 14

GFSSW_850_temp_072.txt.gz
Temp
9 10 10 11 11 11 11 12 12 13 14 14 14 15 15 17 18 18 17 18 18 17 17 17 17 17 17 19 18 19 22 22 22 22 23 20 20 16 17 19 17 16 17 15 15
10 10 9 9 10 11 12 12 12 12 13 14 14 15 15 16 18 18 18 18 18 17 17 17 18 17 19 20 19 21 22 22 23 23 22 20 18 19 18 18 18 16 15 13 14
10 11 11 10 10 10 10 11 12 12 12 13 14 14 15 16 17 18 18 18 17 17 17 17 17 18 20 20 20 21 22 22 22 21 21 20 20 18 20 21 20 18 16 13 13
11 11 10 10 10 11 11 11 11 12 12 12 13 14 15 16 20 17 18 18 18 17 17 17 18 19 21 21 20 21 21 20 21 19 19 21 20 20 19 18 16 16 15 13 13
10 10 10 10 10 10 11 12 11 11 12 12 13 13 14 14 16 18 18 18 18 17 17 18 19 20 21 21 20 20 21 20 19 19 19 19 19 19 19 15 15 16 13 13 12
10 10 9 9 10 10 10 11 12 11 11 12 12 12 12 15 17 17 18 18 18 17 17 18 19 19 20 20 21 20 20 20 19 20 19 20 20 19 17 13 13 12 13 11 11
9 10 10 9 9 10 10 10 11 11 11 12 12 12 11 14 17 17 17 17 18 17 18 18 18 19 20 21 19 20 21 21 21 21 21 20 21 21 17 15 15 13 11 11 11
8 9 10 10 9 9 10 11 11 11 11 12 12 12 12 16 17 17 17 17 18 18 18 18 18 18 19 19 20 21 21 21 22 21 20 20 22 20 17 16 17 15 13 11 11
8 8 9 10 9 9 10 10 10 11 11 11 12 12 14 15 16 17 17 17 17 18 18 18 17 19 19 21 21 21 21 21 21 21 21 21 22 21 17 17 18 16 15 13 11
5 8 8 9 10 10 10 11 11 11 11 11 10 11 14 17 15 16 18 17 18 17 17 17 19 21 21 21 20 21 21 20 21 22 21 21 21 21 18 18 18 17 16 15 14
2 3 5 7 9 10 10 11 10 10 9 12 14 14 15 15 16 16 17 17 18 19 20 19 20 20 22 22 22 21 21 21 22 22 21 22 22 22 19 18 18 17 17 16 15
2 2 3 4 7 9 8 8 8 8 10 10 13 12 13 13 15 16 17 18 19 20 20 20 20 22 21 21 20 21 20 21 21 21 19 22 22 23 20 19 19 18 18 17 14
2 2 2 3 6 9 8 7 8 8 10 12 11 13 14 13 15 18 17 19 20 20 20 20 21 20 20 20 20 20 20 20 20 21 20 20 22 22 21 20 18 18 18 18 17
2 1 2 2 5 5 6 8 8 8 12 14 13 13 13 14 16 17 17 19 20 20 21 21 21 20 20 20 20 20 21 21 20 20 21 20 21 22 22 21 20 19 18 18 18
1 1 1 1 4 5 6 7 9 7 14 16 14 13 13 16 18 17 17 18 20 20 20 20 20 19 19 20 20 20 20 20 20 21 21 21 21 23 22 22 22 21 19 19 18
1 1 1 2 2 6 7 8 8 12 13 16 14 14 14 15 17 17 17 18 20 21 20 21 19 20 21 20 20 20 19 20 20 21 20 21 21 23 23 23 23 23 21 19 19
1 1 1 2 4 5 6 7 11 12 16 16 15 14 16 16 17 18 19 18 19 18 18 20 20 21 19 20 19 20 20 19 18 19 19 20 20 22 23 23 22 23 22 21 20
1 1 1 2 3 4 5 8 10 15 15 16 15 15 15 17 18 18 19 19 20 20 20 19 19 20 21 21 21 20 21 19 18 18 20 18 20 22 23 22 22 21 20 19 20
1 1 1 1 2 3 5 8 12 15 15 16 16 15 15 17 18 18 19 19 20 21 20 19 20 20 20 20 21 19 19 20 19 17 18 21 21 23 23 22 22 22 20 20 19
0 -0 0 2 2 3 5 9 13 15 16 15 15 16 15 16 16 17 18 20 20 20 22 20 19 20 19 19 19 20 21 19 19 17 17 20 20 21 22 22 22 23 23 20 18
-0 0 1 2 1 3 5 9 12 14 14 14 15 16 16 16 18 17 18 18 20 19 21 21 20 18 18 19 20 18 19 19 20 19 18 18 20 22 22 23 22 23 21 21 19
-1 1 2 2 1 3 5 9 11 13 13 13 14 14 15 16 17 18 18 19 19 20 18 21 20 18 19 20 20 21 21 20 18 18 18 18 19 23 23 22 21 21 21 20 19
-0 0 1 2 2 3 7 8 11 12 14 13 13 14 14 15 16 17 17 18 18 20 19 19 18 18 18 18 18 19 20 20 19 18 18 17 19 21 21 21 21 21 21 20 19
-0 1 2 1 4 6 7 8 9 10 12 13 14 14 14 14 15 15 15 15 16 19 19 18 20 19 18 19 21 19 20 20 20 18 19 19 20 22 22 22 22 22 20 20 19
0 2 4 2 2 6 7 9 9 10 11 12 13 14 14 14 14 15 15 15 14 13 17 19 19 19 20 21 21 20 20 20 19 20 19 20 21 22 22 22 22 21 19 18 19
0 3 4 6 5 5 7 7 9 11 11 12 12 14 14 14 15 13 14 15 16 15 17 18 18 19 18 19 19 19 20 20 20 20 20 20 20 22 22 21 20 20 18 18 17
1 3 6 5 6 4 5 7 8 11 12 12 13 14 13 14 13 13 13 14 15 16 16 16 18 17 17 17 17 14 17 19 20 19 20 19 21 22 21 20 19 19 15 15 14

GFSSW_850_temp_075.txt.gz
Temp
9 10 10 10 11 11 12 12 12 12 13 13 14 15 15 16 18 16 18 18 18 18 18 17 18 19 20 21 21 22 23 23 24 24 19 24 23 21 20 21 21 20 20 16 15
10 10 11 11 10 11 11 11 12 12 12 13 14 14 16 16 18 16 18 18 18 18 18 19 20 20 21 22 22 23 24 24 25 25 25 24 23 22 22 22 22 20 18 14 14
10 11 10 11 11 10 11 11 11 12 12 12 13 14 15 16 16 20 18 18 18 18 17 19 20 21 22 23 23 24 24 25 24 24 23 24 23 22 22 23 22 21 20 15 13
11 11 11 11 11 10 10 11 11 12 12 12 13 13 15 16 21 19 18 18 18 18 17 19 20 21 23 23 23 23 24 24 24 23 23 24 23 23 22 21 19 19 19 15 14
11 11 11 11 11 10 10 10 10 11 12 11 12 13 14 16 18 18 18 18 18 18 18 20 21 22 23 24 24 23 24 24 23 22 23 22 23 22 23 19 16 18 16 13 13
10 11 11 11 11 11 10 11 11 11 11 11 12 12 11 16 18 17 17 18 18 17 19 20 21 22 22 23 23 23 23 24 23 23 23 22 23 22 20 18 16 15 14 13 12
10 10 11 11 11 11 11 11 11 11 11 11 11 11 11 15 17 17 17 17 18 18 20 20 20 21 22 23 23 23 23 24 24 24 24 23 20 13 20 19 18 15 13 12 11
7 9 10 11 11 11 11 12 11 11 12 11 11 10 13 17 16 16 17 17 18 18 19 20 19 20 21 22 22 23 23 22 15 22 24 23 16 14 20 21 19 16 13 11 11
3 4 8 9 11 11 12 12 11 12 12 11 11 10 15 16 16 17 17 18 18 18 18 19 19 20 22 22 22 23 21 21 23 24 24 23 23 22 21 21 20 19 16 14 11
2 2 3 7 10 10 11 12 12 12 11 11 9 11 14 18 18 18 18 18 19 19 19 19 20 22 23 23 21 22 21 23 23 21 24 23 23 24 22 21 21 19 17 14 13
2 2 2 3 8 10 11 10 11 11 9 14 16 15 17 17 16 17 19 18 19 20 21 21 22 22 23 24 24 23 23 23 23 24 23 23 24 24 23 22 20 20 18 16 14
2 2 2 2 3 8 9 9 12 9 12 14 14 14 15 16 17 19 19 19 20 21 22 22 21 23 24 24 23 22 22 23 24 24 22 23 24 24 24 23 21 20 19 18 17
2 2 2 2 2 7 7 9 10 9 12 15 16 15 15 15 16 20 19 20 21 21 22 22 23 24 22 22 22 22 22 22 22 23 23 23 23 24 25 23 22 21 20 19 18
2 2 2 2 5 6 8 9 9 8 14 18 16 15 15 16 17 18 20 20 22 22 22 22 24 22 22 22 22 21 23 22 22 22 19 24 20 22 25 24 23 22 21 20 19
2 2 2 2 3 6 8 8 7 9 14 20 17 16 16 16 20 19 20 20 21 22 22 22 22 22 21 22 23 22 22 22 22 22 23 23 23 24 25 24 24 24 22 21 20
2 2 2 1 2 6 6 7 8 13 14 19 18 16 16 16 17 20 20 20 21 22 23 23 23 23 23 23 23 23 22 22 22 22 20 23 23 23 24 25 25 25 23 22 21
1 1 2 1 2 4 5 5 11 13 19 19 18 17 17 17 17 20 20 20 20 20 20 22 22 23 22 22 22 22 21 20 19 20 20 22 22 24 24 25 25 25 24 23 22
1 1 1 1 2 4 4 6 12 16 17 19 18 17 17 18 17 19 20 20 21 22 22 20 20 22 22 22 22 22 22 20 18 19 21 22 21 24 25 25 24 24 24 23 23
1 1 1 1 3 3 3 7 13 16 19 18 18 17 17 17 18 18 19 20 21 22 21 21 21 24 23 23 23 22 21 23 21 21 20 22 24 25 25 25 24 24 24 23 22
1 1 1 1 2 2 3 6 13 17 18 18 17 18 17 17 16 17 19 21 21 22 23 22 21 23 22 23 23 22 23 20 21 18 17 22 22 23 24 24 24 25 24 23 22
1 1 2 2 1 2 3 7 11 15 17 18 17 17 18 18 16 17 19 21 22 22 23 23 21 22 22 21 21 21 21 22 22 20 19 19 22 23 24 24 24 24 23 23 22
1 1 3 2 2 2 3 8 10 14 15 17 18 18 18 18 17 16 17 20 20 22 21 22 21 21 21 23 23 24 22 22 20 20 21 20 21 24 24 24 24 24 23 23 22
0 0 2 3 3 4 6 8 9 12 14 16 16 17 17 16 15 17 18 19 20 21 21 21 20 19 20 21 21 21 22 23 22 22 20 18 19 24 24 24 23 23 23 23 22
-0 1 2 2 5 8 7 8 9 10 12 16 16 17 16 15 16 16 16 17 17 20 21 20 20 20 19 21 21 20 21 22 22 20 19 20 21 23 24 23 24 24 23 23 23
0 3 5 2 3 7 9 9 9 10 11 13 15 16 16 15 15 16 16 16 16 16 18 20 19 20 21 22 22 22 22 21 21 21 20 21 22 23 24 24 24 23 23 23 22
0 5 6 8 5 6 7 8 10 11 12 13 14 16 16 16 16 16 16 15 16 17 18 20 19 20 20 21 22 21 22 22 22 22 22 22 22 24 24 24 23 23 22 22 21
1 4 6 7 7 6 8 8 10 12 13 13 14 14 15 16 15 14 14 14 15 15 17 19 19 19 18 20 20 18 20 21 22 22 22 21 22 24 24 23 23 22 22 20 19

GFSSW_850_temp_078.txt.gz
Temp
10 10 11 11 11 12 12 12 12 12 13 13 13 14 15 16 18 18 17 19 18 19 19 18 18 19 20 21 22 23 22 22 23 24 24 23 24 24 22 22 19 16 17 16 15
11 11 11 11 11 11 11 12 12 12 12 13 13 14 15 15 18 19 19 19 19 19 19 19 20 21 21 22 23 24 23 23 25 25 25 25 25 24 23 18 15 13 15 15 14
11 11 11 11 12 12 12 11 12 12 12 12 13 13 14 15 16 19 20 19 19 19 19 19 21 21 22 23 24 24 23 25 25 25 24 24 22 23 24 18 16 16 20 15 14
11 11 11 12 12 12 12 12 12 12 12 12 12 13 14 14 19 19 19 19 19 19 18 19 20 21 22 23 24 24 25 25 25 25 24 24 21 23 24 20 19 19 18 16 14
10 11 11 12 12 12 12 12 12 12 12 12 12 12 13 15 17 18 19 19 19 18 17 20 21 22 23 24 25 24 24 24 25 24 24 24 24 24 15 17 17 18 15 13 13
7 9 10 11 11 11 12 12 12 12 12 12 12 12 11 13 18 19 18 18 19 18 18 20 21 22 22 23 23 24 24 24 24 24 23 24 21 21 14 17 17 15 14 12 12
4 6 8 10 11 11 12 12 12 12 13 12 12 11 10 13 18 19 18 18 18 19 19 21 21 22 22 23 23 24 23 24 21 20 20 21 21 17 17 19 18 16 14 12 11
2 2 4 9 10 11 11 12 12 12 13 12 12 11 11 16 17 18 18 18 19 20 20 21 21 21 21 22 23 23 23 20 18 19 21 23 19 17 20 19 19 17 14 12 11
2 2 2 4 7 10 12 12 12 12 13 13 12 11 13 16 17 17 18 19 19 19 20 20 20 20 21 22 21 23 21 20 22 21 21 24 19 16 18 17 20 17 15 11 10
3 2 2 2 4 7 11 12 13 13 12 10 10 12 14 17 19 18 18 19 19 20 20 20 20 21 21 21 20 21 19 22 22 23 23 23 24 18 18 23 20 16 14 11 11
3 2 2 2 2 5 10 12 13 11 10 14 15 14 16 18 18 18 19 19 19 20 20 21 20 20 22 23 24 24 23 23 24 24 23 23 24 24 23 23 21 17 16 14 12
3 3 2 2 2 4 6 7 12 10 12 14 14 15 16 17 17 18 19 19 20 20 21 21 20 22 23 24 24 23 23 23 24 25 24 23 23 24 23 23 21 19 16 15 14
3 3 3 2 2 4 6 9 10 10 11 14 15 16 16 17 17 18 20 20 20 20 21 21 22 24 23 23 22 22 22 22 23 24 24 23 23 24 24 24 21 21 18 16 15
3 3 3 3 3 4 7 9 10 10 12 16 18 17 17 17 18 17 19 20 21 20 21 22 23 23 23 22 23 22 24 24 23 22 21 20 20 23 23 23 23 21 21 19 17
2 3 2 2 3 5 6 8 9 9 11 21 21 18 18 18 20 19 18 20 20 21 22 21 22 22 22 22 23 22 24 23 22 22 22 21 20 24 24 22 24 23 21 20 19
2 2 2 2 2 6 4 5 8 10 12 18 19 18 18 18 18 20 19 19 20 21 22 22 24 24 23 24 23 24 23 22 22 22 20 22 22 21 21 23 25 24 22 22 20
2 2 1 1 3 4 4 5 8 11 17 18 19 19 18 18 18 19 19 19 19 17 19 22 22 24 24 22 24 23 21 19 17 18 19 22 21 23 22 25 25 25 24 22 22
2 1 1 1 2 3 3 5 7 14 15 21 20 20 18 19 19 19 19 19 20 20 20 20 20 23 24 22 22 22 21 20 17 13 17 19 21 24 25 25 25 25 25 24 23
1 2 1 2 2 2 2 4 8 13 17 16 19 19 18 19 19 18 18 19 20 20 19 20 21 23 24 23 23 22 21 23 21 20 18 19 19 24 25 25 25 25 25 24 24
1 1 1 2 2 2 3 4 8 12 15 18 17 19 18 19 18 18 19 20 20 21 21 21 20 23 24 23 23 22 23 20 21 18 18 21 22 17 21 23 24 24 24 24 23
1 1 1 2 2 2 3 5 8 10 12 14 15 18 18 19 18 18 18 19 19 19 21 21 21 22 24 22 22 22 21 21 22 21 18 17 21 19 21 22 24 25 24 24 23
0 1 1 2 2 3 3 6 8 11 12 13 14 15 18 19 17 17 17 19 19 20 20 21 21 19 21 23 23 23 22 21 20 20 20 18 19 24 24 24 24 24 24 24 23
0 0 1 2 3 3 6 6 8 10 11 13 13 15 17 17 17 18 18 19 18 17 19 20 19 18 20 22 22 21 22 23 22 21 20 17 19 24 25 24 24 24 23 23 23
-0 1 2 2 4 6 6 7 7 8 10 13 13 14 12 14 14 17 17 18 16 16 16 17 20 20 19 20 21 20 22 23 22 18 19 20 21 23 24 23 24 23 22 21 23
-0 2 4 2 3 6 8 8 8 9 10 10 12 12 11 11 12 16 15 15 15 16 16 18 17 20 21 21 22 22 21 21 21 21 20 21 21 22 24 24 24 24 22 23 23
-1 3 5 6 5 4 6 8 9 10 10 10 11 12 14 10 16 16 16 12 12 15 15 18 18 19 19 21 21 21 22 22 22 22 22 22 22 24 24 24 23 24 23 23 23
0 2 6 6 4 5 6 8 9 11 11 12 13 13 12 11 12 14 16 14 13 13 13 14 17 17 16 20 20 17 20 22 22 22 22 21 22 23 23 24 24 23 22 22 22

GFSSW_850_temp_081.txt.gz
Temp
12 12 12 12 12 12 12 12 12 13 12 13 14 14 15 15 18 19 19 20 19 19 19 19 19 19 19 19 20 21 16 16 18 20 21 22 21 23 19 16 14 14 15 14 13
12 12 12 12 12 12 12 13 13 13 13 13 13 14 15 15 17 19 20 19 19 19 19 19 19 20 19 21 21 19 15 17 21 22 21 22 21 22 19 16 15 14 16 16 13
12 11 12 12 12 12 12 12 13 13 13 13 13 13 14 15 16 19 20 20 19 19 19 19 19 20 21 21 21 21 17 20 22 24 23 22 22 18 18 17 17 15 17 15 15
10 11 12 11 12 12 12 13 13 13 12 12 13 13 14 15 16 19 19 19 19 19 19 19 19 20 19 18 22 20 22 22 23 24 23 22 22 16 17 16 17 16 16 15 14
7 10 11 11 11 12 12 12 13 13 12 12 12 12 13 13 15 19 18 18 19 19 19 18 19 20 18 20 21 20 21 23 22 22 22 22 18 18 16 18 16 16 14 13 12
5 5 8 10 11 11 12 12 13 13 12 12 12 11 10 9 19 17 18 18 18 18 19 18 19 20 21 21 19 22 22 22 22 21 22 21 19 19 18 17 16 15 13 11 12
3 3 4 6 9 10 12 12 13 13 13 12 11 10 9 15 19 18 17 17 18 18 18 19 20 20 21 19 22 21 19 19 21 21 20 21 18 17 18 17 17 15 13 12 11
3 2 2 3 4 9 10 12 13 13 12 12 11 9 10 17 17 18 18 18 18 18 18 19 20 20 21 21 20 19 18 18 18 20 20 19 17 18 17 17 17 15 12 11 10
4 4 3 2 2 5 8 12 13 12 13 12 11 9 10 15 16 18 18 18 18 18 18 19 20 20 20 17 16 17 16 18 18 20 18 17 16 17 18 18 16 14 12 11 9
4 4 4 3 2 3 6 11 13 13 12 11 9 8 12 17 17 18 18 18 18 19 19 19 20 16 15 15 15 17 18 19 18 19 18 18 17 14 17 18 14 13 12 10 9
4 4 3 3 4 3 5 10 12 12 10 11 12 13 16 16 17 18 18 18 18 18 17 19 16 15 15 17 19 19 20 18 18 20 19 19 17 15 16 16 13 12 10 10 9
4 3 3 4 4 4 4 7 9 6 7 11 12 12 13 16 15 17 18 18 17 16 17 17 16 18 19 19 20 21 20 19 20 22 21 19 19 19 18 16 14 12 12 11 10
4 3 3 4 4 5 4 5 6 8 8 10 11 13 14 15 15 16 17 18 17 16 17 17 18 20 20 20 20 20 20 19 19 21 20 21 18 20 21 17 15 14 13 13 12
3 3 2 3 4 5 5 5 7 9 7 11 14 14 14 15 16 17 18 17 17 17 17 17 20 20 20 20 21 19 21 21 21 20 17 20 15 19 19 18 16 15 14 13 12
3 2 2 2 4 5 5 6 8 9 6 15 17 18 18 16 18 17 18 17 16 17 17 18 18 19 20 20 21 20 21 21 21 18 18 18 17 17 19 18 18 16 15 14 14
2 2 1 2 3 5 3 5 8 7 8 15 17 17 17 16 17 18 17 17 18 18 18 18 21 20 21 22 21 22 21 20 20 17 15 18 19 16 17 20 20 19 16 15 14
1 2 1 1 4 3 3 4 6 6 14 15 16 17 16 16 16 17 16 15 15 15 16 18 18 20 22 20 20 20 19 15 14 14 14 17 17 18 20 20 21 19 19 17 16
0 1 2 1 3 2 2 4 6 10 10 16 16 17 15 16 16 16 15 15 16 16 16 15 15 18 21 21 19 19 18 13 14 11 13 14 15 18 21 22 23 23 20 19 17
1 1 1 1 2 2 2 3 5 9 12 13 13 13 14 16 16 15 15 15 17 17 15 15 17 20 21 22 20 19 17 18 16 15 14 15 17 20 21 21 21 23 24 20 18
1 1 1 2 2 1 2 3 6 9 10 11 9 11 12 15 16 15 15 17 17 18 18 17 16 20 21 21 20 20 20 17 16 14 13 18 17 17 19 20 21 21 21 22 21
0 1 1 2 2 1 2 3 6 7 9 9 10 10 11 11 11 13 14 17 17 18 18 18 16 17 19 20 19 18 18 19 19 16 13 13 15 17 19 20 21 21 23 23 23
0 1 1 3 2 2 2 4 6 7 8 9 9 9 10 11 11 11 13 16 18 17 17 17 17 15 16 19 21 21 19 18 14 16 15 13 14 19 19 19 20 21 23 23 23
-0 0 1 2 2 2 4 4 5 5 7 8 8 10 11 11 11 12 13 17 18 16 16 16 15 14 16 18 20 20 19 20 18 15 15 11 13 20 19 20 22 23 23 23 23
-0 0 1 1 2 3 3 4 4 6 6 7 8 9 9 9 12 10 9 13 17 16 16 15 15 15 14 16 18 18 19 19 18 13 14 14 17 19 19 20 20 22 22 23 22
-0 0 2 2 2 3 4 5 4 5 7 8 7 7 8 9 10 10 10 8 14 15 15 15 14 15 17 18 19 19 19 19 18 18 17 17 18 19 19 20 21 22 23 22 22
-1 0 2 4 3 3 3 4 4 7 7 8 7 8 9 9 10 10 8 7 8 14 14 13 13 14 15 16 18 19 18 18 19 19 19 18 18 19 21 22 22 22 22 21 21
0 1 3 3 3 2 3 4 5 7 7 9 9 8 8 9 11 10 8 7 8 12 11 12 10 14 12 16 16 13 17 18 18 19 18 17 18 19 20 22 22 22 22 22 22

GFSSW_850_temp_084.txt.gz
Temp
12 12 12 12 12 12 13 13 13 13 14 14 14 14 15 16 18 19 20 20 20 19 19 19 19 19 18 19 19 19 14 13 15 17 19 21 21 18 18 16 16 16 17 16 16
12 12 12 11 12 12 13 13 13 13 13 14 14 14 15 15 17 19 20 20 19 19 18 19 19 18 18 18 20 17 13 15 17 18 19 21 20 18 17 15 15 15 16 15 14
11 12 12 12 11 12 12 13 13 13 13 13 13 14 15 14 15 19 19 19 19 18 18 19 19 18 18 19 19 17 15 18 19 20 21 21 17 18 16 15 15 16 17 14 13
9 11 11 12 12 12 12 13 13 13 13 12 12 13 14 14 15 18 19 19 19 18 19 19 18 18 18 17 19 19 19 19 20 21 22 19 18 17 16 15 15 15 15 13 13
7 7 9 10 11 12 12 12 13 13 12 12 12 12 13 12 15 19 18 18 18 18 19 19 18 18 16 18 18 18 19 21 21 21 21 21 18 18 16 14 15 14 14 13 13
4 5 6 8 10 10 12 12 13 13 12 12 11 11 11 8 18 18 17 17 17 18 18 18 19 19 18 18 18 20 19 20 20 20 21 20 18 18 16 14 14 14 13 13 12
5 4 5 6 7 9 10 12 12 13 12 11 10 9 10 15 18 18 17 17 17 17 17 18 19 17 18 17 20 20 18 17 19 20 19 20 17 17 18 16 14 13 13 12 12
4 4 5 5 6 8 9 11 12 13 12 11 10 8 10 17 16 18 18 17 17 17 17 19 18 18 18 19 19 17 17 17 17 19 19 19 16 17 17 17 14 12 12 11 11
4 4 4 5 6 7 8 10 12 12 12 11 10 8 10 15 16 18 17 17 17 17 17 18 18 18 19 16 14 15 14 16 17 18 18 18 17 16 18 16 13 12 11 10 10
4 4 4 5 6 6 7 10 13 12 11 10 7 7 13 16 16 16 17 18 17 18 18 18 18 15 13 13 14 14 15 17 16 18 17 17 16 16 16 16 14 11 11 10 10
4 4 4 5 6 5 7 10 9 9 8 9 9 11 14 16 15 17 16 17 17 17 15 17 15 15 14 14 16 16 16 16 17 19 18 17 16 15 14 14 12 11 10 10 9
4 4 4 5 6 5 4 4 3 3 4 8 10 10 11 15 12 17 17 16 16 15 15 15 15 17 16 15 16 16 16 17 18 19 18 19 17 16 13 13 12 11 9 9 9
4 4 3 4 5 5 5 4 4 5 4 8 10 11 13 13 12 14 15 16 15 15 15 15 16 18 17 17 17 17 16 17 18 19 19 18 17 17 16 15 13 12 12 11 9
4 3 3 3 4 4 5 5 5 5 5 9 11 12 11 13 13 15 16 16 15 15 15 15 17 17 17 17 17 16 18 19 19 18 16 18 15 16 15 14 13 12 11 11 11
3 3 3 2 4 4 4 6 7 6 6 12 13 15 14 14 16 15 17 15 15 15 15 15 17 17 16 17 18 17 19 19 20 18 16 16 15 16 16 14 13 13 12 11 12
2 2 1 2 3 3 3 6 7 6 5 11 16 14 13 14 15 17 15 16 16 14 15 16 18 17 18 18 18 20 20 18 16 16 14 16 15 15 15 17 15 14 13 12 12
1 0 0 1 3 3 2 5 6 5 11 12 15 14 14 13 14 15 15 13 13 13 13 15 16 17 18 18 18 19 17 14 14 14 13 15 15 16 18 18 17 16 15 12 12
0 0 1 1 2 2 1 2 4 9 9 12 12 12 11 12 14 14 14 12 13 14 13 14 14 16 18 17 18 17 17 12 15 12 13 15 15 17 18 19 20 19 17 14 12
0 0 0 2 2 1 1 1 5 7 10 10 10 11 12 12 10 10 13 14 13 14 13 13 14 17 18 18 18 17 15 17 14 14 13 14 16 17 18 20 21 18 18 15 14
0 0 0 2 2 1 1 2 4 8 9 8 7 10 9 10 10 8 8 13 14 14 15 15 14 17 18 18 18 18 17 15 14 13 13 14 15 16 18 20 19 18 17 17 16
0 0 0 2 1 1 1 1 5 6 7 7 8 8 8 9 10 10 8 9 12 14 14 15 14 15 18 17 17 17 16 17 16 14 12 12 14 15 17 19 19 18 19 19 17
0 1 1 3 0 1 1 3 4 5 6 6 6 7 7 8 8 9 10 10 12 12 12 14 14 14 15 17 18 17 17 17 14 15 13 12 13 18 17 18 18 18 21 20 21
0 0 1 1 1 1 3 3 4 5 4 5 6 8 8 8 7 8 10 12 11 8 13 13 13 12 15 16 17 17 17 17 16 14 15 11 13 17 16 18 20 19 21 22 21
-0 -0 0 1 1 3 3 2 3 5 5 5 5 6 6 6 8 8 9 11 10 10 9 13 12 15 14 15 16 17 17 18 18 14 15 13 16 17 17 17 18 21 21 22 23
-1 -0 1 1 1 2 3 4 3 4 5 6 5 5 5 5 6 7 9 9 9 8 9 12 12 13 15 16 16 16 16 17 18 16 16 16 15 16 17 17 18 22 21 20 21
-1 0 0 2 3 2 3 3 3 5 4 5 4 6 6 5 6 7 8 8 8 7 7 11 12 14 13 14 16 15 16 17 17 17 17 17 16 18 20 19 19 21 21 21 21
-0 0 2 3 2 2 3 2 4 5 5 6 6 6 6 6 8 8 9 9 8 7 6 7 10 11 11 15 15 12 13 15 16 17 17 15 16 17 17 17 18 20 21 22 22

GFSSW_850_temp_087.txt.gz
Temp
12 12 12 12 13 13 13 13 13 13 13 13 14 14 15 16 18 19 19 19 19 19 19 18 18 18 18 18 18 18 13 12 14 15 17 20 19 17 17 17 16 16 16 15 16
9 12 12 12 12 13 13 13 13 13 13 13 13 14 14 15 17 19 20 20 19 18 18 18 18 18 18 18 18 14 11 14 15 16 17 19 19 18 16 15 15 16 16 14 14
8 8 11 11 12 13 13 13 13 13 13 13 13 13 14 14 16 19 19 19 18 18 18 18 18 18 17 17 17 15 14 16 18 20 19 17 17 17 15 14 16 16 16 15 13
7 7 8 10 11 12 12 12 12 13 12 13 12 13 14 14 15 18 18 18 18 18 18 18 18 17 16 16 18 17 17 18 19 21 19 18 18 16 16 16 16 16 16 15 13
5 6 6 8 9 11 11 12 12 12 12 12 12 12 12 12 15 18 18 18 17 17 18 18 18 18 16 16 17 16 17 19 20 20 19 18 17 17 16 15 15 15 14 12 12
4 5 5 6 8 9 10 11 12 12 12 11 11 12 10 8 18 17 17 17 17 17 18 17 18 18 17 17 17 18 18 18 19 19 19 18 17 17 17 14 14 14 13 12 12
5 5 5 6 7 8 8 9 11 11 12 11 10 10 9 13 17 17 17 16 16 16 17 17 17 17 17 16 18 18 17 15 18 19 18 19 17 15 17 15 13 13 12 11 11
4 5 5 6 7 7 8 9 10 11 11 11 10 9 9 16 15 18 18 18 17 16 16 17 16 16 17 18 17 17 16 15 16 18 19 19 16 15 16 14 13 13 11 10 11
4 5 6 6 6 6 8 10 11 11 12 11 10 9 10 14 15 16 16 16 17 17 17 17 16 16 17 15 13 14 13 14 15 17 17 17 16 15 15 14 12 12 11 10 10
4 5 5 6 6 6 8 10 10 10 10 9 7 8 13 15 15 15 16 16 16 16 16 16 16 14 12 12 12 13 13 16 15 16 16 16 15 14 14 15 13 12 10 9 10
4 5 5 6 6 6 7 9 9 8 7 6 6 8 13 13 14 16 15 14 15 16 13 15 13 14 14 13 15 15 15 14 15 17 17 16 15 16 14 14 11 10 10 10 10
4 4 5 6 6 6 5 4 3 2 3 6 8 8 10 11 8 17 15 15 14 13 14 14 13 16 15 14 14 14 14 14 15 17 16 15 15 16 12 13 12 10 11 12 10
4 4 5 5 6 6 5 3 3 4 4 6 9 9 11 12 10 13 13 15 14 13 13 14 15 16 15 15 15 14 14 14 14 16 16 17 15 17 15 14 13 11 12 14 14
3 3 4 5 5 5 5 4 4 4 4 7 9 11 10 11 11 13 13 15 14 13 13 13 16 15 15 15 15 14 16 16 16 15 15 17 14 15 15 13 12 11 11 12 14
3 2 3 3 4 5 4 5 5 5 6 12 12 12 12 12 14 14 13 14 13 14 14 13 14 15 15 15 16 16 17 16 15 15 15 16 14 14 14 13 12 11 11 12 13
2 2 1 3 3 4 4 5 5 6 5 10 13 12 12 12 13 15 13 14 15 14 14 14 16 15 16 17 16 17 16 16 14 14 13 15 14 13 13 15 15 13 12 12 13
0 1 0 1 2 3 2 5 5 6 9 11 10 11 12 12 13 13 13 13 11 11 12 14 14 15 17 15 16 15 15 12 12 13 12 14 13 14 16 16 16 14 13 13 13
-0 -0 -0 0 1 2 1 2 4 7 7 10 9 10 11 10 10 10 13 11 12 13 12 13 13 15 15 15 15 14 14 12 14 11 13 14 13 15 16 18 18 19 18 14 12
-0 -0 -0 1 0 0 1 0 5 6 8 7 8 9 9 10 9 9 8 10 12 12 12 12 12 16 16 17 16 15 14 16 14 13 12 13 14 16 16 17 18 16 15 15 14
-1 -1 -0 1 0 0 1 1 2 6 6 7 6 8 8 8 8 9 8 10 9 11 11 13 13 15 16 16 16 17 16 15 12 13 12 13 14 14 16 19 18 15 15 15 15
-1 -0 0 1 0 -0 0 1 3 5 6 6 6 6 7 7 8 8 8 9 10 10 10 10 11 13 16 14 14 15 16 15 15 12 14 12 12 14 15 16 18 17 17 17 16
-1 -0 1 1 0 0 1 3 3 4 5 5 5 6 5 6 6 7 8 9 11 10 9 9 10 11 13 15 16 16 16 16 13 14 12 11 13 16 15 15 16 18 20 18 17
-1 -0 0 1 0 0 2 3 3 4 4 4 5 6 6 6 5 7 7 10 11 10 9 7 8 9 13 14 16 15 15 16 14 12 12 12 13 16 16 15 18 18 20 22 21
-0 -0 -0 0 1 1 2 2 2 3 4 4 4 5 4 4 5 5 6 8 9 9 9 7 7 9 11 13 14 15 16 16 15 12 13 13 15 16 16 15 17 19 20 20 21
-0 -0 0 0 1 1 2 3 3 3 4 4 3 3 3 3 4 4 6 7 9 7 8 6 7 10 12 14 16 16 15 15 15 14 14 15 15 16 15 16 17 21 22 21 20
-0 -0 0 1 2 1 1 2 3 4 4 4 3 5 4 3 4 5 6 7 7 7 7 6 7 7 11 12 15 16 16 15 14 15 14 15 15 16 17 18 17 19 20 20 22
-0 -0 0 1 2 2 2 2 3 4 4 4 5 4 4 4 5 6 6 6 7 8 6 5 6 7 9 13 13 12 13 15 16 15 16 14 15 17 15 15 16 19 19 21 20

GFSSW_850_temp_093.txt.gz
Temp
11 11 11 12 12 12 12 12 13 13 13 14 14 15 15 15 16 17 18 19 18 19 18 17 17 17 17 17 17 16 17 17 17 16 19 18 18 17 17 16 16 17 17 17 16
8 9 9 10 10 11 12 12 12 12 13 13 13 14 14 15 16 18 17 18 17 18 17 17 17 17 16 16 16 17 17 17 17 17 19 19 17 18 17 16 16 16 17 17 16
8 8 8 8 9 10 10 11 11 11 12 12 13 13 13 14 16 17 17 17 17 17 17 16 17 17 16 16 15 14 18 16 18 17 17 18 18 17 17 19 18 18 18 17 16
5 7 7 7 8 9 9 9 9 9 10 11 12 13 13 13 15 17 17 17 17 16 16 16 16 16 16 16 15 16 16 16 18 18 16 18 17 17 16 20 18 18 17 16 16
4 6 6 7 7 8 9 9 9 9 9 10 11 12 12 12 15 17 16 16 16 16 16 16 16 16 16 16 15 16 17 16 18 18 16 17 18 18 17 19 18 17 17 15 15
4 5 6 6 7 8 8 8 9 9 10 10 10 10 10 8 16 16 16 16 16 16 16 16 16 17 16 16 16 16 16 17 17 17 17 18 18 15 20 19 17 16 15 13 14
4 5 6 6 7 7 8 9 9 9 11 11 11 10 8 14 16 16 16 15 16 15 15 16 16 16 16 16 16 16 16 17 17 17 17 16 17 16 18 17 15 14 13 11 11
4 5 5 6 6 7 7 8 9 10 10 10 11 8 9 15 14 15 15 16 15 15 14 15 15 15 15 16 15 16 15 17 17 17 17 17 20 19 18 15 14 13 11 11 10
4 5 5 5 6 7 7 9 9 8 7 9 9 8 10 12 13 13 13 14 14 15 15 14 14 15 14 15 15 14 17 15 17 17 18 18 19 19 16 14 15 13 12 11 10
4 4 5 5 6 6 7 8 8 7 6 6 6 6 12 11 13 13 13 14 13 13 12 13 14 14 13 14 15 15 15 14 16 17 17 17 18 19 16 15 15 13 12 11 10
2 3 4 5 5 6 7 8 7 6 6 5 7 6 11 11 12 13 13 13 13 13 13 12 13 13 15 15 15 15 15 16 16 16 17 18 17 18 19 15 14 13 12 11 10
0 2 3 4 5 5 5 5 1 1 1 5 7 4 6 8 6 11 12 13 13 13 13 12 13 14 15 14 15 15 16 16 16 16 16 17 17 19 18 18 16 14 12 12 10
0 1 3 4 4 5 4 3 3 2 1 4 6 6 8 7 6 8 11 13 13 13 13 14 14 15 14 14 14 15 15 15 16 16 16 16 17 18 18 15 14 13 13 12 12
-0 -0 1 3 4 4 4 4 4 3 4 7 7 9 9 8 8 12 10 12 13 13 13 13 15 14 14 14 15 14 15 15 15 15 15 16 16 17 19 19 17 14 12 11 12
-0 -0 0 2 3 3 4 4 5 3 7 10 10 10 10 9 11 12 11 11 12 13 13 13 14 14 14 14 15 15 15 15 16 15 15 16 16 17 16 18 20 19 13 11 14
-0 -0 -0 0 2 2 3 5 4 6 6 9 10 10 10 10 11 11 11 11 12 12 12 13 14 14 15 15 15 15 15 15 14 14 14 15 16 18 18 19 20 18 15 13 14
-1 -1 -1 -0 1 2 3 4 5 5 8 8 8 9 9 9 10 10 11 11 11 10 11 13 13 14 15 15 14 15 15 14 13 13 15 15 15 18 18 18 19 20 19 16 15
-1 -1 -1 -0 0 0 1 2 2 6 6 7 7 8 9 8 9 10 10 10 10 11 11 12 12 14 14 16 15 14 15 14 14 14 16 13 15 18 18 19 17 17 17 16 15
-1 -1 -1 1 -0 -0 1 1 5 5 6 5 8 7 7 8 8 9 9 9 9 10 10 10 12 14 15 16 17 14 14 16 15 13 14 16 15 17 18 19 18 18 17 15 15
-1 -1 -1 1 -0 -1 -1 2 3 4 4 5 6 6 6 6 7 8 8 10 9 9 10 9 9 13 14 15 16 15 15 14 13 14 14 15 15 18 18 20 20 19 18 16 15
-2 -2 0 -0 -1 -1 -1 0 1 3 4 4 5 5 5 6 6 7 8 9 9 9 9 9 9 11 13 14 15 14 15 15 15 13 15 15 16 16 18 20 19 20 17 18 16
-2 -2 -0 -1 -1 -0 0 1 2 2 3 4 4 5 5 5 5 6 7 8 8 8 8 8 8 8 11 13 13 15 14 15 14 14 13 14 16 17 17 18 16 17 18 19 19
-2 -1 -1 -1 -0 -0 1 2 2 2 3 4 3 5 4 4 4 5 5 7 6 7 7 8 7 8 11 12 12 11 12 12 14 13 14 13 15 16 15 16 17 17 20 19 19
-2 -2 -1 -1 -1 1 1 1 1 2 2 2 3 3 4 3 4 4 4 5 6 6 7 7 7 8 9 9 9 9 10 10 9 11 14 14 16 17 18 17 18 18 20 20 19
-2 -1 -0 -1 -1 -0 0 1 1 1 2 2 2 2 3 3 4 4 5 5 6 7 7 7 6 7 8 9 9 10 9 10 10 10 12 15 15 17 19 19 20 19 20 19 19
-3 -2 -1 -1 0 0 1 1 1 2 2 3 2 4 3 2 3 4 4 5 4 6 5 3 6 6 7 8 9 9 10 11 10 11 12 14 16 16 17 17 16 17 17 19 21
-2 -1 -1 -0 0 0 1 1 2 2 2 3 3 2 2 3 3 2 3 3 4 3 4 4 4 5 7 9 9 9 10 10 12 13 14 14 16 16 16 16 16 17 17 17 20

GFSSW_850_temp_096.txt.gz
Temp
10 10 10 11 11 11 11 11 12 12 13 13 14 15 15 15 16 16 17 17 18 18 17 17 16 16 17 18 18 19 22 23 23 23 23 23 22 22 20 21 20 20 20 19 16
8 9 9 9 10 10 10 11 11 11 12 13 14 14 14 14 16 17 17 17 17 17 16 16 17 16 18 19 19 21 22 24 24 24 23 23 22 22 22 23 22 21 20 17 15
6 6 8 8 8 8 9 9 9 10 11 12 13 13 13 14 15 17 17 17 16 17 15 16 17 17 19 19 20 21 22 24 23 22 22 22 22 22 22 23 24 23 22 19 16
6 7 7 8 8 8 9 9 9 9 10 11 11 12 13 13 18 16 16 16 16 16 15 16 17 18 20 20 20 20 21 22 22 22 21 22 22 22 22 23 23 20 20 18 16
5 5 6 7 8 8 8 9 9 9 10 10 11 12 11 11 15 16 17 16 16 16 15 16 18 19 20 21 21 19 22 21 21 21 21 21 21 22 22 22 22 20 17 17 16
4 5 6 7 7 8 8 8 8 9 10 10 11 11 9 12 16 16 16 15 15 15 15 16 17 18 19 20 20 22 20 21 21 21 21 21 22 22 22 22 20 17 17 16 16
5 5 6 6 7 7 8 8 8 10 10 11 11 10 7 12 15 15 16 15 15 14 15 16 16 17 18 19 19 19 20 21 22 21 22 22 22 23 22 21 20 18 17 16 16
5 5 5 5 6 7 7 8 9 9 10 10 10 8 9 14 13 14 14 14 14 14 14 14 15 16 18 18 18 19 20 20 22 22 22 21 23 24 22 21 22 21 18 16 15
3 4 4 5 6 6 7 8 9 9 8 8 7 6 11 12 12 12 13 13 13 14 14 13 14 16 17 18 19 20 19 21 22 22 23 21 23 24 21 20 21 21 20 18 16
0 2 3 4 5 6 7 8 9 7 6 7 6 6 12 13 11 12 11 13 13 12 12 13 15 17 18 19 18 20 20 20 20 23 21 22 22 24 23 22 22 22 21 19 17
-0 0 3 4 5 5 7 7 8 8 6 7 10 10 10 11 9 12 11 12 13 13 15 14 16 16 19 19 20 21 20 20 22 22 20 21 22 23 24 24 23 22 21 20 18
1 0 1 3 4 5 5 4 2 2 3 5 6 6 6 7 7 10 11 13 14 16 15 15 15 19 19 19 19 19 18 19 21 22 20 21 22 23 24 24 23 23 22 20 18
0 -1 0 2 4 4 4 3 3 2 4 8 7 8 9 7 8 11 10 13 14 16 15 15 18 18 18 17 17 18 18 19 19 21 21 20 20 22 24 23 22 21 21 20 19
0 -0 -0 2 3 4 3 3 4 3 8 13 11 11 9 9 11 11 11 13 15 15 16 15 18 17 17 17 17 16 19 18 18 19 19 20 20 22 23 23 24 24 21 20 19
-0 -0 -0 0 1 2 3 4 4 3 10 12 12 10 12 11 12 13 11 11 13 14 14 15 16 16 16 17 18 17 18 18 18 19 19 20 19 21 23 22 23 24 24 20 18
-0 -1 -1 -0 1 1 3 4 3 8 10 12 12 12 13 13 13 13 12 11 12 13 14 14 16 15 16 18 18 18 17 18 18 18 17 18 19 21 23 23 24 24 22 20 18
-1 -1 -1 -0 1 2 3 3 7 9 11 11 10 11 12 12 13 13 13 13 13 13 13 13 14 16 16 15 16 16 17 16 16 16 17 20 19 21 22 23 23 24 23 20 18
-1 -1 -1 -1 -1 1 1 6 5 9 10 10 10 11 11 11 12 13 13 13 13 13 14 14 13 15 17 17 17 15 16 16 16 18 19 19 18 21 23 24 23 22 22 21 18
-1 -1 -1 -1 0 -0 2 5 8 9 8 8 10 10 12 11 11 12 12 12 12 12 12 13 14 16 16 17 17 17 15 17 17 18 16 20 20 21 22 22 23 23 23 21 19
-1 -1 -0 -1 0 -0 4 5 7 7 7 7 8 9 10 10 10 11 11 12 11 11 12 12 12 15 16 16 17 18 19 15 17 15 16 19 20 20 21 22 24 23 23 22 20
-1 -0 0 -0 -0 0 3 5 6 5 5 6 7 8 9 8 9 9 10 11 11 11 12 12 11 14 14 16 16 16 16 16 18 18 17 17 20 21 21 22 23 23 23 22 20
-1 0 -0 -1 0 1 3 4 3 5 5 6 7 7 7 8 8 8 9 10 11 10 10 10 11 11 13 15 15 15 16 17 16 16 17 17 19 22 22 22 23 23 22 21 20
-2 0 -0 -1 2 3 3 4 3 4 5 5 6 7 7 7 7 8 8 9 9 9 9 9 10 11 13 14 14 14 15 14 14 15 16 16 18 21 21 20 20 21 23 21 19
-2 0 -1 -1 0 4 4 4 3 3 4 4 5 6 6 6 7 7 7 8 8 8 8 8 9 10 12 13 13 12 13 14 13 12 15 16 17 19 20 21 21 22 22 22 20
-2 1 1 0 0 1 3 4 4 3 4 4 4 5 5 5 6 6 7 8 8 9 9 9 8 10 11 11 12 12 12 13 13 14 13 15 16 18 19 20 21 21 22 21 21
-2 -0 0 3 3 3 2 2 3 4 4 4 4 5 5 5 6 6 6 7 7 8 8 6 8 8 9 11 11 11 13 14 14 14 15 15 15 17 18 19 20 21 21 21 21
-2 -1 0 2 3 3 3 2 3 4 4 4 5 5 5 5 3 2 3 4 5 6 6 6 7 8 9 11 11 10 12 13 15 16 15 14 17 19 19 20 21 20 20 21 21

GFSSW_850_temp_099.txt.gz
Temp
9 9 9 9 10 10 10 11 11 12 12 13 13 14 14 15 16 17 17 18 17 18 17 16 17 18 19 21 22 22 23 24 26 27 27 27 25 24 24 24 24 24 23 23 21
7 8 8 8 8 9 9 9 10 10 11 12 13 14 13 14 16 18 18 17 17 17 17 18 18 19 20 21 22 23 24 25 28 27 26 26 26 25 25 25 25 25 24 23 20
6 7 8 8 8 8 8 9 10 10 11 11 12 13 13 13 15 20 18 17 17 17 16 18 19 20 21 22 23 23 23 26 26 26 25 25 26 25 25 25 25 25 24 23 22
5 6 7 8 8 8 8 9 9 10 10 11 11 12 12 13 19 18 18 18 17 17 16 18 19 20 22 23 23 23 24 24 25 25 25 25 25 25 25 25 25 24 24 22 21
4 5 6 7 7 8 8 8 9 10 10 11 11 11 12 13 16 17 17 16 17 16 17 18 19 20 22 23 24 24 24 24 24 24 24 24 24 24 24 24 24 24 24 22 20
4 5 6 6 7 8 8 8 9 10 10 11 11 11 9 13 16 16 15 15 15 17 17 18 19 20 21 23 23 24 24 24 23 24 24 24 24 24 24 24 24 24 23 21 20
3 6 6 6 7 8 8 8 9 10 10 10 10 10 9 13 15 14 14 14 16 17 18 18 18 19 20 21 21 22 22 23 24 24 24 24 24 25 25 25 25 23 23 21 20
2 5 5 5 6 7 8 8 9 10 10 10 10 7 10 14 13 13 14 14 14 15 16 17 16 17 18 19 21 21 22 21 24 25 25 24 23 26 26 25 24 24 24 22 20
1 3 3 5 6 7 8 8 9 10 10 9 7 7 13 13 14 14 14 15 15 15 15 15 16 17 18 19 19 21 21 22 24 26 25 24 24 26 25 24 24 24 24 24 22
1 1 1 3 5 6 7 8 9 9 8 6 7 9 12 15 14 13 14 14 14 15 14 15 16 18 19 19 17 19 21 22 23 25 25 24 24 25 26 26 25 25 25 24 23
1 1 1 2 4 5 7 8 10 10 9 10 13 13 13 13 12 13 15 14 14 15 17 16 17 18 19 20 19 20 22 23 24 25 24 24 24 25 26 26 26 26 25 25 24
1 1 1 2 3 5 5 7 5 4 6 9 10 10 10 10 11 13 14 14 16 17 18 18 17 19 20 20 19 19 20 21 23 24 24 23 23 24 25 26 26 26 26 25 24
1 1 1 1 3 4 4 4 4 3 7 11 12 12 12 11 13 14 14 15 17 18 18 17 20 20 17 18 19 19 19 20 21 22 24 23 22 23 25 25 25 25 25 24 24
0 0 0 1 2 4 5 4 3 3 9 15 13 13 12 12 14 14 14 14 17 17 18 18 19 19 18 18 19 19 20 20 20 20 20 23 21 24 25 26 26 25 25 24 24
0 0 0 -0 1 4 4 3 3 3 12 15 14 13 14 14 15 15 14 14 16 17 17 17 17 17 18 18 18 18 20 19 19 20 20 21 21 23 24 24 25 26 25 25 24
0 -0 -0 1 1 3 2 3 4 9 11 14 15 15 16 15 16 16 15 14 15 16 17 17 18 17 17 19 19 19 19 19 19 19 18 20 21 22 24 25 26 26 26 25 24
-0 -0 -1 1 3 2 2 4 9 10 15 14 14 14 15 15 16 16 16 16 16 15 16 17 17 18 16 16 18 17 17 16 17 18 18 22 21 22 24 26 26 26 25 24 23
-1 -1 -1 0 2 2 2 7 7 12 14 13 13 13 14 14 15 15 16 16 16 15 16 16 17 18 17 16 17 17 16 16 16 18 19 22 21 23 25 25 25 25 24 24 23
-1 -0 -0 1 1 1 4 7 10 11 13 12 12 12 13 14 13 14 15 16 16 14 15 15 16 18 17 17 17 18 16 19 17 18 16 18 21 23 23 23 25 25 24 24 23
-1 -1 1 1 1 1 5 6 10 11 10 10 10 12 12 14 13 14 14 15 14 14 14 14 13 17 17 17 17 17 19 17 18 14 16 19 20 21 23 22 24 25 25 25 24
-1 -0 2 2 1 3 4 7 9 9 8 9 9 10 11 11 12 12 12 14 14 13 13 14 13 16 16 16 17 15 16 17 19 18 17 17 19 23 24 22 23 25 24 25 24
-1 1 1 1 1 3 5 8 6 8 7 8 8 9 9 10 10 10 11 12 13 13 11 13 12 12 15 18 17 17 18 18 16 16 18 18 19 23 23 23 22 24 24 24 23
-1 1 0 0 2 4 5 7 7 7 7 8 8 9 9 9 8 9 10 11 11 11 11 11 12 12 14 16 17 15 17 18 18 18 17 17 18 23 23 23 23 21 23 23 22
-1 1 -0 -1 1 4 5 6 6 6 6 7 8 8 8 8 9 8 9 11 10 10 8 9 10 12 13 13 11 14 15 16 16 15 16 18 19 21 22 22 22 22 22 22 23
-2 2 2 1 2 3 5 5 6 6 6 6 7 7 7 7 8 8 10 10 10 10 10 10 9 11 13 13 14 13 14 15 15 16 15 17 18 20 21 21 22 21 21 21 23
-2 1 3 3 4 5 4 4 4 6 7 6 6 8 7 7 8 8 9 9 9 11 10 11 9 11 11 13 13 13 14 15 15 16 17 17 17 20 20 19 20 20 21 21 22
-2 0 1 2 4 4 4 5 5 6 6 6 7 6 6 7 6 5 4 5 5 5 8 6 8 9 9 12 13 12 14 15 16 17 17 16 18 20 19 20 20 19 20 21 22

GFSSW_850_temp_102.txt.gz
Temp
9 9 10 10 10 11 11 11 12 12 12 13 13 14 14 15 17 17 17 17 18 18 18 18 18 18 19 21 22 23 23 23 24 26 27 28 27 26 25 25 25 25 25 24 22
7 9 9 9 9 9 9 10 10 11 11 12 12 13 13 14 17 18 18 18 18 18 17 17 19 19 20 21 22 23 23 23 26 27 27 27 27 27 26 26 25 25 25 25 22
6 7 9 9 8 8 9 10 10 11 11 11 12 13 13 14 15 18 18 18 18 18 17 17 19 20 21 22 22 23 23 24 25 26 26 26 26 26 26 26 26 26 26 25 22
5 7 7 8 8 8 9 9 10 10 11 11 12 12 12 13 18 18 17 18 18 18 16 17 19 20 22 22 23 23 24 25 25 25 26 25 26 26 26 26 26 26 25 25 24
4 7 8 7 8 8 8 9 9 10 10 11 11 12 12 12 15 17 17 17 17 16 17 19 20 21 21 22 23 23 24 25 25 25 25 25 25 25 25 25 25 25 25 24 23
4 6 6 7 7 7 8 9 9 10 10 11 11 11 10 12 17 17 16 15 16 17 18 19 20 21 21 22 23 23 24 25 25 25 25 24 25 25 25 25 25 25 25 24 23
2 3 5 6 7 8 8 9 9 10 11 11 11 10 8 13 16 15 15 15 16 17 18 19 19 20 20 21 21 22 22 23 24 24 24 24 24 24 25 25 25 26 25 24 22
2 3 5 6 7 8 8 9 9 10 11 10 9 8 9 15 14 14 15 16 16 16 16 17 17 18 18 19 20 20 21 20 23 24 24 24 22 25 25 26 26 26 25 24 23
2 2 3 4 6 7 8 9 10 10 10 9 8 8 12 14 14 15 15 16 16 16 16 16 17 17 18 18 18 19 19 20 21 24 25 25 24 26 26 26 26 25 25 25 24
2 2 2 2 4 6 7 9 10 10 9 8 7 10 12 16 16 15 15 15 16 16 16 16 17 17 18 18 17 18 19 20 20 22 24 25 24 25 25 26 26 25 25 25 25
2 1 2 2 3 5 7 8 11 9 9 12 13 13 14 15 15 14 15 16 16 16 17 17 17 17 18 19 20 20 19 19 19 20 21 24 25 25 26 26 26 26 26 26 26
1 1 1 1 3 5 6 7 6 5 6 9 10 11 12 12 12 14 15 16 16 16 18 18 17 19 20 21 20 20 19 18 19 20 20 22 23 25 25 25 25 26 26 26 26
1 1 1 1 3 5 5 6 6 5 7 11 13 14 14 13 14 15 16 16 17 17 18 18 19 21 19 19 19 19 19 18 17 18 20 21 22 23 25 25 25 25 26 26 26
1 1 0 1 3 3 5 5 5 4 8 15 14 14 14 13 15 15 15 16 17 16 18 18 20 20 19 19 19 17 19 19 19 18 17 20 19 22 24 25 26 26 26 25 25
0 0 0 0 1 2 5 4 4 5 10 17 15 14 15 15 16 16 16 16 16 17 18 17 18 18 18 19 20 19 20 18 18 18 18 19 19 21 23 24 25 26 26 26 25
0 -0 -0 0 2 3 4 3 4 7 9 16 16 16 15 16 16 17 16 15 16 17 17 17 19 19 19 19 19 20 18 18 18 18 16 18 19 20 22 23 24 26 27 26 26
-0 -0 -1 0 1 3 3 4 7 8 16 16 16 16 16 17 17 17 17 16 15 15 16 18 18 19 19 18 18 18 17 15 14 15 15 19 19 21 23 24 25 26 26 25 25
-0 -0 -1 -0 1 2 3 5 5 12 14 16 15 15 14 16 17 16 16 16 18 17 16 15 16 19 19 18 17 17 17 14 12 14 15 15 15 21 24 25 25 26 26 25 24
-1 -1 -0 1 1 1 3 5 8 11 13 14 15 13 13 15 15 16 15 15 17 14 13 14 16 19 19 19 18 16 16 17 15 16 14 14 18 22 24 24 24 25 26 25 24
-1 -1 0 1 1 0 1 4 8 11 12 12 11 13 12 14 14 14 14 16 16 15 15 14 13 17 18 18 18 17 18 15 16 12 12 16 17 18 19 21 23 24 25 25 24
-2 -1 1 2 1 0 2 5 8 9 10 10 10 10 11 12 13 13 14 15 15 15 14 13 13 14 16 16 17 16 15 16 16 15 14 14 17 20 20 21 22 22 24 24 25
-2 0 2 1 1 2 3 6 7 9 10 10 9 9 10 11 11 12 12 14 14 14 12 12 11 12 14 15 16 15 16 16 14 15 16 16 17 21 19 20 21 21 22 23 23
-2 -1 1 0 2 2 5 6 8 9 9 9 8 9 10 9 9 10 11 13 12 12 12 11 11 10 12 15 17 16 17 17 17 16 15 14 15 20 20 19 21 22 22 22 23
-2 0 1 -0 1 4 3 5 7 8 9 8 9 9 9 8 10 9 10 11 11 12 9 9 10 10 10 13 12 11 13 14 16 10 14 16 17 19 18 19 20 22 22 22 22
-2 0 3 2 2 4 4 3 3 6 7 8 8 8 8 7 8 9 10 10 11 11 10 10 8 10 11 12 13 13 13 13 13 15 12 15 16 18 18 17 20 20 20 21 21
-2 -1 3 3 1 2 4 5 5 6 8 6 7 8 9 8 8 8 9 10 10 11 11 11 8 9 9 12 13 13 13 13 14 15 15 16 16 19 20 20 20 20 20 20 20
-2 -1 -1 3 4 4 5 4 6 7 6 7 7 5 6 7 6 6 6 6 7 7 6 7 8 9 8 11 12 11 13 14 14 15 16 15 17 18 18 19 20 19 19 20 20

GFSSW_850_temp_105.txt.gz
Temp
10 10 10 11 11 11 11 12 12 13 13 13 13 13 14 15 17 17 18 18 18 18 18 17 18 18 18 18 19 20 16 17 18 19 21 24 25 25 25 25 25 25 25 25 23
9 9 10 10 11 11 11 12 12 12 12 12 12 13 13 14 15 18 18 18 17 17 17 17 17 17 17 19 20 17 16 17 20 21 21 23 23 25 24 24 24 25 25 24 22
8 9 9 10 10 10 10 11 11 11 11 11 11 12 13 13 14 17 18 18 18 17 17 17 17 18 18 19 19 19 18 19 21 23 23 22 22 25 23 21 24 24 25 24 22
7 7 8 9 8 9 10 10 11 10 10 11 11 11 12 12 14 17 17 17 17 17 17 17 17 18 17 16 20 18 20 21 22 23 23 22 23 22 24 23 25 25 25 24 22
3 5 6 8 7 8 9 10 10 10 10 10 10 10 11 10 14 17 17 16 16 17 17 17 18 18 17 18 19 19 20 21 22 23 23 24 22 22 22 24 25 25 25 25 23
2 3 5 6 7 7 9 9 10 10 10 10 10 10 9 8 17 16 15 16 16 16 17 17 18 19 19 19 18 20 20 20 21 21 22 21 21 23 23 24 24 25 24 25 24
2 2 3 4 6 8 8 9 10 10 10 10 9 9 8 13 16 16 16 16 16 16 16 17 18 18 19 17 19 19 18 18 19 21 20 22 20 20 23 24 24 24 25 25 24
2 2 2 3 5 7 8 9 10 10 10 9 8 7 8 15 15 16 16 16 16 16 16 17 17 17 17 18 18 17 16 16 18 19 21 21 19 22 23 24 23 24 24 24 24
2 2 2 2 4 6 7 9 10 10 10 9 8 7 8 13 14 15 15 15 16 16 16 17 16 16 16 15 13 15 14 15 17 19 20 21 19 20 20 23 23 24 25 25 25
2 2 2 2 4 5 7 8 11 10 9 8 7 6 10 14 15 15 15 15 15 15 16 16 16 13 12 12 13 13 14 16 16 18 18 18 18 19 20 21 23 24 25 25 25
1 1 1 2 4 5 6 8 8 9 8 8 9 9 13 14 15 15 14 14 15 15 13 15 12 11 12 13 15 15 15 15 17 18 18 17 17 18 19 21 21 23 24 25 25
1 1 1 1 4 4 5 5 5 5 5 7 10 11 12 11 11 15 14 14 15 13 14 13 13 14 15 15 15 15 15 16 17 18 18 16 16 16 17 19 20 23 24 24 24
1 1 1 1 3 4 5 5 5 5 4 7 10 10 11 13 12 13 14 15 14 14 14 13 15 17 17 16 16 16 16 15 16 17 17 16 15 16 18 20 22 24 25 25 24
1 1 1 1 3 4 4 4 5 4 3 8 12 14 13 14 13 13 15 15 14 14 14 13 16 16 16 16 17 15 17 17 17 15 14 16 14 14 16 18 20 23 24 24 24
0 0 0 1 1 2 2 3 4 4 5 15 15 15 14 13 15 15 16 15 14 14 14 14 16 15 15 16 16 16 16 16 16 14 14 15 15 15 18 19 21 21 22 24 25
-0 -0 0 0 1 2 2 3 4 4 5 13 15 14 14 13 14 16 15 16 16 14 14 14 16 15 15 17 17 17 16 15 16 14 12 15 15 15 17 19 20 22 23 24 24
-1 -0 -0 -0 0 2 2 3 2 3 12 14 15 15 14 14 14 15 15 13 12 11 11 14 14 16 16 15 15 16 14 11 11 11 12 16 16 16 17 20 21 22 23 24 24
-0 -0 -0 -0 1 1 1 2 2 8 10 13 14 14 14 15 14 15 15 13 14 13 13 13 12 15 17 15 15 13 12 10 11 10 12 15 13 15 19 20 21 23 24 22 20
-1 -0 -0 1 1 0 0 0 3 7 9 10 10 11 12 14 13 13 13 13 14 14 12 11 13 14 16 16 16 14 13 14 13 13 12 13 14 17 17 17 19 22 24 22 19
-1 -1 -1 2 1 0 0 2 4 7 8 8 7 10 10 11 11 11 12 14 14 13 12 12 10 14 15 15 15 14 15 12 13 11 10 13 14 15 15 14 16 19 20 21 22
-1 -2 1 2 1 -0 1 1 4 5 6 6 7 8 8 8 9 9 11 13 13 12 13 10 10 10 13 14 11 10 12 13 13 12 10 10 12 16 13 13 14 17 21 21 21
-2 -2 1 1 0 0 1 3 5 5 5 6 8 8 7 7 8 8 9 11 12 11 10 11 9 7 10 12 11 10 9 11 11 11 12 12 12 17 16 16 14 16 18 19 21
-2 -2 0 1 -0 1 3 4 5 5 6 7 8 8 8 7 6 8 8 10 11 10 9 10 8 6 9 11 13 11 11 10 8 12 12 11 12 17 17 13 14 15 16 17 20
-2 -3 0 0 -0 0 1 2 2 5 6 7 7 8 7 6 7 6 7 9 10 10 10 9 8 7 6 8 9 9 11 12 6 8 9 10 12 15 16 13 12 14 15 18 19
-3 -2 0 -4 0 0 1 2 3 2 4 7 7 7 6 5 6 6 7 8 9 10 9 8 6 7 8 9 9 9 10 11 11 12 9 10 9 12 15 14 14 14 17 19 20
-3 -2 -0 -1 1 1 1 2 3 4 1 3 3 5 5 6 6 5 5 5 6 6 6 8 6 7 7 8 9 8 10 11 12 12 12 13 13 15 17 17 17 17 18 19 19
-3 -2 -2 -1 -1 1 1 3 3 2 4 6 4 4 4 5 5 5 5 5 5 5 5 5 6 5 5 7 8 7 9 10 11 13 13 12 13 15 16 17 13 13 13 13 13

GFSSW_850_temp_108.txt.gz
Temp
9 9 10 10 10 11 11 11 12 12 12 12 13 13 14 15 16 17 18 19 18 18 17 17 17 18 17 17 18 18 13 12 15 16 18 21 21 23 24 24 25 24 25 25 24
9 9 10 10 10 10 10 11 11 12 12 12 12 13 13 14 16 17 18 18 18 17 17 17 17 17 16 17 18 15 12 14 17 17 18 20 21 22 23 24 24 24 25 24 23
7 8 9 10 10 10 10 10 11 11 11 11 11 12 12 13 14 18 17 17 18 17 17 17 16 16 16 17 18 16 15 16 18 19 20 19 19 21 21 20 23 23 24 23 22
6 6 8 9 10 10 10 10 10 10 11 11 11 11 12 12 13 17 16 16 16 16 17 17 16 16 15 14 18 15 17 17 19 20 20 19 21 20 22 22 24 24 23 23 22
4 5 6 7 7 9 9 10 10 10 10 10 10 10 11 10 13 17 15 15 16 16 16 16 16 16 15 16 17 16 17 18 19 20 20 21 18 19 20 23 24 24 24 23 22
3 3 4 4 5 8 8 9 10 10 10 10 9 9 8 6 16 15 15 14 15 15 16 16 16 17 17 16 15 18 18 18 19 19 19 19 19 20 21 23 23 23 24 24 23
3 3 3 4 5 6 8 9 10 10 10 9 8 7 7 13 15 15 15 15 15 15 16 16 16 16 17 16 18 18 16 15 17 18 18 20 18 18 22 21 21 21 22 23 24
2 2 3 3 5 7 8 9 10 10 10 10 8 7 8 15 14 15 15 15 16 15 16 16 16 16 16 17 16 16 15 14 17 18 18 19 17 18 21 20 19 19 20 21 23
2 2 2 3 4 6 7 9 10 11 11 10 8 7 8 13 14 15 15 15 15 15 16 16 16 16 16 14 12 13 14 13 15 17 16 17 17 18 20 19 19 19 19 20 22
1 2 2 3 4 5 6 8 9 9 9 8 6 6 11 14 14 14 14 14 15 15 15 15 15 12 11 11 12 12 12 13 13 16 16 15 15 16 18 18 18 18 19 20 22
1 1 2 3 4 5 5 8 6 8 7 7 7 8 11 13 13 14 14 14 14 14 12 14 11 10 13 11 14 13 13 12 13 15 15 14 14 15 16 17 17 18 18 18 21
1 2 2 2 5 4 4 3 3 3 4 5 8 9 10 11 9 16 14 13 13 12 12 12 11 13 13 12 12 12 12 12 14 15 15 14 15 17 15 16 17 17 18 19 20
1 1 2 2 5 4 3 3 4 4 3 5 9 8 10 11 9 13 12 13 12 12 12 12 13 15 13 13 13 13 12 12 13 15 15 15 14 15 16 16 17 17 18 19 20
0 1 1 2 4 4 3 4 5 4 2 7 10 11 11 12 10 13 13 13 12 12 12 12 14 14 14 13 14 13 15 14 14 14 14 14 13 15 16 16 16 17 19 20 20
0 0 0 0 2 2 2 4 5 4 5 12 13 14 13 13 14 15 13 13 13 13 13 12 14 12 13 14 14 14 14 14 14 13 13 14 11 15 15 16 17 18 19 20 21
0 -0 -0 0 1 1 2 3 5 4 4 10 14 14 13 13 14 14 13 14 15 13 13 12 14 14 13 15 14 15 14 14 14 12 11 14 12 14 13 15 18 19 20 20 20
-0 -0 -0 -0 1 1 2 3 2 2 8 11 10 11 11 12 12 13 13 13 12 11 11 13 13 13 14 13 14 13 12 10 10 10 12 14 13 14 15 16 17 18 19 19 19
-0 -0 -0 0 1 0 1 1 1 6 7 10 8 10 11 12 13 13 13 12 12 12 11 11 11 13 15 13 13 11 12 10 11 10 12 14 12 13 16 16 15 16 16 19 22
-1 -1 0 2 1 -0 -0 1 2 5 7 6 7 8 10 10 9 11 12 12 14 13 11 10 11 13 14 14 14 13 11 13 11 11 10 11 13 15 16 13 14 14 15 16 17
-1 -1 1 1 0 -0 -0 2 2 5 6 5 4 7 5 7 8 8 9 11 11 11 10 11 10 11 13 14 12 13 12 12 10 10 10 11 11 12 13 12 13 13 13 14 17
-2 -2 0 0 0 -1 -0 1 3 4 4 5 4 4 5 6 7 7 9 9 10 10 10 9 9 9 11 11 10 9 10 9 10 10 11 10 10 11 11 11 11 10 12 13 14
-3 -2 -0 -1 -1 -0 -0 2 3 3 4 5 5 5 4 6 7 7 7 8 9 9 9 9 8 7 8 10 11 11 9 9 7 8 8 10 11 15 12 13 11 9 10 13 16
-2 -2 0 -1 -5 -0 0 2 3 3 4 4 4 6 6 6 5 7 7 8 9 8 8 9 7 6 8 9 9 8 10 10 8 6 8 7 10 13 14 12 10 9 9 13 13
-3 -5 -1 -1 -1 -1 -0 0 1 3 2 3 4 5 4 5 6 5 6 8 8 8 9 9 7 7 6 7 7 7 9 9 7 5 6 7 9 11 12 13 11 10 10 12 12
-3 -3 -2 -5 -3 -1 -0 -0 1 1 4 3 3 4 4 4 5 5 5 5 6 6 8 7 6 6 7 7 7 7 7 8 8 9 7 9 10 12 12 13 12 11 10 12 12
-3 -3 -2 -2 -1 -1 0 1 1 2 2 2 2 2 3 3 4 4 4 4 5 5 5 5 5 6 6 7 7 6 7 7 8 9 10 11 11 14 13 14 13 13 12 13 11
-3 -3 -3 -2 -2 -2 -1 1 1 3 3 3 0 1 2 4 4 5 5 5 4 4 4 4 4 4 5 6 6 5 7 7 8 10 10 9 11 10 10 13 11 11 10 9 9

GFSSW_850_temp_111.txt.gz
Temp
7 7 9 10 10 11 11 11 11 11 11 12 12 12 13 14 15 16 17 18 18 18 18 17 17 17 16 16 16 16 11 11 14 14 16 19 18 21 21 22 23 23 23 24 23
8 8 9 8 9 10 10 11 11 11 11 11 12 12 12 13 14 17 18 18 17 17 17 17 17 16 16 15 17 13 10 12 14 15 16 18 18 19 19 20 21 22 24 24 23
6 8 9 9 9 10 10 10 10 11 11 11 11 11 12 13 14 17 17 17 17 17 16 16 16 16 15 15 16 14 14 13 16 18 18 17 17 19 19 17 20 21 23 23 23
4 5 7 9 9 10 10 10 10 10 10 11 11 11 11 12 13 16 16 15 16 16 16 16 15 15 13 13 16 14 15 16 17 18 18 15 19 17 19 19 22 22 22 22 22
6 7 7 8 9 9 10 10 10 10 10 10 10 10 11 10 14 16 15 16 15 15 16 16 15 15 14 14 15 14 15 17 18 18 18 18 16 18 18 21 22 22 21 21 21
5 6 7 8 8 9 9 10 10 10 10 10 9 9 8 6 15 15 15 15 15 15 15 15 15 16 15 15 14 16 16 16 17 17 18 17 17 17 19 21 21 21 21 20 19
4 4 6 7 7 8 9 10 10 10 10 10 9 8 6 12 15 14 15 14 14 15 15 15 15 15 15 15 17 16 15 14 15 17 16 18 17 15 20 20 19 20 21 21 21
3 4 5 7 7 7 8 9 10 10 11 11 9 7 6 14 14 15 14 15 14 15 15 15 15 15 15 16 15 15 15 14 16 16 17 17 17 18 20 20 19 20 20 20 20
3 4 5 6 6 7 8 9 10 10 10 10 8 7 7 12 12 14 14 14 15 15 15 15 15 15 15 13 12 12 13 13 14 16 16 15 15 17 19 18 17 19 19 19 20
2 3 5 6 5 5 7 8 9 8 8 7 5 6 11 12 12 13 13 14 14 15 15 15 14 11 10 11 12 12 11 12 13 15 15 13 13 14 17 17 16 17 19 19 19
1 2 4 6 5 4 5 8 8 7 7 6 6 7 10 11 12 13 13 14 14 14 12 13 11 9 11 13 14 13 12 11 12 13 14 13 13 14 15 15 14 17 18 18 19
1 1 2 5 4 4 4 4 1 1 1 4 7 7 10 11 8 13 13 13 13 11 12 11 10 11 13 12 11 11 11 11 12 13 12 12 13 15 13 14 16 17 18 18 18
1 1 2 4 3 3 4 3 3 3 1 5 8 7 8 9 7 10 11 12 12 11 11 11 12 13 12 12 11 11 11 11 11 13 13 12 13 14 14 14 16 17 18 18 18
0 1 1 3 3 3 3 4 4 4 3 7 8 10 9 10 9 13 12 13 11 12 12 11 12 13 12 12 12 11 12 12 12 11 11 13 13 15 14 14 15 16 17 17 18
-0 0 1 0 1 1 2 4 4 4 5 11 11 11 11 11 13 13 12 12 11 11 12 11 13 11 12 12 13 13 13 12 12 12 12 12 10 14 13 15 15 15 17 18 18
-0 0 0 1 1 1 2 4 4 3 4 9 11 10 10 12 13 13 12 13 13 12 12 11 13 13 13 14 13 14 13 13 12 10 10 13 11 14 12 14 15 16 17 16 15
-1 -0 0 0 1 1 2 3 2 3 7 9 7 8 10 10 11 12 13 11 11 11 10 12 12 12 13 12 13 12 11 9 9 9 11 12 11 13 13 14 14 13 14 14 14
-1 -0 1 1 1 0 1 1 1 6 6 8 6 8 8 8 8 9 11 10 11 11 11 10 10 12 13 12 12 10 10 9 10 9 11 12 10 12 15 14 13 13 13 13 12
-1 -0 1 0 1 0 0 -1 2 3 5 4 5 6 7 7 6 8 8 8 9 10 10 10 11 13 13 13 13 12 10 12 10 10 10 10 11 13 13 12 12 12 11 11 11
-2 -0 0 -0 -0 -0 -0 0 1 4 3 4 3 5 3 4 5 7 7 8 8 9 9 10 8 11 12 12 11 11 11 10 8 9 10 10 10 10 12 11 11 10 10 10 12
-2 -1 -1 -0 -0 -1 -3 -1 2 3 3 3 3 3 3 3 5 6 7 8 8 9 8 8 8 9 11 9 9 9 8 7 8 8 9 9 9 11 11 11 9 9 9 8 10
-3 -7 -1 -1 -1 0 -2 1 2 3 3 2 3 3 2 3 3 5 7 6 8 8 8 8 7 7 8 9 10 9 7 7 7 7 7 7 7 10 10 10 10 9 10 9 9
-3 -2 -1 -1 -7 -7 -1 0 0 2 2 3 3 4 4 3 2 4 6 7 7 7 7 7 7 6 8 7 7 8 9 9 7 6 7 7 8 11 11 11 10 9 10 10 9
-3 -7 -1 -1 -1 -2 -3 -1 1 2 2 3 3 3 3 3 3 3 5 7 6 7 7 8 6 7 6 7 7 7 7 8 7 4 7 7 7 9 10 11 11 10 10 9 9
-3 -5 -3 -6 -4 -1 -1 -0 -1 -0 2 3 2 2 1 2 2 4 5 5 6 5 6 5 5 6 6 6 7 6 6 6 6 6 5 7 7 9 10 11 11 12 11 9 8
-3 -4 -3 -2 -2 -2 -2 -1 0 2 1 1 2 2 2 1 4 3 4 4 4 5 5 4 4 5 5 6 6 5 6 6 6 6 7 7 7 10 11 11 12 12 11 9 8
-4 -3 -3 -3 -3 -3 -3 -1 0 0 2 2 1 0 1 2 4 4 4 4 4 4 3 3 3 4 4 5 5 5 6 6 6 7 7 6 8 10 9 10 11 10 10 8 8

GFSSW_850_temp_114.txt.gz
Temp
9 10 10 10 10 10 11 11 11 11 12 12 12 12 12 13 14 15 16 18 17 18 17 17 17 16 16 15 16 15 10 9 14 13 15 18 17 19 20 20 20 21 21 22 22
7 8 9 9 10 10 10 10 10 11 11 11 11 12 12 12 13 16 17 17 17 16 16 16 16 16 15 15 15 12 9 10 13 13 16 17 17 18 18 18 19 20 22 22 22
7 7 8 8 9 9 9 10 10 10 10 11 11 11 12 12 13 16 15 16 16 15 16 15 15 15 14 14 14 13 11 12 14 16 18 15 16 18 17 15 19 20 21 21 21
5 6 8 9 9 9 9 10 10 10 10 10 10 11 11 11 12 15 15 16 15 15 15 15 14 15 12 12 15 13 13 15 16 18 17 14 17 16 17 18 20 21 21 21 21
6 7 7 8 9 9 9 10 10 10 10 10 10 10 10 9 13 15 16 15 15 15 15 15 14 14 12 13 14 12 14 16 17 18 17 17 15 16 16 19 20 20 21 21 21
6 7 8 8 8 9 9 10 10 10 10 11 10 10 8 6 14 14 14 14 14 15 15 15 15 14 14 14 13 15 15 15 16 16 16 16 15 16 18 19 19 20 20 20 19
6 7 7 8 8 8 9 10 10 10 11 11 10 9 7 12 14 14 14 14 14 13 14 15 15 15 15 14 16 15 14 14 14 15 15 17 14 14 19 19 18 19 19 19 20
5 6 7 7 7 8 9 10 10 10 10 10 9 8 7 14 12 14 14 14 14 14 14 15 14 14 14 15 14 14 14 13 15 14 16 16 15 17 19 18 18 19 19 19 19
4 6 7 6 7 7 9 9 9 9 8 8 8 6 8 11 12 12 12 13 14 14 14 14 14 14 14 12 12 11 12 12 14 15 16 15 15 15 17 17 16 17 18 18 19
3 4 5 5 6 6 7 8 9 8 7 6 6 5 10 10 11 12 12 12 13 14 14 13 13 10 8 10 11 12 11 11 13 15 14 13 12 12 15 15 15 16 17 18 19
3 4 4 4 4 4 6 8 7 7 6 5 6 5 9 12 10 12 12 13 13 13 12 13 10 8 9 12 14 13 11 11 12 13 13 13 12 11 13 13 13 16 17 18 19
1 2 4 4 4 4 4 3 -0 -1 -0 4 9 4 7 7 5 10 10 11 12 11 12 11 9 10 11 12 12 11 11 11 12 12 12 10 11 12 13 13 15 16 17 18 18
1 2 3 5 4 4 3 2 2 2 -0 4 6 6 7 7 5 8 10 11 11 10 11 11 11 11 11 11 11 10 9 10 11 12 11 11 12 13 13 13 16 17 17 18 18
0 1 2 4 4 3 3 3 3 3 1 5 8 10 10 8 7 11 10 11 10 10 11 11 11 12 11 11 12 11 11 12 12 10 10 13 10 14 14 14 14 16 17 17 16
-0 1 1 2 1 2 3 3 4 3 4 9 10 9 10 10 11 13 12 11 10 10 11 10 11 10 11 12 12 10 11 11 11 10 10 10 10 11 14 14 14 13 16 15 14
-0 1 1 2 1 1 3 4 4 4 4 6 8 7 8 10 11 10 12 12 12 10 11 11 12 11 11 12 12 13 12 12 10 9 8 10 10 13 12 14 13 14 14 13 13
-0 1 1 1 1 2 3 4 2 3 6 6 5 6 7 6 8 8 9 10 10 10 9 11 11 12 13 12 12 11 10 10 10 9 9 11 10 13 13 13 13 11 12 13 12
-1 1 1 1 1 1 2 1 1 5 4 5 4 5 6 5 5 7 7 6 8 8 9 9 10 10 11 12 11 9 10 9 10 9 10 11 9 11 13 12 12 12 11 11 12
-1 0 1 0 1 1 2 -1 2 2 3 3 3 4 4 4 4 5 6 6 7 7 6 8 10 12 12 12 12 11 10 11 10 10 9 9 10 12 12 10 10 10 11 11 13
-1 -0 -1 -0 -0 0 -3 1 1 2 3 3 2 3 2 2 3 4 5 7 7 7 7 7 8 10 12 12 11 11 10 10 8 9 10 9 10 10 10 10 9 9 9 10 12
-1 -1 -1 -1 -1 -0 -5 -1 0 2 2 2 2 2 2 2 3 3 5 7 7 7 7 7 7 8 10 9 9 9 8 8 8 8 8 8 9 10 8 9 9 8 10 10 11
-2 -8 -1 -1 -1 -1 -2 -0 1 1 2 2 2 2 2 2 2 2 3 5 8 7 6 7 6 7 8 7 8 8 7 7 7 6 6 7 7 10 8 9 9 9 10 10 10
-2 -2 -1 -1 -8 -7 -3 -0 0 1 1 2 2 3 3 2 1 2 3 6 6 7 6 6 6 6 7 8 7 7 7 7 6 5 5 5 7 10 9 10 10 10 11 9 9
-2 -7 -2 -1 -1 -2 -3 -2 -0 1 1 1 2 2 1 1 2 2 2 5 6 6 6 7 6 6 5 6 7 7 7 7 5 2 5 6 7 8 8 8 9 10 10 9 8
-3 -7 -4 -5 -4 -2 -2 -2 -2 -1 1 1 1 1 2 1 2 2 3 3 5 5 6 5 5 5 5 6 6 6 5 5 5 5 4 6 6 7 8 9 9 10 10 9 8
-4 -4 -3 -3 -2 -3 -2 -2 -1 -0 0 -0 0 2 1 1 1 1 3 2 3 5 4 4 4 4 4 5 5 5 4 4 4 5 5 6 6 8 8 9 9 10 10 9 9
-3 -3 -3 -3 -4 -3 -3 -2 -1 -1 1 -0 -0 -0 0 2 0 2 2 3 3 3 3 3 3 3 4 5 4 4 5 5 5 5 5 5 6 7 7 8 8 9 9 8 8

GFSSW_850_temp_117.txt.gz
Temp
10 10 10 10 10 10 11 11 11 11 11 11 12 12 12 13 14 15 16 17 17 17 17 16 16 16 15 15 16 15 17 16 18 17 19 18 19 19 19 19 19 20 21 21 21
8 9 9 9 9 10 10 10 10 10 11 11 11 12 12 12 13 15 15 16 16 15 16 15 15 15 15 15 15 16 16 16 17 18 18 18 18 18 18 18 19 19 20 21 21
8 8 9 9 9 9 9 10 10 10 10 10 11 11 11 11 13 15 15 15 15 14 14 14 14 15 14 13 13 14 16 14 16 16 16 17 17 17 19 19 19 19 20 20 21
7 7 8 8 8 9 9 9 9 9 9 10 10 10 10 10 13 15 15 15 14 14 14 14 14 14 14 14 14 14 14 16 16 17 16 17 17 18 17 18 19 20 20 20 20
8 8 8 8 8 9 9 10 9 9 10 10 10 10 10 9 13 14 14 15 14 14 14 14 14 14 14 13 14 13 15 15 15 16 16 16 17 17 16 18 19 19 20 20 20
7 7 7 8 8 9 10 10 10 10 10 11 10 10 9 7 14 14 14 13 14 14 14 14 15 15 14 14 14 15 14 15 16 16 16 16 17 16 18 18 18 19 19 19 19
7 7 7 8 8 9 10 10 10 10 11 11 10 9 8 13 13 13 13 13 13 13 13 14 14 14 14 14 15 15 15 16 15 15 16 16 16 16 18 18 17 17 18 19 19
6 6 7 7 8 9 10 10 10 10 10 10 9 8 9 13 12 12 11 12 13 13 13 14 13 13 13 15 14 15 15 15 16 16 16 16 17 19 18 17 17 17 18 18 19
6 6 6 7 8 9 10 10 10 10 9 8 8 6 9 11 12 11 12 12 12 13 13 13 13 13 13 14 14 13 14 14 15 16 16 16 17 18 16 15 16 17 18 18 19
5 5 6 6 7 8 9 9 9 8 7 7 7 7 10 11 10 11 12 12 12 12 11 11 12 12 12 13 13 13 13 13 15 16 15 16 15 16 15 15 15 15 17 18 18
5 5 5 6 6 6 8 9 7 7 7 5 7 4 6 9 8 9 10 11 12 12 12 12 12 11 12 13 14 14 13 14 13 15 15 16 15 16 15 14 14 15 16 17 18
4 5 5 5 5 5 5 4 -0 0 -1 5 5 3 7 6 5 11 9 9 11 12 12 12 11 12 12 12 13 13 13 13 13 14 13 14 15 15 15 15 15 16 16 17 16
4 4 5 5 5 5 3 2 1 1 -1 4 7 7 8 7 6 10 9 10 11 11 12 12 12 12 12 12 12 12 12 13 13 13 13 13 15 15 15 14 15 16 17 16 15
3 4 4 4 4 4 3 3 2 2 4 7 8 8 9 8 8 10 11 10 11 11 11 11 13 12 12 12 12 12 12 13 12 12 13 14 14 15 15 15 15 15 14 14 13
2 2 2 3 2 3 4 4 3 2 7 8 8 7 8 9 9 11 10 10 10 10 11 10 11 11 12 12 12 13 12 12 13 12 12 13 13 14 14 16 16 15 14 13 12
1 1 2 3 2 3 4 4 4 5 6 6 6 6 7 7 8 8 10 10 10 9 9 10 11 11 12 13 13 13 12 12 11 12 11 13 14 14 15 15 15 15 14 12 12
1 1 2 2 2 3 4 4 5 5 6 4 4 5 6 5 7 7 8 8 8 7 9 11 11 12 12 12 12 13 12 11 10 10 12 12 12 14 14 14 13 13 12 11 11
1 1 1 1 2 2 3 3 4 4 3 4 3 5 5 4 5 6 7 7 8 8 7 9 10 11 12 13 12 12 12 12 12 12 13 11 13 14 12 12 11 11 11 11 11
1 0 -0 0 1 1 2 2 3 2 3 2 3 3 3 4 4 4 5 6 7 7 6 7 9 11 11 12 13 10 10 13 12 11 11 12 12 13 12 12 12 12 11 11 10
-0 -0 -1 -0 -0 1 -1 2 1 2 2 2 2 3 2 3 3 3 4 7 7 8 7 8 7 10 10 11 11 11 11 11 11 11 11 11 12 12 11 11 12 12 12 11 11
-0 -1 -2 -1 -0 0 -2 -1 0 2 2 2 2 2 2 2 3 3 4 6 7 7 8 7 7 8 10 8 8 10 10 9 10 9 12 11 12 11 10 11 11 12 12 11 10
-1 -4 -1 -1 -1 -3 -1 -0 1 1 1 2 2 1 2 2 2 2 3 4 6 6 7 7 6 6 8 8 8 8 7 8 10 9 8 9 11 12 10 10 11 11 11 10 10
-2 -2 -1 -1 -3 -4 -2 -1 0 0 1 1 2 2 3 2 1 3 3 4 5 5 6 7 5 5 6 8 8 8 8 8 7 7 8 9 11 11 11 11 11 10 10 10 9
-2 -5 -2 -1 -2 -2 -2 -2 -1 0 0 0 1 2 2 2 2 1 3 4 4 5 5 6 6 6 5 5 7 7 8 8 7 7 8 9 10 11 11 10 10 10 9 10 9
-2 -5 -4 -4 -3 -2 -2 -1 -1 -1 0 0 1 1 1 1 2 2 3 3 4 5 5 6 5 6 7 7 7 7 7 7 7 8 7 9 8 10 10 10 10 9 9 9 10
-3 -3 -3 -3 -3 -2 -2 -2 -1 -1 -1 0 -0 2 1 1 1 1 1 3 4 5 4 5 5 5 5 6 6 6 7 6 6 7 7 7 7 10 9 9 9 9 9 10 9
-3 -3 -3 -4 -3 -2 -2 -1 -1 -2 -0 -0 -1 -0 1 1 1 1 0 1 3 2 4 4 4 4 4 6 6 4 6 6 7 7 7 7 8 10 9 9 9 9 9 8 8

GFSSW_850_temp_123.txt.gz
Temp
10 10 10 10 10 11 11 11 11 12 12 12 12 13 13 14 15 16 15 16 16 16 16 16 16 17 18 19 20 22 23 24 26 27 28 29 26 26 26 27 25 25 25 26 23
10 10 10 10 11 11 11 11 11 11 12 12 12 13 13 13 15 16 16 15 15 15 15 16 17 18 19 20 21 23 23 24 27 28 28 28 25 26 25 25 25 25 24 24 23
9 10 10 10 10 10 10 10 11 11 11 12 12 12 12 13 14 18 15 15 15 16 14 16 17 19 20 21 22 22 22 25 26 26 26 26 26 24 26 26 26 26 25 25 24
9 9 9 9 10 10 10 11 11 11 12 12 12 12 12 13 18 16 15 15 15 15 14 16 17 19 21 21 22 22 23 23 24 24 24 24 24 25 25 25 25 25 25 25 24
9 9 9 9 10 10 11 11 11 12 12 12 12 11 11 12 15 15 15 14 14 14 15 16 17 19 20 22 22 22 22 22 22 22 22 22 23 23 24 24 24 23 23 23 23
8 9 9 9 10 10 10 10 11 11 11 11 11 11 10 14 14 13 14 14 14 15 15 16 18 19 20 21 22 22 22 22 22 22 22 22 22 22 23 23 23 23 22 22 22
8 8 9 9 10 10 10 10 11 11 11 10 10 10 9 13 13 13 13 13 13 14 15 16 17 18 19 20 20 20 21 22 22 22 22 22 22 22 23 23 23 23 22 22 22
8 8 9 9 9 9 10 10 10 10 10 10 9 7 11 12 12 12 13 14 14 13 13 14 16 16 17 18 19 20 20 20 22 23 23 22 21 24 24 24 24 23 23 22 21
8 8 9 9 9 10 10 10 10 10 10 9 8 8 13 12 13 12 12 13 13 14 13 14 14 15 17 18 18 19 18 20 22 24 24 23 22 24 24 23 23 23 22 22 22
7 7 8 8 9 9 10 10 9 9 8 7 8 10 12 12 11 11 13 12 13 14 14 14 15 17 17 18 17 18 19 20 20 22 23 22 22 24 24 23 23 23 23 22 22
7 7 7 7 8 8 10 9 10 9 10 10 10 11 11 10 11 14 12 13 14 15 16 17 16 16 18 19 19 19 19 18 20 22 21 21 22 23 24 24 23 23 23 22 22
6 6 7 7 7 7 6 7 5 4 10 9 9 9 11 10 13 14 13 15 15 16 17 17 16 18 19 19 19 19 18 18 19 20 20 19 20 21 23 24 23 23 23 22 22
6 6 6 6 6 5 4 4 3 3 9 11 10 11 11 12 13 14 14 14 16 16 16 16 18 19 18 18 18 18 18 17 17 19 19 19 18 19 21 22 23 22 22 22 22
6 6 5 6 5 5 5 3 3 3 13 12 12 12 12 12 13 13 13 14 15 15 16 16 18 18 18 17 17 16 18 18 17 16 15 18 17 20 21 22 23 23 21 21 20
5 5 5 5 4 6 4 3 3 4 13 12 12 10 11 12 12 14 12 13 14 15 15 15 16 16 15 16 17 16 17 17 16 15 16 17 17 19 22 21 21 21 21 20 19
5 5 5 3 3 3 4 5 3 11 12 11 11 11 12 13 12 12 12 13 14 15 15 15 16 16 16 16 17 17 16 16 15 14 13 15 17 19 20 21 21 21 20 18 18
4 4 4 2 4 5 5 5 11 13 12 11 10 10 11 11 11 12 12 13 13 12 12 15 16 17 17 15 16 15 13 11 11 11 12 17 17 18 20 22 22 20 18 17 17
3 4 4 2 3 4 4 10 11 10 10 10 10 10 10 10 10 10 11 12 13 13 12 12 12 15 14 15 15 15 14 11 10 12 15 17 16 18 20 19 19 18 17 17 17
2 1 2 3 4 4 7 12 10 9 8 8 9 10 11 10 10 10 10 11 12 12 10 10 11 15 13 13 13 14 12 14 12 13 12 15 17 17 18 17 17 18 17 16 16
2 3 2 4 4 4 10 7 8 7 7 8 7 9 8 9 9 9 9 11 10 11 11 10 9 13 14 12 13 9 13 10 9 9 10 15 16 16 16 16 17 17 17 16 16
1 5 2 4 4 8 9 8 7 6 6 6 7 7 8 7 8 8 9 10 11 10 10 10 10 10 13 12 10 8 9 12 11 10 12 13 15 17 16 16 17 16 16 16 15
2 4 2 4 7 8 8 7 3 6 5 6 6 7 7 7 7 7 8 9 9 9 8 10 8 9 10 13 11 10 9 6 8 11 12 14 14 15 17 17 16 16 15 15 15
3 4 2 2 6 6 5 6 5 6 6 6 6 7 7 6 6 7 8 9 8 9 8 7 8 7 9 12 11 8 8 8 7 6 7 11 11 14 14 16 17 16 15 15 15
2 3 4 4 5 6 4 5 5 4 5 5 6 6 6 5 7 6 7 8 7 8 7 7 7 7 7 9 5 8 6 8 8 8 9 8 9 9 9 15 17 16 15 15 14
1 4 4 4 5 5 5 5 4 4 5 5 6 5 4 4 5 5 5 6 8 8 8 8 6 7 9 10 10 10 10 9 8 8 8 12 12 10 14 16 16 15 14 14 14
-0 4 3 4 4 5 2 5 4 5 4 4 4 4 5 4 3 3 5 5 5 6 7 8 4 7 7 9 10 10 10 10 10 10 10 11 12 15 15 15 15 14 14 14 14
1 1 4 2 4 5 5 4 4 3 4 4 4 4 5 6 5 5 5 5 6 6 6 6 6 6 6 8 9 8 10 11 11 11 10 10 12 15 14 14 14 13 13 13 13

GFSSW_850_temp_126.txt.gz
Temp
11 11 11 11 11 11 11 11 12 12 12 12 13 13 14 14 15 16 14 16 16 16 16 16 16 17 18 19 21 22 22 22 23 25 26 29 29 28 27 27 28 26 26 26 24
10 10 10 10 10 11 11 11 11 12 12 12 12 13 13 14 15 16 15 16 16 16 16 15 17 18 19 20 20 22 22 22 25 26 27 28 29 28 27 27 27 26 26 26 25
10 10 10 10 10 10 11 11 11 12 12 12 12 12 13 13 13 15 16 15 16 16 17 15 17 19 20 20 21 22 22 23 25 25 26 27 27 28 27 26 26 26 26 25 25
9 9 9 9 10 10 11 11 11 11 12 12 12 12 12 13 17 16 16 16 16 16 14 16 17 19 20 21 21 22 23 24 24 24 24 25 25 26 25 26 26 26 26 26 26
9 9 9 9 10 10 11 11 11 11 12 12 12 12 12 12 15 15 15 15 15 14 15 17 18 19 20 21 21 22 23 23 24 24 24 23 24 24 24 24 25 25 25 25 24
8 9 9 9 10 10 10 11 11 11 11 11 11 11 11 13 15 15 14 14 15 15 16 16 17 19 20 21 21 22 23 23 23 23 23 23 23 23 23 23 23 24 24 24 24
8 8 9 9 10 10 10 10 11 11 11 11 11 10 9 12 14 14 14 14 14 15 15 16 17 18 18 19 20 21 20 22 22 23 23 23 22 22 23 23 23 23 24 23 23
8 9 9 9 9 10 10 10 10 10 10 10 10 8 10 13 13 13 14 14 15 15 15 15 15 16 17 18 19 19 20 19 21 22 23 23 21 23 23 23 23 24 24 23 23
8 8 9 9 9 10 10 10 10 10 10 10 9 9 14 14 13 14 13 14 14 14 15 15 15 15 16 17 17 18 17 18 20 23 23 23 22 24 24 24 25 25 24 24 23
8 8 8 9 9 10 10 10 10 10 10 9 9 11 13 13 13 13 14 14 14 15 15 16 16 16 16 16 16 17 18 19 19 21 22 22 21 23 24 23 24 25 24 24 23
7 8 8 8 9 10 11 10 10 10 12 12 12 13 13 12 13 15 15 15 15 16 16 17 16 15 17 18 18 18 18 18 20 21 20 17 19 21 22 24 23 24 23 23 23
7 7 8 8 8 9 8 8 5 5 9 11 11 11 13 12 14 15 15 15 16 16 18 17 16 18 19 19 18 18 18 18 20 20 19 19 18 19 20 21 22 21 23 23 23
6 7 7 8 8 7 6 6 5 5 8 12 12 13 13 13 14 15 15 15 16 16 17 16 17 19 19 19 18 18 17 18 18 19 20 18 17 18 20 21 21 20 21 23 23
6 6 7 7 7 6 7 5 4 4 10 13 12 13 13 13 15 14 14 14 15 15 16 16 17 17 17 17 18 17 18 18 18 17 16 18 15 17 19 19 20 21 21 22 22
6 6 6 6 7 8 5 5 4 5 12 14 13 12 13 14 14 15 14 13 14 14 15 14 16 16 16 17 18 17 18 18 17 16 16 16 16 17 19 19 20 21 22 22 21
5 6 5 6 5 5 5 6 4 9 11 12 13 13 13 13 14 13 13 13 14 14 15 15 16 16 16 17 17 18 16 16 16 15 13 15 15 16 18 19 21 22 22 21 19
5 5 5 4 5 4 6 5 9 11 14 12 12 12 12 13 12 13 12 13 13 12 13 15 15 16 17 16 16 17 15 13 10 11 12 15 14 16 18 20 20 21 20 19 18
5 5 4 3 3 4 4 8 10 12 12 12 11 11 12 12 12 12 12 12 13 13 12 12 11 15 14 14 12 13 11 12 11 11 13 15 13 16 19 20 20 21 19 18 17
4 4 3 3 5 4 6 10 10 11 10 10 10 12 12 12 11 11 11 11 12 12 10 10 10 13 14 14 13 11 11 13 11 13 12 12 15 18 19 20 19 19 18 17 17
2 4 5 5 5 3 8 9 10 9 9 9 9 10 9 10 9 10 10 11 11 12 12 10 8 11 12 13 13 12 12 10 9 9 10 13 14 15 16 18 18 17 17 17 16
3 6 5 6 5 5 8 9 9 8 7 8 8 8 8 8 9 9 9 10 11 10 10 10 9 9 10 11 12 10 9 11 10 8 11 11 14 17 13 11 16 17 17 16 16
4 6 5 5 7 10 10 9 6 8 7 8 8 8 8 8 7 8 8 9 9 9 8 9 7 7 9 12 12 11 5 6 6 7 9 11 12 15 15 12 11 16 16 16 15
5 6 5 5 7 8 7 7 7 8 8 8 7 8 8 7 6 7 8 8 7 7 8 8 5 4 7 10 11 7 8 8 6 6 6 7 11 13 13 12 15 16 16 15 15
5 4 6 6 7 8 6 6 7 6 6 7 7 8 7 6 7 6 6 7 6 4 5 6 7 6 6 8 6 7 9 10 7 6 7 9 8 7 7 9 10 12 15 15 15
3 6 6 5 6 7 7 6 5 6 6 6 7 7 6 4 6 6 6 7 8 7 4 6 6 7 8 9 10 10 10 10 10 8 7 8 8 7 4 6 9 9 15 15 15
2 5 5 6 6 6 4 6 6 7 5 5 5 5 6 5 5 5 6 6 6 7 5 5 3 3 4 8 9 9 9 11 11 11 10 10 9 12 12 10 12 14 14 14 14
3 4 6 5 6 6 6 6 6 4 5 6 5 5 6 6 5 5 6 6 6 6 7 7 6 6 5 8 8 7 10 11 11 12 11 9 10 12 12 12 11 11 11 12 12

GFSSW_850_temp_129.txt.gz
Temp
11 11 11 11 11 12 12 12 12 12 13 13 13 13 14 14 15 15 16 16 16 16 16 17 17 17 17 17 18 19 16 16 17 19 20 24 24 26 28 27 27 27 27 25 25
10 10 10 11 11 11 11 12 12 12 12 12 12 13 13 14 14 16 16 15 15 15 16 16 16 16 17 18 18 17 16 17 19 20 21 24 24 24 26 26 26 26 26 25 24
10 10 10 10 11 11 11 12 12 12 12 12 12 12 13 13 13 16 16 15 15 16 16 16 16 16 17 18 18 18 16 18 20 21 22 22 22 24 23 22 25 25 26 25 24
10 9 10 10 11 11 11 11 11 12 12 12 12 12 12 12 13 15 15 15 15 16 16 15 16 16 16 15 19 17 19 20 20 21 21 21 23 22 22 22 24 25 25 26 26
9 9 9 10 10 10 11 11 11 11 11 11 11 11 11 11 13 15 15 15 15 15 15 15 16 17 15 17 18 17 18 20 21 21 22 23 21 21 22 23 23 23 24 24 25
9 9 9 10 10 10 10 10 11 11 11 11 11 11 10 10 14 14 14 14 14 14 15 15 16 17 17 17 16 19 19 19 20 20 21 21 21 22 22 23 23 23 22 23 23
8 9 9 9 10 10 10 10 11 11 11 11 11 10 10 13 14 14 14 14 14 14 15 15 15 15 15 15 17 18 16 17 18 20 19 21 19 19 22 23 22 22 22 22 23
8 8 9 9 9 10 10 10 11 11 11 10 10 10 11 13 14 14 14 14 14 15 14 15 15 15 15 16 16 15 15 14 17 18 20 20 18 20 22 22 22 22 22 22 23
7 8 9 9 9 9 10 10 11 10 10 10 9 9 11 13 13 14 14 14 14 14 14 15 15 15 15 12 11 13 12 14 16 18 18 18 18 20 22 22 22 22 22 22 22
7 8 8 9 9 9 9 10 10 10 10 9 9 8 12 13 13 14 14 14 15 15 15 15 15 12 11 10 10 12 12 15 15 17 17 18 18 17 20 19 19 19 21 23 23
7 7 8 9 9 8 9 10 10 10 8 10 12 12 13 13 13 14 15 15 15 15 13 15 11 10 11 12 14 14 14 14 15 17 16 17 15 15 17 18 18 19 20 20 22
7 7 8 8 8 8 8 7 6 6 7 11 11 12 13 13 13 15 14 14 14 12 13 13 11 14 16 15 15 15 14 14 15 16 16 16 17 14 17 18 19 19 20 20 21
7 7 7 8 8 7 6 6 5 6 6 11 11 12 13 13 13 14 14 14 12 12 12 11 13 16 16 15 15 15 15 14 14 15 15 16 15 14 16 18 19 19 20 20 20
7 7 7 8 7 6 6 5 6 6 6 12 12 12 12 13 13 14 13 13 12 12 12 12 14 14 14 14 15 13 15 15 15 14 13 16 13 15 15 16 17 18 19 20 20
6 6 7 7 7 6 5 6 6 6 8 12 13 12 13 13 13 14 13 13 11 11 11 11 12 12 12 13 14 13 14 14 14 12 12 13 12 14 15 15 16 18 19 19 20
6 6 6 6 6 4 6 7 6 6 8 12 13 12 12 12 13 13 13 12 13 12 12 11 14 13 13 14 14 14 14 14 13 12 11 13 12 13 14 15 17 18 19 20 20
5 5 5 5 4 5 6 5 5 6 13 11 11 12 11 11 12 12 11 10 9 8 9 11 11 12 14 11 12 12 10 9 10 9 10 13 12 13 14 15 16 17 17 19 18
5 5 5 5 5 6 6 4 6 13 11 11 11 10 10 11 11 11 10 9 10 10 8 8 7 10 11 11 10 10 9 7 8 9 10 12 11 13 15 16 17 17 16 17 17
4 4 4 5 5 6 5 4 7 10 10 9 9 9 11 11 9 9 8 9 10 10 7 7 8 10 11 11 10 10 8 8 7 8 7 9 12 13 15 15 16 17 16 16 16
4 4 4 4 5 5 4 8 9 9 9 9 8 10 7 8 8 7 8 10 9 9 8 7 5 9 10 9 10 9 9 6 7 7 8 9 10 10 13 12 10 12 14 15 15
4 5 5 5 5 5 3 7 9 8 7 7 7 7 7 7 7 6 7 8 7 7 8 7 6 6 8 8 7 8 8 7 6 7 8 7 8 7 7 9 9 9 11 14 15
4 2 5 5 4 5 5 8 7 8 7 8 7 7 6 6 6 6 7 6 7 6 5 6 5 4 5 7 8 9 6 5 5 5 5 5 7 6 5 7 8 7 11 10 15
5 5 5 5 2 1 7 7 7 8 8 7 7 7 7 6 4 6 6 7 7 6 5 5 3 2 5 6 7 5 7 8 5 4 4 5 7 8 6 4 8 8 10 14 15
5 1 5 6 7 5 6 6 6 6 6 7 7 7 6 4 5 5 5 7 7 6 6 4 4 3 3 5 6 4 5 9 7 5 5 6 7 7 6 4 4 8 9 9 14
4 3 5 2 3 5 6 6 5 5 6 6 6 5 4 3 3 4 4 5 6 6 5 4 2 3 4 5 6 7 7 9 8 8 5 8 8 8 8 5 4 5 7 10 12
3 4 5 5 6 4 3 5 6 6 5 4 4 4 4 3 2 1 3 3 3 5 4 4 2 3 3 5 6 7 7 8 8 9 9 9 9 10 8 6 5 6 8 8 7
3 4 5 5 4 3 2 5 4 4 5 6 4 2 3 4 4 4 4 4 4 4 2 2 3 3 4 6 5 5 6 7 7 9 8 7 5 7 7 7 5 4 5 5 5